<?xml version="1.0" encoding="UTF-8" standalone="no" ?>
<gpx xmlns="http://www.topografix.com/GPX/1/1" xmlns:xsi="http://www.w3.org/2001/XMLSchema-instance" xsi:schemaLocation="http://www.topografix.com/GPX/1/1 http://www.topografix.com/GPX/1/1/gpx.xsd" version="1.1" creator="VisuGPX - https://www.visugpx.com">
  <metadata>
    <name>Tour Etang de Thau</name>
    <desc><![CDATA[Tour de l\'Etang de Thau.]]></desc>
  </metadata>
  <trk>
    <name><![CDATA[Tour Etang de Thau_1]]></name>
    <trkseg>
      <trkpt lat="43.31582" lon="3.55052">
        <ele>63</ele>
        <time>2015-08-06T14:01:52Z</time>
      </trkpt>
      <trkpt lat="43.31582" lon="3.55052">
        <ele>63</ele>
        <time>2015-08-06T14:01:57Z</time>
      </trkpt>
      <trkpt lat="43.31582" lon="3.55052">
        <ele>63</ele>
        <time>2015-08-06T14:02:03Z</time>
      </trkpt>
      <trkpt lat="43.31581" lon="3.55052">
        <ele>63</ele>
        <time>2015-08-06T14:02:09Z</time>
      </trkpt>
      <trkpt lat="43.31581" lon="3.55052">
        <ele>63</ele>
        <time>2015-08-06T14:02:14Z</time>
      </trkpt>
      <trkpt lat="43.31581" lon="3.55052">
        <ele>63</ele>
        <time>2015-08-06T14:02:20Z</time>
      </trkpt>
      <trkpt lat="43.31581" lon="3.55052">
        <ele>63</ele>
        <time>2015-08-06T14:02:25Z</time>
      </trkpt>
      <trkpt lat="43.31581" lon="3.55052">
        <ele>63</ele>
        <time>2015-08-06T14:02:31Z</time>
      </trkpt>
      <trkpt lat="43.31581" lon="3.55052">
        <ele>63</ele>
        <time>2015-08-06T14:02:37Z</time>
      </trkpt>
      <trkpt lat="43.31581" lon="3.55052">
        <ele>63</ele>
        <time>2015-08-06T14:02:43Z</time>
      </trkpt>
      <trkpt lat="43.31581" lon="3.55052">
        <ele>63</ele>
        <time>2015-08-06T14:02:49Z</time>
      </trkpt>
      <trkpt lat="43.31581" lon="3.55052">
        <ele>63</ele>
        <time>2015-08-06T14:02:54Z</time>
      </trkpt>
      <trkpt lat="43.31581" lon="3.55052">
        <ele>63</ele>
        <time>2015-08-06T14:03:00Z</time>
      </trkpt>
      <trkpt lat="43.31581" lon="3.55052">
        <ele>63</ele>
        <time>2015-08-06T14:03:05Z</time>
      </trkpt>
      <trkpt lat="43.31581" lon="3.55052">
        <ele>63</ele>
        <time>2015-08-06T14:03:10Z</time>
      </trkpt>
      <trkpt lat="43.31581" lon="3.55052">
        <ele>63</ele>
        <time>2015-08-06T14:03:16Z</time>
      </trkpt>
      <trkpt lat="43.31581" lon="3.55052">
        <ele>63</ele>
        <time>2015-08-06T14:03:22Z</time>
      </trkpt>
      <trkpt lat="43.31581" lon="3.55052">
        <ele>63</ele>
        <time>2015-08-06T14:03:27Z</time>
      </trkpt>
      <trkpt lat="43.31581" lon="3.55052">
        <ele>63</ele>
        <time>2015-08-06T14:03:32Z</time>
      </trkpt>
      <trkpt lat="43.31581" lon="3.55052">
        <ele>63</ele>
        <time>2015-08-06T14:03:37Z</time>
      </trkpt>
      <trkpt lat="43.31581" lon="3.55052">
        <ele>63</ele>
        <time>2015-08-06T14:03:43Z</time>
      </trkpt>
      <trkpt lat="43.31581" lon="3.55052">
        <ele>63</ele>
        <time>2015-08-06T14:03:48Z</time>
      </trkpt>
      <trkpt lat="43.31581" lon="3.55052">
        <ele>63</ele>
        <time>2015-08-06T14:03:54Z</time>
      </trkpt>
      <trkpt lat="43.31581" lon="3.55052">
        <ele>63</ele>
        <time>2015-08-06T14:03:59Z</time>
      </trkpt>
      <trkpt lat="43.31581" lon="3.55052">
        <ele>63</ele>
        <time>2015-08-06T14:04:05Z</time>
      </trkpt>
      <trkpt lat="43.31585" lon="3.55049">
        <ele>65</ele>
        <time>2015-08-06T14:04:11Z</time>
      </trkpt>
      <trkpt lat="43.31588" lon="3.55043">
        <ele>67</ele>
        <time>2015-08-06T14:04:16Z</time>
      </trkpt>
      <trkpt lat="43.31588" lon="3.55039">
        <ele>66</ele>
        <time>2015-08-06T14:04:22Z</time>
      </trkpt>
      <trkpt lat="43.31589" lon="3.55039">
        <ele>65</ele>
        <time>2015-08-06T14:04:28Z</time>
      </trkpt>
      <trkpt lat="43.31589" lon="3.55039">
        <ele>65</ele>
        <time>2015-08-06T14:04:33Z</time>
      </trkpt>
      <trkpt lat="43.31589" lon="3.55039">
        <ele>65</ele>
        <time>2015-08-06T14:04:39Z</time>
      </trkpt>
      <trkpt lat="43.31589" lon="3.55039">
        <ele>65</ele>
        <time>2015-08-06T14:04:44Z</time>
      </trkpt>
      <trkpt lat="43.31589" lon="3.55039">
        <ele>65</ele>
        <time>2015-08-06T14:04:50Z</time>
      </trkpt>
      <trkpt lat="43.31589" lon="3.55039">
        <ele>65</ele>
        <time>2015-08-06T14:04:56Z</time>
      </trkpt>
      <trkpt lat="43.31589" lon="3.55039">
        <ele>65</ele>
        <time>2015-08-06T14:05:01Z</time>
      </trkpt>
      <trkpt lat="43.31589" lon="3.55039">
        <ele>65</ele>
        <time>2015-08-06T14:05:07Z</time>
      </trkpt>
      <trkpt lat="43.31588" lon="3.55036">
        <ele>68</ele>
        <time>2015-08-06T14:05:12Z</time>
      </trkpt>
      <trkpt lat="43.31586" lon="3.55035">
        <ele>69</ele>
        <time>2015-08-06T14:05:18Z</time>
      </trkpt>
      <trkpt lat="43.31585" lon="3.55034">
        <ele>70</ele>
        <time>2015-08-06T14:05:24Z</time>
      </trkpt>
      <trkpt lat="43.31586" lon="3.55035">
        <ele>69</ele>
        <time>2015-08-06T14:05:29Z</time>
      </trkpt>
      <trkpt lat="43.31602" lon="3.55032">
        <ele>69</ele>
        <time>2015-08-06T14:05:35Z</time>
      </trkpt>
      <trkpt lat="43.31619" lon="3.55009">
        <ele>67</ele>
        <time>2015-08-06T14:05:41Z</time>
      </trkpt>
      <trkpt lat="43.31635" lon="3.54977">
        <ele>63</ele>
        <time>2015-08-06T14:05:46Z</time>
      </trkpt>
      <trkpt lat="43.31656" lon="3.54956">
        <ele>60</ele>
        <time>2015-08-06T14:05:52Z</time>
      </trkpt>
      <trkpt lat="43.31671" lon="3.54934">
        <ele>64</ele>
        <time>2015-08-06T14:05:57Z</time>
      </trkpt>
      <trkpt lat="43.31687" lon="3.549">
        <ele>56</ele>
        <time>2015-08-06T14:06:03Z</time>
      </trkpt>
      <trkpt lat="43.31704" lon="3.54869">
        <ele>55</ele>
        <time>2015-08-06T14:06:08Z</time>
      </trkpt>
      <trkpt lat="43.31717" lon="3.54851">
        <ele>53</ele>
        <time>2015-08-06T14:06:14Z</time>
      </trkpt>
      <trkpt lat="43.31724" lon="3.54836">
        <ele>48</ele>
        <time>2015-08-06T14:06:20Z</time>
      </trkpt>
      <trkpt lat="43.31741" lon="3.54809">
        <ele>51</ele>
        <time>2015-08-06T14:06:25Z</time>
      </trkpt>
      <trkpt lat="43.31765" lon="3.54782">
        <ele>52</ele>
        <time>2015-08-06T14:06:30Z</time>
      </trkpt>
      <trkpt lat="43.31793" lon="3.54751">
        <ele>53</ele>
        <time>2015-08-06T14:06:36Z</time>
      </trkpt>
      <trkpt lat="43.31817" lon="3.5473">
        <ele>48</ele>
        <time>2015-08-06T14:06:41Z</time>
      </trkpt>
      <trkpt lat="43.31839" lon="3.54704">
        <ele>50</ele>
        <time>2015-08-06T14:06:47Z</time>
      </trkpt>
      <trkpt lat="43.31869" lon="3.54664">
        <ele>51</ele>
        <time>2015-08-06T14:06:53Z</time>
      </trkpt>
      <trkpt lat="43.31898" lon="3.54641">
        <ele>50</ele>
        <time>2015-08-06T14:06:59Z</time>
      </trkpt>
      <trkpt lat="43.31918" lon="3.54665">
        <ele>53</ele>
        <time>2015-08-06T14:07:04Z</time>
      </trkpt>
      <trkpt lat="43.3194" lon="3.54707">
        <ele>48</ele>
        <time>2015-08-06T14:07:10Z</time>
      </trkpt>
      <trkpt lat="43.31948" lon="3.54764">
        <ele>43</ele>
        <time>2015-08-06T14:07:15Z</time>
      </trkpt>
      <trkpt lat="43.31962" lon="3.54807">
        <ele>45</ele>
        <time>2015-08-06T14:07:21Z</time>
      </trkpt>
      <trkpt lat="43.31979" lon="3.54854">
        <ele>44</ele>
        <time>2015-08-06T14:07:27Z</time>
      </trkpt>
      <trkpt lat="43.31995" lon="3.54902">
        <ele>44</ele>
        <time>2015-08-06T14:07:33Z</time>
      </trkpt>
      <trkpt lat="43.32008" lon="3.54944">
        <ele>45</ele>
        <time>2015-08-06T14:07:38Z</time>
      </trkpt>
      <trkpt lat="43.32027" lon="3.54999">
        <ele>45</ele>
        <time>2015-08-06T14:07:44Z</time>
      </trkpt>
      <trkpt lat="43.32039" lon="3.5505">
        <ele>44</ele>
        <time>2015-08-06T14:07:50Z</time>
      </trkpt>
      <trkpt lat="43.32054" lon="3.55096">
        <ele>46</ele>
        <time>2015-08-06T14:07:55Z</time>
      </trkpt>
      <trkpt lat="43.32071" lon="3.55145">
        <ele>46</ele>
        <time>2015-08-06T14:08:00Z</time>
      </trkpt>
      <trkpt lat="43.32086" lon="3.55187">
        <ele>45</ele>
        <time>2015-08-06T14:08:06Z</time>
      </trkpt>
      <trkpt lat="43.32101" lon="3.55226">
        <ele>46</ele>
        <time>2015-08-06T14:08:11Z</time>
      </trkpt>
      <trkpt lat="43.32116" lon="3.55274">
        <ele>44</ele>
        <time>2015-08-06T14:08:17Z</time>
      </trkpt>
      <trkpt lat="43.32133" lon="3.55324">
        <ele>45</ele>
        <time>2015-08-06T14:08:23Z</time>
      </trkpt>
      <trkpt lat="43.3215" lon="3.55377">
        <ele>45</ele>
        <time>2015-08-06T14:08:29Z</time>
      </trkpt>
      <trkpt lat="43.3217" lon="3.55425">
        <ele>45</ele>
        <time>2015-08-06T14:08:35Z</time>
      </trkpt>
      <trkpt lat="43.3219" lon="3.55466">
        <ele>47</ele>
        <time>2015-08-06T14:08:40Z</time>
      </trkpt>
      <trkpt lat="43.32215" lon="3.55511">
        <ele>47</ele>
        <time>2015-08-06T14:08:46Z</time>
      </trkpt>
      <trkpt lat="43.32243" lon="3.55559">
        <ele>48</ele>
        <time>2015-08-06T14:08:52Z</time>
      </trkpt>
      <trkpt lat="43.32256" lon="3.55584">
        <ele>49</ele>
        <time>2015-08-06T14:08:58Z</time>
      </trkpt>
      <trkpt lat="43.32265" lon="3.55602">
        <ele>50</ele>
        <time>2015-08-06T14:09:04Z</time>
      </trkpt>
      <trkpt lat="43.32287" lon="3.55643">
        <ele>53</ele>
        <time>2015-08-06T14:09:10Z</time>
      </trkpt>
      <trkpt lat="43.32309" lon="3.55682">
        <ele>53</ele>
        <time>2015-08-06T14:09:15Z</time>
      </trkpt>
      <trkpt lat="43.3233" lon="3.55719">
        <ele>51</ele>
        <time>2015-08-06T14:09:20Z</time>
      </trkpt>
      <trkpt lat="43.32354" lon="3.55766">
        <ele>52</ele>
        <time>2015-08-06T14:09:26Z</time>
      </trkpt>
      <trkpt lat="43.32372" lon="3.558">
        <ele>52</ele>
        <time>2015-08-06T14:09:31Z</time>
      </trkpt>
      <trkpt lat="43.32397" lon="3.55841">
        <ele>51</ele>
        <time>2015-08-06T14:09:37Z</time>
      </trkpt>
      <trkpt lat="43.32416" lon="3.55879">
        <ele>50</ele>
        <time>2015-08-06T14:09:42Z</time>
      </trkpt>
      <trkpt lat="43.32427" lon="3.55906">
        <ele>53</ele>
        <time>2015-08-06T14:09:48Z</time>
      </trkpt>
      <trkpt lat="43.3245" lon="3.55944">
        <ele>53</ele>
        <time>2015-08-06T14:09:54Z</time>
      </trkpt>
      <trkpt lat="43.32469" lon="3.55979">
        <ele>54</ele>
        <time>2015-08-06T14:09:59Z</time>
      </trkpt>
      <trkpt lat="43.3248" lon="3.56016">
        <ele>55</ele>
        <time>2015-08-06T14:10:04Z</time>
      </trkpt>
      <trkpt lat="43.32501" lon="3.56037">
        <ele>58</ele>
        <time>2015-08-06T14:10:10Z</time>
      </trkpt>
      <trkpt lat="43.3252" lon="3.5607">
        <ele>57</ele>
        <time>2015-08-06T14:10:15Z</time>
      </trkpt>
      <trkpt lat="43.32541" lon="3.56102">
        <ele>56</ele>
        <time>2015-08-06T14:10:20Z</time>
      </trkpt>
      <trkpt lat="43.32567" lon="3.56146">
        <ele>55</ele>
        <time>2015-08-06T14:10:26Z</time>
      </trkpt>
      <trkpt lat="43.32585" lon="3.56182">
        <ele>54</ele>
        <time>2015-08-06T14:10:31Z</time>
      </trkpt>
      <trkpt lat="43.32606" lon="3.56228">
        <ele>52</ele>
        <time>2015-08-06T14:10:37Z</time>
      </trkpt>
      <trkpt lat="43.32614" lon="3.56258">
        <ele>53</ele>
        <time>2015-08-06T14:10:42Z</time>
      </trkpt>
      <trkpt lat="43.32624" lon="3.56273">
        <ele>52</ele>
        <time>2015-08-06T14:10:48Z</time>
      </trkpt>
      <trkpt lat="43.32637" lon="3.56307">
        <ele>50</ele>
        <time>2015-08-06T14:10:53Z</time>
      </trkpt>
      <trkpt lat="43.32655" lon="3.56351">
        <ele>49</ele>
        <time>2015-08-06T14:10:58Z</time>
      </trkpt>
      <trkpt lat="43.32668" lon="3.56387">
        <ele>50</ele>
        <time>2015-08-06T14:11:04Z</time>
      </trkpt>
      <trkpt lat="43.32683" lon="3.56426">
        <ele>50</ele>
        <time>2015-08-06T14:11:09Z</time>
      </trkpt>
      <trkpt lat="43.32702" lon="3.56475">
        <ele>50</ele>
        <time>2015-08-06T14:11:14Z</time>
      </trkpt>
      <trkpt lat="43.3272" lon="3.56517">
        <ele>50</ele>
        <time>2015-08-06T14:11:20Z</time>
      </trkpt>
      <trkpt lat="43.32741" lon="3.56569">
        <ele>48</ele>
        <time>2015-08-06T14:11:26Z</time>
      </trkpt>
      <trkpt lat="43.32761" lon="3.56609">
        <ele>46</ele>
        <time>2015-08-06T14:11:31Z</time>
      </trkpt>
      <trkpt lat="43.32784" lon="3.56658">
        <ele>47</ele>
        <time>2015-08-06T14:11:37Z</time>
      </trkpt>
      <trkpt lat="43.32809" lon="3.56708">
        <ele>48</ele>
        <time>2015-08-06T14:11:42Z</time>
      </trkpt>
      <trkpt lat="43.32837" lon="3.56756">
        <ele>49</ele>
        <time>2015-08-06T14:11:48Z</time>
      </trkpt>
      <trkpt lat="43.32861" lon="3.56791">
        <ele>48</ele>
        <time>2015-08-06T14:11:53Z</time>
      </trkpt>
      <trkpt lat="43.32892" lon="3.56832">
        <ele>50</ele>
        <time>2015-08-06T14:12:00Z</time>
      </trkpt>
      <trkpt lat="43.32927" lon="3.56874">
        <ele>48</ele>
        <time>2015-08-06T14:12:05Z</time>
      </trkpt>
      <trkpt lat="43.32953" lon="3.56903">
        <ele>45</ele>
        <time>2015-08-06T14:12:11Z</time>
      </trkpt>
      <trkpt lat="43.32981" lon="3.56937">
        <ele>47</ele>
        <time>2015-08-06T14:12:16Z</time>
      </trkpt>
      <trkpt lat="43.33014" lon="3.56975">
        <ele>46</ele>
        <time>2015-08-06T14:12:22Z</time>
      </trkpt>
      <trkpt lat="43.33043" lon="3.57006">
        <ele>45</ele>
        <time>2015-08-06T14:12:27Z</time>
      </trkpt>
      <trkpt lat="43.33076" lon="3.57046">
        <ele>45</ele>
        <time>2015-08-06T14:12:33Z</time>
      </trkpt>
      <trkpt lat="43.33103" lon="3.57077">
        <ele>45</ele>
        <time>2015-08-06T14:12:38Z</time>
      </trkpt>
      <trkpt lat="43.33137" lon="3.57117">
        <ele>46</ele>
        <time>2015-08-06T14:12:43Z</time>
      </trkpt>
      <trkpt lat="43.3317" lon="3.57163">
        <ele>48</ele>
        <time>2015-08-06T14:12:50Z</time>
      </trkpt>
      <trkpt lat="43.33205" lon="3.57205">
        <ele>49</ele>
        <time>2015-08-06T14:12:55Z</time>
      </trkpt>
      <trkpt lat="43.33234" lon="3.57238">
        <ele>49</ele>
        <time>2015-08-06T14:13:00Z</time>
      </trkpt>
      <trkpt lat="43.33263" lon="3.57269">
        <ele>47</ele>
        <time>2015-08-06T14:13:06Z</time>
      </trkpt>
      <trkpt lat="43.33298" lon="3.57308">
        <ele>47</ele>
        <time>2015-08-06T14:13:11Z</time>
      </trkpt>
      <trkpt lat="43.33326" lon="3.57339">
        <ele>46</ele>
        <time>2015-08-06T14:13:16Z</time>
      </trkpt>
      <trkpt lat="43.33358" lon="3.57381">
        <ele>47</ele>
        <time>2015-08-06T14:13:22Z</time>
      </trkpt>
      <trkpt lat="43.33387" lon="3.57414">
        <ele>49</ele>
        <time>2015-08-06T14:13:28Z</time>
      </trkpt>
      <trkpt lat="43.33415" lon="3.57447">
        <ele>49</ele>
        <time>2015-08-06T14:13:33Z</time>
      </trkpt>
      <trkpt lat="43.33442" lon="3.57477">
        <ele>49</ele>
        <time>2015-08-06T14:13:38Z</time>
      </trkpt>
      <trkpt lat="43.33483" lon="3.57505">
        <ele>45</ele>
        <time>2015-08-06T14:13:44Z</time>
      </trkpt>
      <trkpt lat="43.33509" lon="3.57483">
        <ele>43</ele>
        <time>2015-08-06T14:13:49Z</time>
      </trkpt>
      <trkpt lat="43.33535" lon="3.57447">
        <ele>38</ele>
        <time>2015-08-06T14:13:55Z</time>
      </trkpt>
      <trkpt lat="43.33558" lon="3.57476">
        <ele>36</ele>
        <time>2015-08-06T14:14:00Z</time>
      </trkpt>
      <trkpt lat="43.33588" lon="3.57518">
        <ele>41</ele>
        <time>2015-08-06T14:14:05Z</time>
      </trkpt>
      <trkpt lat="43.33614" lon="3.57552">
        <ele>40</ele>
        <time>2015-08-06T14:14:11Z</time>
      </trkpt>
      <trkpt lat="43.33645" lon="3.57593">
        <ele>42</ele>
        <time>2015-08-06T14:14:16Z</time>
      </trkpt>
      <trkpt lat="43.3367" lon="3.57631">
        <ele>45</ele>
        <time>2015-08-06T14:14:22Z</time>
      </trkpt>
      <trkpt lat="43.33696" lon="3.57665">
        <ele>45</ele>
        <time>2015-08-06T14:14:27Z</time>
      </trkpt>
      <trkpt lat="43.33728" lon="3.57704">
        <ele>46</ele>
        <time>2015-08-06T14:14:33Z</time>
      </trkpt>
      <trkpt lat="43.33746" lon="3.57736">
        <ele>45</ele>
        <time>2015-08-06T14:14:38Z</time>
      </trkpt>
      <trkpt lat="43.33732" lon="3.57783">
        <ele>49</ele>
        <time>2015-08-06T14:14:44Z</time>
      </trkpt>
      <trkpt lat="43.33711" lon="3.57813">
        <ele>48</ele>
        <time>2015-08-06T14:14:49Z</time>
      </trkpt>
      <trkpt lat="43.33728" lon="3.57844">
        <ele>48</ele>
        <time>2015-08-06T14:14:55Z</time>
      </trkpt>
      <trkpt lat="43.33754" lon="3.57874">
        <ele>49</ele>
        <time>2015-08-06T14:15:00Z</time>
      </trkpt>
      <trkpt lat="43.33785" lon="3.57911">
        <ele>50</ele>
        <time>2015-08-06T14:15:06Z</time>
      </trkpt>
      <trkpt lat="43.33814" lon="3.57944">
        <ele>48</ele>
        <time>2015-08-06T14:15:11Z</time>
      </trkpt>
      <trkpt lat="43.33848" lon="3.57982">
        <ele>43</ele>
        <time>2015-08-06T14:15:17Z</time>
      </trkpt>
      <trkpt lat="43.33883" lon="3.58019">
        <ele>41</ele>
        <time>2015-08-06T14:15:23Z</time>
      </trkpt>
      <trkpt lat="43.3391" lon="3.58054">
        <ele>41</ele>
        <time>2015-08-06T14:15:28Z</time>
      </trkpt>
      <trkpt lat="43.33935" lon="3.58087">
        <ele>43</ele>
        <time>2015-08-06T14:15:33Z</time>
      </trkpt>
      <trkpt lat="43.33969" lon="3.58125">
        <ele>44</ele>
        <time>2015-08-06T14:15:39Z</time>
      </trkpt>
      <trkpt lat="43.33995" lon="3.58153">
        <ele>41</ele>
        <time>2015-08-06T14:15:44Z</time>
      </trkpt>
      <trkpt lat="43.34025" lon="3.58194">
        <ele>45</ele>
        <time>2015-08-06T14:15:50Z</time>
      </trkpt>
      <trkpt lat="43.34055" lon="3.58234">
        <ele>44</ele>
        <time>2015-08-06T14:15:56Z</time>
      </trkpt>
      <trkpt lat="43.34083" lon="3.58269">
        <ele>45</ele>
        <time>2015-08-06T14:16:01Z</time>
      </trkpt>
      <trkpt lat="43.34116" lon="3.58307">
        <ele>46</ele>
        <time>2015-08-06T14:16:07Z</time>
      </trkpt>
      <trkpt lat="43.34151" lon="3.58348">
        <ele>44</ele>
        <time>2015-08-06T14:16:13Z</time>
      </trkpt>
      <trkpt lat="43.34184" lon="3.58389">
        <ele>45</ele>
        <time>2015-08-06T14:16:19Z</time>
      </trkpt>
      <trkpt lat="43.34218" lon="3.58427">
        <ele>45</ele>
        <time>2015-08-06T14:16:25Z</time>
      </trkpt>
      <trkpt lat="43.34249" lon="3.58465">
        <ele>45</ele>
        <time>2015-08-06T14:16:31Z</time>
      </trkpt>
      <trkpt lat="43.34275" lon="3.58498">
        <ele>43</ele>
        <time>2015-08-06T14:16:36Z</time>
      </trkpt>
      <trkpt lat="43.34306" lon="3.58537">
        <ele>43</ele>
        <time>2015-08-06T14:16:42Z</time>
      </trkpt>
      <trkpt lat="43.34331" lon="3.58569">
        <ele>43</ele>
        <time>2015-08-06T14:16:47Z</time>
      </trkpt>
      <trkpt lat="43.34363" lon="3.58609">
        <ele>42</ele>
        <time>2015-08-06T14:16:53Z</time>
      </trkpt>
      <trkpt lat="43.3439" lon="3.5864">
        <ele>39</ele>
        <time>2015-08-06T14:16:58Z</time>
      </trkpt>
      <trkpt lat="43.34422" lon="3.58678">
        <ele>40</ele>
        <time>2015-08-06T14:17:03Z</time>
      </trkpt>
      <trkpt lat="43.3445" lon="3.58713">
        <ele>39</ele>
        <time>2015-08-06T14:17:08Z</time>
      </trkpt>
      <trkpt lat="43.3448" lon="3.58753">
        <ele>43</ele>
        <time>2015-08-06T14:17:14Z</time>
      </trkpt>
      <trkpt lat="43.34512" lon="3.58792">
        <ele>44</ele>
        <time>2015-08-06T14:17:20Z</time>
      </trkpt>
      <trkpt lat="43.3454" lon="3.58827">
        <ele>44</ele>
        <time>2015-08-06T14:17:25Z</time>
      </trkpt>
      <trkpt lat="43.34565" lon="3.58858">
        <ele>43</ele>
        <time>2015-08-06T14:17:30Z</time>
      </trkpt>
      <trkpt lat="43.34592" lon="3.58891">
        <ele>44</ele>
        <time>2015-08-06T14:17:36Z</time>
      </trkpt>
      <trkpt lat="43.34623" lon="3.58932">
        <ele>41</ele>
        <time>2015-08-06T14:17:41Z</time>
      </trkpt>
      <trkpt lat="43.34655" lon="3.58974">
        <ele>41</ele>
        <time>2015-08-06T14:17:48Z</time>
      </trkpt>
      <trkpt lat="43.34686" lon="3.59011">
        <ele>39</ele>
        <time>2015-08-06T14:17:54Z</time>
      </trkpt>
      <trkpt lat="43.3472" lon="3.59048">
        <ele>38</ele>
        <time>2015-08-06T14:18:00Z</time>
      </trkpt>
      <trkpt lat="43.3476" lon="3.59059">
        <ele>39</ele>
        <time>2015-08-06T14:18:06Z</time>
      </trkpt>
      <trkpt lat="43.34796" lon="3.59033">
        <ele>37</ele>
        <time>2015-08-06T14:18:12Z</time>
      </trkpt>
      <trkpt lat="43.3483" lon="3.59062">
        <ele>37</ele>
        <time>2015-08-06T14:18:17Z</time>
      </trkpt>
      <trkpt lat="43.34867" lon="3.59099">
        <ele>35</ele>
        <time>2015-08-06T14:18:22Z</time>
      </trkpt>
      <trkpt lat="43.34893" lon="3.59137">
        <ele>34</ele>
        <time>2015-08-06T14:18:28Z</time>
      </trkpt>
      <trkpt lat="43.34923" lon="3.59185">
        <ele>35</ele>
        <time>2015-08-06T14:18:34Z</time>
      </trkpt>
      <trkpt lat="43.34947" lon="3.59225">
        <ele>36</ele>
        <time>2015-08-06T14:18:39Z</time>
      </trkpt>
      <trkpt lat="43.34978" lon="3.59257">
        <ele>39</ele>
        <time>2015-08-06T14:18:45Z</time>
      </trkpt>
      <trkpt lat="43.35005" lon="3.59292">
        <ele>37</ele>
        <time>2015-08-06T14:18:50Z</time>
      </trkpt>
      <trkpt lat="43.35035" lon="3.59336">
        <ele>38</ele>
        <time>2015-08-06T14:18:56Z</time>
      </trkpt>
      <trkpt lat="43.35065" lon="3.5936">
        <ele>40</ele>
        <time>2015-08-06T14:19:01Z</time>
      </trkpt>
      <trkpt lat="43.35093" lon="3.59404">
        <ele>39</ele>
        <time>2015-08-06T14:19:06Z</time>
      </trkpt>
      <trkpt lat="43.35118" lon="3.59441">
        <ele>37</ele>
        <time>2015-08-06T14:19:12Z</time>
      </trkpt>
      <trkpt lat="43.35156" lon="3.59477">
        <ele>39</ele>
        <time>2015-08-06T14:19:18Z</time>
      </trkpt>
      <trkpt lat="43.35177" lon="3.59516">
        <ele>37</ele>
        <time>2015-08-06T14:19:23Z</time>
      </trkpt>
      <trkpt lat="43.35204" lon="3.59565">
        <ele>39</ele>
        <time>2015-08-06T14:19:29Z</time>
      </trkpt>
      <trkpt lat="43.35226" lon="3.59602">
        <ele>38</ele>
        <time>2015-08-06T14:19:34Z</time>
      </trkpt>
      <trkpt lat="43.35253" lon="3.59642">
        <ele>36</ele>
        <time>2015-08-06T14:19:40Z</time>
      </trkpt>
      <trkpt lat="43.35282" lon="3.59686">
        <ele>37</ele>
        <time>2015-08-06T14:19:46Z</time>
      </trkpt>
      <trkpt lat="43.35312" lon="3.59735">
        <ele>38</ele>
        <time>2015-08-06T14:19:52Z</time>
      </trkpt>
      <trkpt lat="43.35342" lon="3.59767">
        <ele>36</ele>
        <time>2015-08-06T14:19:58Z</time>
      </trkpt>
      <trkpt lat="43.35378" lon="3.59805">
        <ele>35</ele>
        <time>2015-08-06T14:20:04Z</time>
      </trkpt>
      <trkpt lat="43.35403" lon="3.59846">
        <ele>36</ele>
        <time>2015-08-06T14:20:09Z</time>
      </trkpt>
      <trkpt lat="43.3543" lon="3.59888">
        <ele>35</ele>
        <time>2015-08-06T14:20:15Z</time>
      </trkpt>
      <trkpt lat="43.35454" lon="3.59927">
        <ele>35</ele>
        <time>2015-08-06T14:20:20Z</time>
      </trkpt>
      <trkpt lat="43.35484" lon="3.59974">
        <ele>37</ele>
        <time>2015-08-06T14:20:26Z</time>
      </trkpt>
      <trkpt lat="43.35515" lon="3.59988">
        <ele>35</ele>
        <time>2015-08-06T14:20:31Z</time>
      </trkpt>
      <trkpt lat="43.35546" lon="3.60023">
        <ele>36</ele>
        <time>2015-08-06T14:20:37Z</time>
      </trkpt>
      <trkpt lat="43.35574" lon="3.60066">
        <ele>37</ele>
        <time>2015-08-06T14:20:43Z</time>
      </trkpt>
      <trkpt lat="43.35601" lon="3.60109">
        <ele>38</ele>
        <time>2015-08-06T14:20:49Z</time>
      </trkpt>
      <trkpt lat="43.35636" lon="3.60143">
        <ele>38</ele>
        <time>2015-08-06T14:20:54Z</time>
      </trkpt>
      <trkpt lat="43.3566" lon="3.60179">
        <ele>36</ele>
        <time>2015-08-06T14:21:00Z</time>
      </trkpt>
      <trkpt lat="43.35685" lon="3.60217">
        <ele>37</ele>
        <time>2015-08-06T14:21:05Z</time>
      </trkpt>
      <trkpt lat="43.35713" lon="3.60261">
        <ele>37</ele>
        <time>2015-08-06T14:21:11Z</time>
      </trkpt>
      <trkpt lat="43.35742" lon="3.60305">
        <ele>36</ele>
        <time>2015-08-06T14:21:17Z</time>
      </trkpt>
      <trkpt lat="43.35768" lon="3.60347">
        <ele>38</ele>
        <time>2015-08-06T14:21:23Z</time>
      </trkpt>
      <trkpt lat="43.35801" lon="3.60373">
        <ele>40</ele>
        <time>2015-08-06T14:21:28Z</time>
      </trkpt>
      <trkpt lat="43.35833" lon="3.60396">
        <ele>38</ele>
        <time>2015-08-06T14:21:33Z</time>
      </trkpt>
      <trkpt lat="43.35857" lon="3.60433">
        <ele>36</ele>
        <time>2015-08-06T14:21:39Z</time>
      </trkpt>
      <trkpt lat="43.35888" lon="3.60483">
        <ele>37</ele>
        <time>2015-08-06T14:21:45Z</time>
      </trkpt>
      <trkpt lat="43.3591" lon="3.60523">
        <ele>40</ele>
        <time>2015-08-06T14:21:50Z</time>
      </trkpt>
      <trkpt lat="43.35936" lon="3.60563">
        <ele>44</ele>
        <time>2015-08-06T14:21:56Z</time>
      </trkpt>
      <trkpt lat="43.35956" lon="3.60599">
        <ele>44</ele>
        <time>2015-08-06T14:22:01Z</time>
      </trkpt>
      <trkpt lat="43.35983" lon="3.60646">
        <ele>46</ele>
        <time>2015-08-06T14:22:07Z</time>
      </trkpt>
      <trkpt lat="43.36004" lon="3.60681">
        <ele>45</ele>
        <time>2015-08-06T14:22:12Z</time>
      </trkpt>
      <trkpt lat="43.36032" lon="3.60721">
        <ele>47</ele>
        <time>2015-08-06T14:22:18Z</time>
      </trkpt>
      <trkpt lat="43.36062" lon="3.60708">
        <ele>47</ele>
        <time>2015-08-06T14:22:23Z</time>
      </trkpt>
      <trkpt lat="43.36101" lon="3.60727">
        <ele>48</ele>
        <time>2015-08-06T14:22:29Z</time>
      </trkpt>
      <trkpt lat="43.36125" lon="3.60766">
        <ele>49</ele>
        <time>2015-08-06T14:22:34Z</time>
      </trkpt>
      <trkpt lat="43.36155" lon="3.60812">
        <ele>49</ele>
        <time>2015-08-06T14:22:40Z</time>
      </trkpt>
      <trkpt lat="43.3618" lon="3.60854">
        <ele>46</ele>
        <time>2015-08-06T14:22:45Z</time>
      </trkpt>
      <trkpt lat="43.36209" lon="3.60899">
        <ele>44</ele>
        <time>2015-08-06T14:22:51Z</time>
      </trkpt>
      <trkpt lat="43.3624" lon="3.60945">
        <ele>43</ele>
        <time>2015-08-06T14:22:57Z</time>
      </trkpt>
      <trkpt lat="43.36264" lon="3.60988">
        <ele>44</ele>
        <time>2015-08-06T14:23:03Z</time>
      </trkpt>
      <trkpt lat="43.36289" lon="3.61031">
        <ele>46</ele>
        <time>2015-08-06T14:23:09Z</time>
      </trkpt>
      <trkpt lat="43.3631" lon="3.61068">
        <ele>45</ele>
        <time>2015-08-06T14:23:14Z</time>
      </trkpt>
      <trkpt lat="43.36334" lon="3.61111">
        <ele>44</ele>
        <time>2015-08-06T14:23:20Z</time>
      </trkpt>
      <trkpt lat="43.36354" lon="3.61144">
        <ele>45</ele>
        <time>2015-08-06T14:23:25Z</time>
      </trkpt>
      <trkpt lat="43.36377" lon="3.6118">
        <ele>46</ele>
        <time>2015-08-06T14:23:30Z</time>
      </trkpt>
      <trkpt lat="43.36405" lon="3.61222">
        <ele>44</ele>
        <time>2015-08-06T14:23:35Z</time>
      </trkpt>
      <trkpt lat="43.36426" lon="3.61254">
        <ele>47</ele>
        <time>2015-08-06T14:23:40Z</time>
      </trkpt>
      <trkpt lat="43.3645" lon="3.61292">
        <ele>47</ele>
        <time>2015-08-06T14:23:46Z</time>
      </trkpt>
      <trkpt lat="43.3647" lon="3.61327">
        <ele>47</ele>
        <time>2015-08-06T14:23:51Z</time>
      </trkpt>
      <trkpt lat="43.36493" lon="3.61363">
        <ele>48</ele>
        <time>2015-08-06T14:23:56Z</time>
      </trkpt>
      <trkpt lat="43.36517" lon="3.61408">
        <ele>50</ele>
        <time>2015-08-06T14:24:02Z</time>
      </trkpt>
      <trkpt lat="43.36542" lon="3.61453">
        <ele>50</ele>
        <time>2015-08-06T14:24:08Z</time>
      </trkpt>
      <trkpt lat="43.36571" lon="3.61494">
        <ele>49</ele>
        <time>2015-08-06T14:24:14Z</time>
      </trkpt>
      <trkpt lat="43.36596" lon="3.61537">
        <ele>49</ele>
        <time>2015-08-06T14:24:19Z</time>
      </trkpt>
      <trkpt lat="43.36617" lon="3.61574">
        <ele>50</ele>
        <time>2015-08-06T14:24:25Z</time>
      </trkpt>
      <trkpt lat="43.36649" lon="3.61615">
        <ele>51</ele>
        <time>2015-08-06T14:24:31Z</time>
      </trkpt>
      <trkpt lat="43.36678" lon="3.61654">
        <ele>53</ele>
        <time>2015-08-06T14:24:37Z</time>
      </trkpt>
      <trkpt lat="43.36707" lon="3.61693">
        <ele>54</ele>
        <time>2015-08-06T14:24:43Z</time>
      </trkpt>
      <trkpt lat="43.36738" lon="3.61734">
        <ele>54</ele>
        <time>2015-08-06T14:24:48Z</time>
      </trkpt>
      <trkpt lat="43.36761" lon="3.61767">
        <ele>55</ele>
        <time>2015-08-06T14:24:54Z</time>
      </trkpt>
      <trkpt lat="43.36792" lon="3.61811">
        <ele>53</ele>
        <time>2015-08-06T14:25:00Z</time>
      </trkpt>
      <trkpt lat="43.36826" lon="3.61857">
        <ele>49</ele>
        <time>2015-08-06T14:25:06Z</time>
      </trkpt>
      <trkpt lat="43.36862" lon="3.61892">
        <ele>48</ele>
        <time>2015-08-06T14:25:12Z</time>
      </trkpt>
      <trkpt lat="43.36887" lon="3.61931">
        <ele>51</ele>
        <time>2015-08-06T14:25:18Z</time>
      </trkpt>
      <trkpt lat="43.36913" lon="3.61967">
        <ele>47</ele>
        <time>2015-08-06T14:25:23Z</time>
      </trkpt>
      <trkpt lat="43.3694" lon="3.6201">
        <ele>49</ele>
        <time>2015-08-06T14:25:28Z</time>
      </trkpt>
      <trkpt lat="43.36961" lon="3.62043">
        <ele>51</ele>
        <time>2015-08-06T14:25:34Z</time>
      </trkpt>
      <trkpt lat="43.36995" lon="3.62086">
        <ele>49</ele>
        <time>2015-08-06T14:25:40Z</time>
      </trkpt>
      <trkpt lat="43.37018" lon="3.6212">
        <ele>49</ele>
        <time>2015-08-06T14:25:45Z</time>
      </trkpt>
      <trkpt lat="43.37047" lon="3.62161">
        <ele>50</ele>
        <time>2015-08-06T14:25:51Z</time>
      </trkpt>
      <trkpt lat="43.3707" lon="3.62195">
        <ele>52</ele>
        <time>2015-08-06T14:25:56Z</time>
      </trkpt>
      <trkpt lat="43.37098" lon="3.62237">
        <ele>51</ele>
        <time>2015-08-06T14:26:01Z</time>
      </trkpt>
      <trkpt lat="43.37124" lon="3.6227">
        <ele>51</ele>
        <time>2015-08-06T14:26:07Z</time>
      </trkpt>
      <trkpt lat="43.37152" lon="3.62312">
        <ele>51</ele>
        <time>2015-08-06T14:26:13Z</time>
      </trkpt>
      <trkpt lat="43.37176" lon="3.6235">
        <ele>50</ele>
        <time>2015-08-06T14:26:18Z</time>
      </trkpt>
      <trkpt lat="43.37207" lon="3.62391">
        <ele>48</ele>
        <time>2015-08-06T14:26:24Z</time>
      </trkpt>
      <trkpt lat="43.37231" lon="3.62425">
        <ele>48</ele>
        <time>2015-08-06T14:26:29Z</time>
      </trkpt>
      <trkpt lat="43.37261" lon="3.62467">
        <ele>45</ele>
        <time>2015-08-06T14:26:35Z</time>
      </trkpt>
      <trkpt lat="43.37283" lon="3.62503">
        <ele>47</ele>
        <time>2015-08-06T14:26:40Z</time>
      </trkpt>
      <trkpt lat="43.3731" lon="3.62545">
        <ele>46</ele>
        <time>2015-08-06T14:26:46Z</time>
      </trkpt>
      <trkpt lat="43.37334" lon="3.62578">
        <ele>47</ele>
        <time>2015-08-06T14:26:51Z</time>
      </trkpt>
      <trkpt lat="43.37364" lon="3.62618">
        <ele>48</ele>
        <time>2015-08-06T14:26:57Z</time>
      </trkpt>
      <trkpt lat="43.37385" lon="3.62655">
        <ele>46</ele>
        <time>2015-08-06T14:27:02Z</time>
      </trkpt>
      <trkpt lat="43.37415" lon="3.62699">
        <ele>43</ele>
        <time>2015-08-06T14:27:08Z</time>
      </trkpt>
      <trkpt lat="43.37442" lon="3.62735">
        <ele>44</ele>
        <time>2015-08-06T14:27:13Z</time>
      </trkpt>
      <trkpt lat="43.37469" lon="3.62776">
        <ele>46</ele>
        <time>2015-08-06T14:27:19Z</time>
      </trkpt>
      <trkpt lat="43.37494" lon="3.62808">
        <ele>46</ele>
        <time>2015-08-06T14:27:24Z</time>
      </trkpt>
      <trkpt lat="43.37524" lon="3.62847">
        <ele>48</ele>
        <time>2015-08-06T14:27:30Z</time>
      </trkpt>
      <trkpt lat="43.37551" lon="3.62885">
        <ele>48</ele>
        <time>2015-08-06T14:27:36Z</time>
      </trkpt>
      <trkpt lat="43.37578" lon="3.62926">
        <ele>50</ele>
        <time>2015-08-06T14:27:42Z</time>
      </trkpt>
      <trkpt lat="43.37599" lon="3.62962">
        <ele>51</ele>
        <time>2015-08-06T14:27:47Z</time>
      </trkpt>
      <trkpt lat="43.37625" lon="3.63005">
        <ele>51</ele>
        <time>2015-08-06T14:27:53Z</time>
      </trkpt>
      <trkpt lat="43.37649" lon="3.6304">
        <ele>51</ele>
        <time>2015-08-06T14:27:58Z</time>
      </trkpt>
      <trkpt lat="43.37673" lon="3.6308">
        <ele>54</ele>
        <time>2015-08-06T14:28:04Z</time>
      </trkpt>
      <trkpt lat="43.37698" lon="3.63117">
        <ele>52</ele>
        <time>2015-08-06T14:28:09Z</time>
      </trkpt>
      <trkpt lat="43.37726" lon="3.63157">
        <ele>52</ele>
        <time>2015-08-06T14:28:15Z</time>
      </trkpt>
      <trkpt lat="43.37751" lon="3.63203">
        <ele>51</ele>
        <time>2015-08-06T14:28:21Z</time>
      </trkpt>
      <trkpt lat="43.37779" lon="3.63247">
        <ele>49</ele>
        <time>2015-08-06T14:28:27Z</time>
      </trkpt>
      <trkpt lat="43.37808" lon="3.63287">
        <ele>50</ele>
        <time>2015-08-06T14:28:33Z</time>
      </trkpt>
      <trkpt lat="43.37835" lon="3.6333">
        <ele>49</ele>
        <time>2015-08-06T14:28:39Z</time>
      </trkpt>
      <trkpt lat="43.37865" lon="3.63372">
        <ele>50</ele>
        <time>2015-08-06T14:28:45Z</time>
      </trkpt>
      <trkpt lat="43.37891" lon="3.63414">
        <ele>50</ele>
        <time>2015-08-06T14:28:51Z</time>
      </trkpt>
      <trkpt lat="43.37911" lon="3.63449">
        <ele>52</ele>
        <time>2015-08-06T14:28:56Z</time>
      </trkpt>
      <trkpt lat="43.37937" lon="3.63492">
        <ele>54</ele>
        <time>2015-08-06T14:29:02Z</time>
      </trkpt>
      <trkpt lat="43.37965" lon="3.63533">
        <ele>54</ele>
        <time>2015-08-06T14:29:08Z</time>
      </trkpt>
      <trkpt lat="43.37986" lon="3.63567">
        <ele>53</ele>
        <time>2015-08-06T14:29:13Z</time>
      </trkpt>
      <trkpt lat="43.38012" lon="3.63609">
        <ele>49</ele>
        <time>2015-08-06T14:29:18Z</time>
      </trkpt>
      <trkpt lat="43.38037" lon="3.63652">
        <ele>49</ele>
        <time>2015-08-06T14:29:24Z</time>
      </trkpt>
      <trkpt lat="43.38059" lon="3.63688">
        <ele>49</ele>
        <time>2015-08-06T14:29:29Z</time>
      </trkpt>
      <trkpt lat="43.38086" lon="3.63731">
        <ele>51</ele>
        <time>2015-08-06T14:29:34Z</time>
      </trkpt>
      <trkpt lat="43.38109" lon="3.63767">
        <ele>47</ele>
        <time>2015-08-06T14:29:40Z</time>
      </trkpt>
      <trkpt lat="43.38136" lon="3.63812">
        <ele>46</ele>
        <time>2015-08-06T14:29:46Z</time>
      </trkpt>
      <trkpt lat="43.38159" lon="3.63849">
        <ele>46</ele>
        <time>2015-08-06T14:29:51Z</time>
      </trkpt>
      <trkpt lat="43.38183" lon="3.63892">
        <ele>49</ele>
        <time>2015-08-06T14:29:57Z</time>
      </trkpt>
      <trkpt lat="43.38211" lon="3.63933">
        <ele>50</ele>
        <time>2015-08-06T14:30:03Z</time>
      </trkpt>
      <trkpt lat="43.38242" lon="3.63976">
        <ele>44</ele>
        <time>2015-08-06T14:30:09Z</time>
      </trkpt>
      <trkpt lat="43.38263" lon="3.6401">
        <ele>47</ele>
        <time>2015-08-06T14:30:14Z</time>
      </trkpt>
      <trkpt lat="43.38288" lon="3.64055">
        <ele>47</ele>
        <time>2015-08-06T14:30:20Z</time>
      </trkpt>
      <trkpt lat="43.38314" lon="3.64096">
        <ele>48</ele>
        <time>2015-08-06T14:30:26Z</time>
      </trkpt>
      <trkpt lat="43.38339" lon="3.64141">
        <ele>49</ele>
        <time>2015-08-06T14:30:32Z</time>
      </trkpt>
      <trkpt lat="43.38365" lon="3.64183">
        <ele>48</ele>
        <time>2015-08-06T14:30:38Z</time>
      </trkpt>
      <trkpt lat="43.38392" lon="3.64223">
        <ele>44</ele>
        <time>2015-08-06T14:30:43Z</time>
      </trkpt>
      <trkpt lat="43.38419" lon="3.64264">
        <ele>44</ele>
        <time>2015-08-06T14:30:49Z</time>
      </trkpt>
      <trkpt lat="43.38437" lon="3.64297">
        <ele>47</ele>
        <time>2015-08-06T14:30:54Z</time>
      </trkpt>
      <trkpt lat="43.38469" lon="3.64341">
        <ele>40</ele>
        <time>2015-08-06T14:31:00Z</time>
      </trkpt>
      <trkpt lat="43.38495" lon="3.64382">
        <ele>43</ele>
        <time>2015-08-06T14:31:06Z</time>
      </trkpt>
      <trkpt lat="43.38516" lon="3.64418">
        <ele>44</ele>
        <time>2015-08-06T14:31:11Z</time>
      </trkpt>
      <trkpt lat="43.3854" lon="3.64456">
        <ele>46</ele>
        <time>2015-08-06T14:31:17Z</time>
      </trkpt>
      <trkpt lat="43.38564" lon="3.64496">
        <ele>48</ele>
        <time>2015-08-06T14:31:23Z</time>
      </trkpt>
      <trkpt lat="43.38586" lon="3.64539">
        <ele>46</ele>
        <time>2015-08-06T14:31:29Z</time>
      </trkpt>
      <trkpt lat="43.38615" lon="3.64584">
        <ele>46</ele>
        <time>2015-08-06T14:31:35Z</time>
      </trkpt>
      <trkpt lat="43.38641" lon="3.64623">
        <ele>42</ele>
        <time>2015-08-06T14:31:40Z</time>
      </trkpt>
      <trkpt lat="43.3867" lon="3.64665">
        <ele>44</ele>
        <time>2015-08-06T14:31:46Z</time>
      </trkpt>
      <trkpt lat="43.38697" lon="3.64707">
        <ele>44</ele>
        <time>2015-08-06T14:31:52Z</time>
      </trkpt>
      <trkpt lat="43.38723" lon="3.64744">
        <ele>48</ele>
        <time>2015-08-06T14:31:58Z</time>
      </trkpt>
      <trkpt lat="43.38751" lon="3.64783">
        <ele>49</ele>
        <time>2015-08-06T14:32:04Z</time>
      </trkpt>
      <trkpt lat="43.38776" lon="3.64813">
        <ele>48</ele>
        <time>2015-08-06T14:32:09Z</time>
      </trkpt>
      <trkpt lat="43.38803" lon="3.64857">
        <ele>47</ele>
        <time>2015-08-06T14:32:15Z</time>
      </trkpt>
      <trkpt lat="43.38827" lon="3.649">
        <ele>49</ele>
        <time>2015-08-06T14:32:21Z</time>
      </trkpt>
      <trkpt lat="43.38848" lon="3.64936">
        <ele>49</ele>
        <time>2015-08-06T14:32:26Z</time>
      </trkpt>
      <trkpt lat="43.38868" lon="3.64975">
        <ele>47</ele>
        <time>2015-08-06T14:32:31Z</time>
      </trkpt>
      <trkpt lat="43.38892" lon="3.65021">
        <ele>47</ele>
        <time>2015-08-06T14:32:37Z</time>
      </trkpt>
      <trkpt lat="43.38917" lon="3.65065">
        <ele>48</ele>
        <time>2015-08-06T14:32:43Z</time>
      </trkpt>
      <trkpt lat="43.38942" lon="3.65109">
        <ele>45</ele>
        <time>2015-08-06T14:32:48Z</time>
      </trkpt>
      <trkpt lat="43.38963" lon="3.65146">
        <ele>43</ele>
        <time>2015-08-06T14:32:54Z</time>
      </trkpt>
      <trkpt lat="43.38985" lon="3.65185">
        <ele>45</ele>
        <time>2015-08-06T14:33:00Z</time>
      </trkpt>
      <trkpt lat="43.38999" lon="3.65216">
        <ele>48</ele>
        <time>2015-08-06T14:33:05Z</time>
      </trkpt>
      <trkpt lat="43.39014" lon="3.6525">
        <ele>49</ele>
        <time>2015-08-06T14:33:11Z</time>
      </trkpt>
      <trkpt lat="43.39027" lon="3.65286">
        <ele>50</ele>
        <time>2015-08-06T14:33:16Z</time>
      </trkpt>
      <trkpt lat="43.39046" lon="3.65328">
        <ele>49</ele>
        <time>2015-08-06T14:33:22Z</time>
      </trkpt>
      <trkpt lat="43.39065" lon="3.65371">
        <ele>47</ele>
        <time>2015-08-06T14:33:28Z</time>
      </trkpt>
      <trkpt lat="43.39079" lon="3.65409">
        <ele>48</ele>
        <time>2015-08-06T14:33:33Z</time>
      </trkpt>
      <trkpt lat="43.39099" lon="3.65449">
        <ele>48</ele>
        <time>2015-08-06T14:33:39Z</time>
      </trkpt>
      <trkpt lat="43.39111" lon="3.65488">
        <ele>48</ele>
        <time>2015-08-06T14:33:44Z</time>
      </trkpt>
      <trkpt lat="43.39129" lon="3.65533">
        <ele>47</ele>
        <time>2015-08-06T14:33:50Z</time>
      </trkpt>
      <trkpt lat="43.39147" lon="3.6558">
        <ele>47</ele>
        <time>2015-08-06T14:33:56Z</time>
      </trkpt>
      <trkpt lat="43.39165" lon="3.65626">
        <ele>45</ele>
        <time>2015-08-06T14:34:02Z</time>
      </trkpt>
      <trkpt lat="43.39181" lon="3.65665">
        <ele>45</ele>
        <time>2015-08-06T14:34:07Z</time>
      </trkpt>
      <trkpt lat="43.39195" lon="3.65704">
        <ele>45</ele>
        <time>2015-08-06T14:34:12Z</time>
      </trkpt>
      <trkpt lat="43.39212" lon="3.65751">
        <ele>45</ele>
        <time>2015-08-06T14:34:17Z</time>
      </trkpt>
      <trkpt lat="43.3923" lon="3.65791">
        <ele>45</ele>
        <time>2015-08-06T14:34:23Z</time>
      </trkpt>
      <trkpt lat="43.39252" lon="3.65836">
        <ele>41</ele>
        <time>2015-08-06T14:34:29Z</time>
      </trkpt>
      <trkpt lat="43.39268" lon="3.65872">
        <ele>42</ele>
        <time>2015-08-06T14:34:34Z</time>
      </trkpt>
      <trkpt lat="43.39283" lon="3.65916">
        <ele>43</ele>
        <time>2015-08-06T14:34:40Z</time>
      </trkpt>
      <trkpt lat="43.39296" lon="3.65948">
        <ele>41</ele>
        <time>2015-08-06T14:34:45Z</time>
      </trkpt>
      <trkpt lat="43.39311" lon="3.65989">
        <ele>45</ele>
        <time>2015-08-06T14:34:51Z</time>
      </trkpt>
      <trkpt lat="43.3932" lon="3.66025">
        <ele>46</ele>
        <time>2015-08-06T14:34:57Z</time>
      </trkpt>
      <trkpt lat="43.39331" lon="3.66053">
        <ele>46</ele>
        <time>2015-08-06T14:35:03Z</time>
      </trkpt>
      <trkpt lat="43.39333" lon="3.66085">
        <ele>47</ele>
        <time>2015-08-06T14:35:09Z</time>
      </trkpt>
      <trkpt lat="43.39336" lon="3.66115">
        <ele>45</ele>
        <time>2015-08-06T14:35:14Z</time>
      </trkpt>
      <trkpt lat="43.39335" lon="3.66148">
        <ele>45</ele>
        <time>2015-08-06T14:35:20Z</time>
      </trkpt>
      <trkpt lat="43.39317" lon="3.66178">
        <ele>46</ele>
        <time>2015-08-06T14:35:26Z</time>
      </trkpt>
      <trkpt lat="43.39311" lon="3.66209">
        <ele>47</ele>
        <time>2015-08-06T14:35:31Z</time>
      </trkpt>
      <trkpt lat="43.39325" lon="3.66238">
        <ele>47</ele>
        <time>2015-08-06T14:35:37Z</time>
      </trkpt>
      <trkpt lat="43.39339" lon="3.66281">
        <ele>47</ele>
        <time>2015-08-06T14:35:43Z</time>
      </trkpt>
      <trkpt lat="43.39355" lon="3.66323">
        <ele>47</ele>
        <time>2015-08-06T14:35:48Z</time>
      </trkpt>
      <trkpt lat="43.39365" lon="3.6636">
        <ele>45</ele>
        <time>2015-08-06T14:35:54Z</time>
      </trkpt>
      <trkpt lat="43.39374" lon="3.66411">
        <ele>47</ele>
        <time>2015-08-06T14:36:00Z</time>
      </trkpt>
      <trkpt lat="43.3938" lon="3.6646">
        <ele>47</ele>
        <time>2015-08-06T14:36:06Z</time>
      </trkpt>
      <trkpt lat="43.39384" lon="3.665">
        <ele>46</ele>
        <time>2015-08-06T14:36:12Z</time>
      </trkpt>
      <trkpt lat="43.39386" lon="3.66515">
        <ele>48</ele>
        <time>2015-08-06T14:36:17Z</time>
      </trkpt>
      <trkpt lat="43.39393" lon="3.66546">
        <ele>45</ele>
        <time>2015-08-06T14:36:23Z</time>
      </trkpt>
      <trkpt lat="43.39396" lon="3.66577">
        <ele>47</ele>
        <time>2015-08-06T14:36:28Z</time>
      </trkpt>
      <trkpt lat="43.39399" lon="3.66613">
        <ele>46</ele>
        <time>2015-08-06T14:36:33Z</time>
      </trkpt>
      <trkpt lat="43.39402" lon="3.66647">
        <ele>47</ele>
        <time>2015-08-06T14:36:39Z</time>
      </trkpt>
      <trkpt lat="43.39407" lon="3.66694">
        <ele>50</ele>
        <time>2015-08-06T14:36:45Z</time>
      </trkpt>
      <trkpt lat="43.39414" lon="3.66744">
        <ele>51</ele>
        <time>2015-08-06T14:36:51Z</time>
      </trkpt>
      <trkpt lat="43.39421" lon="3.66788">
        <ele>52</ele>
        <time>2015-08-06T14:36:56Z</time>
      </trkpt>
      <trkpt lat="43.39422" lon="3.66826">
        <ele>53</ele>
        <time>2015-08-06T14:37:02Z</time>
      </trkpt>
      <trkpt lat="43.39425" lon="3.6687">
        <ele>53</ele>
        <time>2015-08-06T14:37:08Z</time>
      </trkpt>
      <trkpt lat="43.39429" lon="3.66916">
        <ele>52</ele>
        <time>2015-08-06T14:37:14Z</time>
      </trkpt>
      <trkpt lat="43.39427" lon="3.66968">
        <ele>52</ele>
        <time>2015-08-06T14:37:20Z</time>
      </trkpt>
      <trkpt lat="43.39416" lon="3.67028">
        <ele>53</ele>
        <time>2015-08-06T14:37:26Z</time>
      </trkpt>
      <trkpt lat="43.39405" lon="3.67075">
        <ele>53</ele>
        <time>2015-08-06T14:37:31Z</time>
      </trkpt>
      <trkpt lat="43.3939" lon="3.67122">
        <ele>55</ele>
        <time>2015-08-06T14:37:36Z</time>
      </trkpt>
      <trkpt lat="43.39378" lon="3.67166">
        <ele>54</ele>
        <time>2015-08-06T14:37:42Z</time>
      </trkpt>
      <trkpt lat="43.39354" lon="3.6721">
        <ele>55</ele>
        <time>2015-08-06T14:37:48Z</time>
      </trkpt>
      <trkpt lat="43.39335" lon="3.67247">
        <ele>55</ele>
        <time>2015-08-06T14:37:53Z</time>
      </trkpt>
      <trkpt lat="43.39313" lon="3.6729">
        <ele>56</ele>
        <time>2015-08-06T14:37:59Z</time>
      </trkpt>
      <trkpt lat="43.39295" lon="3.67324">
        <ele>56</ele>
        <time>2015-08-06T14:38:04Z</time>
      </trkpt>
      <trkpt lat="43.39273" lon="3.67367">
        <ele>56</ele>
        <time>2015-08-06T14:38:09Z</time>
      </trkpt>
      <trkpt lat="43.39265" lon="3.67407">
        <ele>57</ele>
        <time>2015-08-06T14:38:15Z</time>
      </trkpt>
      <trkpt lat="43.39264" lon="3.67439">
        <ele>56</ele>
        <time>2015-08-06T14:38:20Z</time>
      </trkpt>
      <trkpt lat="43.39268" lon="3.67471">
        <ele>58</ele>
        <time>2015-08-06T14:38:25Z</time>
      </trkpt>
      <trkpt lat="43.39273" lon="3.67497">
        <ele>56</ele>
        <time>2015-08-06T14:38:30Z</time>
      </trkpt>
      <trkpt lat="43.39282" lon="3.67523">
        <ele>56</ele>
        <time>2015-08-06T14:38:36Z</time>
      </trkpt>
      <trkpt lat="43.39303" lon="3.67551">
        <ele>58</ele>
        <time>2015-08-06T14:38:41Z</time>
      </trkpt>
      <trkpt lat="43.3932" lon="3.67577">
        <ele>59</ele>
        <time>2015-08-06T14:38:46Z</time>
      </trkpt>
      <trkpt lat="43.39337" lon="3.676">
        <ele>65</ele>
        <time>2015-08-06T14:38:52Z</time>
      </trkpt>
      <trkpt lat="43.39359" lon="3.67625">
        <ele>68</ele>
        <time>2015-08-06T14:38:58Z</time>
      </trkpt>
      <trkpt lat="43.39379" lon="3.67651">
        <ele>70</ele>
        <time>2015-08-06T14:39:03Z</time>
      </trkpt>
      <trkpt lat="43.39395" lon="3.67675">
        <ele>72</ele>
        <time>2015-08-06T14:39:09Z</time>
      </trkpt>
      <trkpt lat="43.39421" lon="3.67695">
        <ele>71</ele>
        <time>2015-08-06T14:39:15Z</time>
      </trkpt>
      <trkpt lat="43.39427" lon="3.67724">
        <ele>75</ele>
        <time>2015-08-06T14:39:20Z</time>
      </trkpt>
      <trkpt lat="43.39428" lon="3.67758">
        <ele>75</ele>
        <time>2015-08-06T14:39:26Z</time>
      </trkpt>
      <trkpt lat="43.39421" lon="3.67792">
        <ele>71</ele>
        <time>2015-08-06T14:39:31Z</time>
      </trkpt>
      <trkpt lat="43.39415" lon="3.67829">
        <ele>68</ele>
        <time>2015-08-06T14:39:36Z</time>
      </trkpt>
      <trkpt lat="43.39403" lon="3.67871">
        <ele>66</ele>
        <time>2015-08-06T14:39:41Z</time>
      </trkpt>
      <trkpt lat="43.39395" lon="3.67909">
        <ele>64</ele>
        <time>2015-08-06T14:39:47Z</time>
      </trkpt>
      <trkpt lat="43.39386" lon="3.67952">
        <ele>64</ele>
        <time>2015-08-06T14:39:53Z</time>
      </trkpt>
      <trkpt lat="43.39373" lon="3.67984">
        <ele>68</ele>
        <time>2015-08-06T14:39:59Z</time>
      </trkpt>
      <trkpt lat="43.39372" lon="3.68028">
        <ele>70</ele>
        <time>2015-08-06T14:40:05Z</time>
      </trkpt>
      <trkpt lat="43.39375" lon="3.68069">
        <ele>66</ele>
        <time>2015-08-06T14:40:10Z</time>
      </trkpt>
      <trkpt lat="43.39379" lon="3.68119">
        <ele>67</ele>
        <time>2015-08-06T14:40:16Z</time>
      </trkpt>
      <trkpt lat="43.39381" lon="3.68172">
        <ele>66</ele>
        <time>2015-08-06T14:40:21Z</time>
      </trkpt>
      <trkpt lat="43.39384" lon="3.68226">
        <ele>66</ele>
        <time>2015-08-06T14:40:28Z</time>
      </trkpt>
      <trkpt lat="43.39382" lon="3.68285">
        <ele>66</ele>
        <time>2015-08-06T14:40:34Z</time>
      </trkpt>
      <trkpt lat="43.39366" lon="3.68342">
        <ele>62</ele>
        <time>2015-08-06T14:40:40Z</time>
      </trkpt>
      <trkpt lat="43.3934" lon="3.68391">
        <ele>61</ele>
        <time>2015-08-06T14:40:45Z</time>
      </trkpt>
      <trkpt lat="43.3932" lon="3.68435">
        <ele>59</ele>
        <time>2015-08-06T14:40:50Z</time>
      </trkpt>
      <trkpt lat="43.39306" lon="3.68474">
        <ele>61</ele>
        <time>2015-08-06T14:40:56Z</time>
      </trkpt>
      <trkpt lat="43.3929" lon="3.68522">
        <ele>62</ele>
        <time>2015-08-06T14:41:01Z</time>
      </trkpt>
      <trkpt lat="43.39278" lon="3.68563">
        <ele>62</ele>
        <time>2015-08-06T14:41:07Z</time>
      </trkpt>
      <trkpt lat="43.39264" lon="3.68614">
        <ele>62</ele>
        <time>2015-08-06T14:41:12Z</time>
      </trkpt>
      <trkpt lat="43.39263" lon="3.68669">
        <ele>61</ele>
        <time>2015-08-06T14:41:19Z</time>
      </trkpt>
      <trkpt lat="43.39262" lon="3.68726">
        <ele>60</ele>
        <time>2015-08-06T14:41:24Z</time>
      </trkpt>
      <trkpt lat="43.39257" lon="3.68787">
        <ele>58</ele>
        <time>2015-08-06T14:41:31Z</time>
      </trkpt>
      <trkpt lat="43.3925" lon="3.68847">
        <ele>58</ele>
        <time>2015-08-06T14:41:36Z</time>
      </trkpt>
      <trkpt lat="43.39249" lon="3.68898">
        <ele>57</ele>
        <time>2015-08-06T14:41:41Z</time>
      </trkpt>
      <trkpt lat="43.39246" lon="3.68958">
        <ele>57</ele>
        <time>2015-08-06T14:41:47Z</time>
      </trkpt>
      <trkpt lat="43.39244" lon="3.69015">
        <ele>57</ele>
        <time>2015-08-06T14:41:53Z</time>
      </trkpt>
      <trkpt lat="43.39251" lon="3.69061">
        <ele>56</ele>
        <time>2015-08-06T14:41:58Z</time>
      </trkpt>
      <trkpt lat="43.39265" lon="3.69105">
        <ele>56</ele>
        <time>2015-08-06T14:42:03Z</time>
      </trkpt>
      <trkpt lat="43.39293" lon="3.69152">
        <ele>55</ele>
        <time>2015-08-06T14:42:09Z</time>
      </trkpt>
      <trkpt lat="43.3932" lon="3.6919">
        <ele>52</ele>
        <time>2015-08-06T14:42:14Z</time>
      </trkpt>
      <trkpt lat="43.39346" lon="3.69214">
        <ele>54</ele>
        <time>2015-08-06T14:42:19Z</time>
      </trkpt>
      <trkpt lat="43.39379" lon="3.69236">
        <ele>52</ele>
        <time>2015-08-06T14:42:25Z</time>
      </trkpt>
      <trkpt lat="43.3941" lon="3.69244">
        <ele>53</ele>
        <time>2015-08-06T14:42:31Z</time>
      </trkpt>
      <trkpt lat="43.39423" lon="3.69232">
        <ele>61</ele>
        <time>2015-08-06T14:42:36Z</time>
      </trkpt>
      <trkpt lat="43.39446" lon="3.6932">
        <ele>58</ele>
        <time>2015-08-06T14:42:42Z</time>
      </trkpt>
      <trkpt lat="43.39463" lon="3.69374">
        <ele>60</ele>
        <time>2015-08-06T14:42:48Z</time>
      </trkpt>
      <trkpt lat="43.39479" lon="3.69423">
        <ele>59</ele>
        <time>2015-08-06T14:42:54Z</time>
      </trkpt>
      <trkpt lat="43.3949" lon="3.69458">
        <ele>60</ele>
        <time>2015-08-06T14:42:59Z</time>
      </trkpt>
      <trkpt lat="43.39501" lon="3.69494">
        <ele>58</ele>
        <time>2015-08-06T14:43:04Z</time>
      </trkpt>
      <trkpt lat="43.39509" lon="3.6952">
        <ele>58</ele>
        <time>2015-08-06T14:43:09Z</time>
      </trkpt>
      <trkpt lat="43.39527" lon="3.69509">
        <ele>61</ele>
        <time>2015-08-06T14:43:15Z</time>
      </trkpt>
      <trkpt lat="43.3955" lon="3.6951">
        <ele>58</ele>
        <time>2015-08-06T14:43:20Z</time>
      </trkpt>
      <trkpt lat="43.39574" lon="3.69514">
        <ele>56</ele>
        <time>2015-08-06T14:43:25Z</time>
      </trkpt>
      <trkpt lat="43.39589" lon="3.69527">
        <ele>55</ele>
        <time>2015-08-06T14:43:31Z</time>
      </trkpt>
      <trkpt lat="43.39609" lon="3.69546">
        <ele>55</ele>
        <time>2015-08-06T14:43:36Z</time>
      </trkpt>
      <trkpt lat="43.39634" lon="3.69558">
        <ele>55</ele>
        <time>2015-08-06T14:43:42Z</time>
      </trkpt>
      <trkpt lat="43.39665" lon="3.69572">
        <ele>50</ele>
        <time>2015-08-06T14:43:48Z</time>
      </trkpt>
      <trkpt lat="43.39691" lon="3.69582">
        <ele>50</ele>
        <time>2015-08-06T14:43:54Z</time>
      </trkpt>
      <trkpt lat="43.39721" lon="3.6959">
        <ele>47</ele>
        <time>2015-08-06T14:44:00Z</time>
      </trkpt>
      <trkpt lat="43.39745" lon="3.696">
        <ele>44</ele>
        <time>2015-08-06T14:44:05Z</time>
      </trkpt>
      <trkpt lat="43.3978" lon="3.69613">
        <ele>41</ele>
        <time>2015-08-06T14:44:12Z</time>
      </trkpt>
      <trkpt lat="43.39807" lon="3.69627">
        <ele>41</ele>
        <time>2015-08-06T14:44:17Z</time>
      </trkpt>
      <trkpt lat="43.39821" lon="3.6963">
        <ele>46</ele>
        <time>2015-08-06T14:44:22Z</time>
      </trkpt>
      <trkpt lat="43.39828" lon="3.69632">
        <ele>50</ele>
        <time>2015-08-06T14:44:28Z</time>
      </trkpt>
      <trkpt lat="43.39835" lon="3.69633">
        <ele>52</ele>
        <time>2015-08-06T14:44:33Z</time>
      </trkpt>
      <trkpt lat="43.3984" lon="3.69633">
        <ele>52</ele>
        <time>2015-08-06T14:44:39Z</time>
      </trkpt>
      <trkpt lat="43.39853" lon="3.69627">
        <ele>57</ele>
        <time>2015-08-06T14:44:45Z</time>
      </trkpt>
      <trkpt lat="43.39886" lon="3.6962">
        <ele>53</ele>
        <time>2015-08-06T14:44:51Z</time>
      </trkpt>
      <trkpt lat="43.39905" lon="3.69622">
        <ele>54</ele>
        <time>2015-08-06T14:44:56Z</time>
      </trkpt>
      <trkpt lat="43.39914" lon="3.69622">
        <ele>55</ele>
        <time>2015-08-06T14:45:02Z</time>
      </trkpt>
      <trkpt lat="43.39928" lon="3.69625">
        <ele>52</ele>
        <time>2015-08-06T14:45:07Z</time>
      </trkpt>
      <trkpt lat="43.39947" lon="3.6964">
        <ele>58</ele>
        <time>2015-08-06T14:45:13Z</time>
      </trkpt>
      <trkpt lat="43.39966" lon="3.69663">
        <ele>55</ele>
        <time>2015-08-06T14:45:19Z</time>
      </trkpt>
      <trkpt lat="43.39974" lon="3.69665">
        <ele>53</ele>
        <time>2015-08-06T14:45:25Z</time>
      </trkpt>
      <trkpt lat="43.39991" lon="3.69665">
        <ele>51</ele>
        <time>2015-08-06T14:45:30Z</time>
      </trkpt>
      <trkpt lat="43.40021" lon="3.69672">
        <ele>48</ele>
        <time>2015-08-06T14:45:36Z</time>
      </trkpt>
      <trkpt lat="43.40042" lon="3.69678">
        <ele>46</ele>
        <time>2015-08-06T14:45:42Z</time>
      </trkpt>
      <trkpt lat="43.40062" lon="3.69683">
        <ele>46</ele>
        <time>2015-08-06T14:45:47Z</time>
      </trkpt>
      <trkpt lat="43.40084" lon="3.69689">
        <ele>45</ele>
        <time>2015-08-06T14:45:52Z</time>
      </trkpt>
      <trkpt lat="43.40108" lon="3.69694">
        <ele>41</ele>
        <time>2015-08-06T14:45:58Z</time>
      </trkpt>
      <trkpt lat="43.40123" lon="3.69701">
        <ele>43</ele>
        <time>2015-08-06T14:46:03Z</time>
      </trkpt>
      <trkpt lat="43.40147" lon="3.69707">
        <ele>44</ele>
        <time>2015-08-06T14:46:09Z</time>
      </trkpt>
      <trkpt lat="43.40162" lon="3.69711">
        <ele>46</ele>
        <time>2015-08-06T14:46:16Z</time>
      </trkpt>
      <trkpt lat="43.4017" lon="3.69717">
        <ele>47</ele>
        <time>2015-08-06T14:46:21Z</time>
      </trkpt>
      <trkpt lat="43.40195" lon="3.69713">
        <ele>46</ele>
        <time>2015-08-06T14:46:27Z</time>
      </trkpt>
      <trkpt lat="43.40228" lon="3.6972">
        <ele>43</ele>
        <time>2015-08-06T14:46:33Z</time>
      </trkpt>
      <trkpt lat="43.40254" lon="3.69713">
        <ele>45</ele>
        <time>2015-08-06T14:46:38Z</time>
      </trkpt>
      <trkpt lat="43.40278" lon="3.69711">
        <ele>44</ele>
        <time>2015-08-06T14:46:43Z</time>
      </trkpt>
      <trkpt lat="43.40291" lon="3.69708">
        <ele>48</ele>
        <time>2015-08-06T14:46:49Z</time>
      </trkpt>
      <trkpt lat="43.40291" lon="3.69705">
        <ele>50</ele>
        <time>2015-08-06T14:46:54Z</time>
      </trkpt>
      <trkpt lat="43.40294" lon="3.69701">
        <ele>49</ele>
        <time>2015-08-06T14:47:00Z</time>
      </trkpt>
      <trkpt lat="43.40296" lon="3.69701">
        <ele>49</ele>
        <time>2015-08-06T14:47:05Z</time>
      </trkpt>
      <trkpt lat="43.40302" lon="3.69705">
        <ele>51</ele>
        <time>2015-08-06T14:47:11Z</time>
      </trkpt>
      <trkpt lat="43.40311" lon="3.69702">
        <ele>49</ele>
        <time>2015-08-06T14:47:16Z</time>
      </trkpt>
      <trkpt lat="43.40324" lon="3.69699">
        <ele>50</ele>
        <time>2015-08-06T14:47:22Z</time>
      </trkpt>
      <trkpt lat="43.40342" lon="3.69697">
        <ele>52</ele>
        <time>2015-08-06T14:47:27Z</time>
      </trkpt>
      <trkpt lat="43.40358" lon="3.69693">
        <ele>52</ele>
        <time>2015-08-06T14:47:33Z</time>
      </trkpt>
      <trkpt lat="43.4037" lon="3.6969">
        <ele>52</ele>
        <time>2015-08-06T14:47:39Z</time>
      </trkpt>
      <trkpt lat="43.40376" lon="3.69692">
        <ele>54</ele>
        <time>2015-08-06T14:47:44Z</time>
      </trkpt>
      <trkpt lat="43.40376" lon="3.69694">
        <ele>54</ele>
        <time>2015-08-06T14:47:49Z</time>
      </trkpt>
      <trkpt lat="43.4038" lon="3.69698">
        <ele>53</ele>
        <time>2015-08-06T14:47:54Z</time>
      </trkpt>
      <trkpt lat="43.40386" lon="3.69691">
        <ele>50</ele>
        <time>2015-08-06T14:48:00Z</time>
      </trkpt>
      <trkpt lat="43.40396" lon="3.69689">
        <ele>51</ele>
        <time>2015-08-06T14:48:05Z</time>
      </trkpt>
      <trkpt lat="43.40413" lon="3.69686">
        <ele>47</ele>
        <time>2015-08-06T14:48:11Z</time>
      </trkpt>
      <trkpt lat="43.40425" lon="3.69681">
        <ele>45</ele>
        <time>2015-08-06T14:48:17Z</time>
      </trkpt>
      <trkpt lat="43.40423" lon="3.6968">
        <ele>46</ele>
        <time>2015-08-06T14:48:22Z</time>
      </trkpt>
      <trkpt lat="43.40424" lon="3.6968">
        <ele>47</ele>
        <time>2015-08-06T14:48:28Z</time>
      </trkpt>
      <trkpt lat="43.40427" lon="3.69676">
        <ele>50</ele>
        <time>2015-08-06T14:48:33Z</time>
      </trkpt>
      <trkpt lat="43.40448" lon="3.69674">
        <ele>50</ele>
        <time>2015-08-06T14:48:38Z</time>
      </trkpt>
      <trkpt lat="43.40482" lon="3.69664">
        <ele>50</ele>
        <time>2015-08-06T14:48:45Z</time>
      </trkpt>
      <trkpt lat="43.40515" lon="3.69657">
        <ele>49</ele>
        <time>2015-08-06T14:48:50Z</time>
      </trkpt>
      <trkpt lat="43.40546" lon="3.69656">
        <ele>49</ele>
        <time>2015-08-06T14:48:57Z</time>
      </trkpt>
      <trkpt lat="43.40583" lon="3.69643">
        <ele>49</ele>
        <time>2015-08-06T14:49:03Z</time>
      </trkpt>
      <trkpt lat="43.40613" lon="3.69634">
        <ele>49</ele>
        <time>2015-08-06T14:49:08Z</time>
      </trkpt>
      <trkpt lat="43.40642" lon="3.69624">
        <ele>48</ele>
        <time>2015-08-06T14:49:13Z</time>
      </trkpt>
      <trkpt lat="43.40662" lon="3.69618">
        <ele>46</ele>
        <time>2015-08-06T14:49:18Z</time>
      </trkpt>
      <trkpt lat="43.4066" lon="3.6962">
        <ele>47</ele>
        <time>2015-08-06T14:49:23Z</time>
      </trkpt>
      <trkpt lat="43.40668" lon="3.69614">
        <ele>49</ele>
        <time>2015-08-06T14:49:29Z</time>
      </trkpt>
      <trkpt lat="43.40668" lon="3.69605">
        <ele>51</ele>
        <time>2015-08-06T14:49:34Z</time>
      </trkpt>
      <trkpt lat="43.40681" lon="3.6961">
        <ele>49</ele>
        <time>2015-08-06T14:49:41Z</time>
      </trkpt>
      <trkpt lat="43.40688" lon="3.69613">
        <ele>48</ele>
        <time>2015-08-06T14:49:46Z</time>
      </trkpt>
      <trkpt lat="43.40714" lon="3.69603">
        <ele>49</ele>
        <time>2015-08-06T14:49:52Z</time>
      </trkpt>
      <trkpt lat="43.40742" lon="3.69587">
        <ele>51</ele>
        <time>2015-08-06T14:49:57Z</time>
      </trkpt>
      <trkpt lat="43.40775" lon="3.69566">
        <ele>50</ele>
        <time>2015-08-06T14:50:03Z</time>
      </trkpt>
      <trkpt lat="43.40806" lon="3.69543">
        <ele>51</ele>
        <time>2015-08-06T14:50:09Z</time>
      </trkpt>
      <trkpt lat="43.40836" lon="3.6952">
        <ele>51</ele>
        <time>2015-08-06T14:50:15Z</time>
      </trkpt>
      <trkpt lat="43.40863" lon="3.69499">
        <ele>52</ele>
        <time>2015-08-06T14:50:20Z</time>
      </trkpt>
      <trkpt lat="43.40892" lon="3.69477">
        <ele>54</ele>
        <time>2015-08-06T14:50:26Z</time>
      </trkpt>
      <trkpt lat="43.40913" lon="3.6946">
        <ele>53</ele>
        <time>2015-08-06T14:50:32Z</time>
      </trkpt>
      <trkpt lat="43.40925" lon="3.69453">
        <ele>55</ele>
        <time>2015-08-06T14:50:38Z</time>
      </trkpt>
      <trkpt lat="43.40934" lon="3.69453">
        <ele>57</ele>
        <time>2015-08-06T14:50:43Z</time>
      </trkpt>
      <trkpt lat="43.40948" lon="3.69461">
        <ele>60</ele>
        <time>2015-08-06T14:50:49Z</time>
      </trkpt>
      <trkpt lat="43.40952" lon="3.6947">
        <ele>57</ele>
        <time>2015-08-06T14:50:54Z</time>
      </trkpt>
      <trkpt lat="43.40952" lon="3.69468">
        <ele>57</ele>
        <time>2015-08-06T14:51:01Z</time>
      </trkpt>
      <trkpt lat="43.40953" lon="3.69469">
        <ele>56</ele>
        <time>2015-08-06T14:51:06Z</time>
      </trkpt>
      <trkpt lat="43.40953" lon="3.69469">
        <ele>57</ele>
        <time>2015-08-06T14:51:12Z</time>
      </trkpt>
      <trkpt lat="43.40953" lon="3.69469">
        <ele>57</ele>
        <time>2015-08-06T14:51:17Z</time>
      </trkpt>
      <trkpt lat="43.40953" lon="3.69469">
        <ele>57</ele>
        <time>2015-08-06T14:51:22Z</time>
      </trkpt>
      <trkpt lat="43.40954" lon="3.69468">
        <ele>56</ele>
        <time>2015-08-06T14:51:28Z</time>
      </trkpt>
      <trkpt lat="43.4096" lon="3.69487">
        <ele>55</ele>
        <time>2015-08-06T14:51:34Z</time>
      </trkpt>
      <trkpt lat="43.40951" lon="3.69511">
        <ele>54</ele>
        <time>2015-08-06T14:51:39Z</time>
      </trkpt>
      <trkpt lat="43.40946" lon="3.69513">
        <ele>54</ele>
        <time>2015-08-06T14:51:45Z</time>
      </trkpt>
      <trkpt lat="43.40965" lon="3.69505">
        <ele>61</ele>
        <time>2015-08-06T14:51:51Z</time>
      </trkpt>
      <trkpt lat="43.4096" lon="3.69459">
        <ele>62</ele>
        <time>2015-08-06T14:51:56Z</time>
      </trkpt>
      <trkpt lat="43.40963" lon="3.69427">
        <ele>60</ele>
        <time>2015-08-06T14:52:01Z</time>
      </trkpt>
      <trkpt lat="43.4098" lon="3.69416">
        <ele>59</ele>
        <time>2015-08-06T14:52:07Z</time>
      </trkpt>
      <trkpt lat="43.41001" lon="3.694">
        <ele>57</ele>
        <time>2015-08-06T14:52:13Z</time>
      </trkpt>
      <trkpt lat="43.41022" lon="3.69379">
        <ele>59</ele>
        <time>2015-08-06T14:52:18Z</time>
      </trkpt>
      <trkpt lat="43.41033" lon="3.69358">
        <ele>59</ele>
        <time>2015-08-06T14:52:23Z</time>
      </trkpt>
      <trkpt lat="43.41044" lon="3.69339">
        <ele>62</ele>
        <time>2015-08-06T14:52:29Z</time>
      </trkpt>
      <trkpt lat="43.41058" lon="3.69318">
        <ele>60</ele>
        <time>2015-08-06T14:52:36Z</time>
      </trkpt>
      <trkpt lat="43.41076" lon="3.69297">
        <ele>58</ele>
        <time>2015-08-06T14:52:41Z</time>
      </trkpt>
      <trkpt lat="43.41098" lon="3.69275">
        <ele>58</ele>
        <time>2015-08-06T14:52:47Z</time>
      </trkpt>
      <trkpt lat="43.41129" lon="3.69248">
        <ele>63</ele>
        <time>2015-08-06T14:52:53Z</time>
      </trkpt>
      <trkpt lat="43.41153" lon="3.69243">
        <ele>60</ele>
        <time>2015-08-06T14:52:59Z</time>
      </trkpt>
      <trkpt lat="43.41165" lon="3.6926">
        <ele>61</ele>
        <time>2015-08-06T14:53:05Z</time>
      </trkpt>
      <trkpt lat="43.41181" lon="3.69289">
        <ele>63</ele>
        <time>2015-08-06T14:53:10Z</time>
      </trkpt>
      <trkpt lat="43.41195" lon="3.69326">
        <ele>63</ele>
        <time>2015-08-06T14:53:16Z</time>
      </trkpt>
      <trkpt lat="43.41204" lon="3.69327">
        <ele>61</ele>
        <time>2015-08-06T14:53:22Z</time>
      </trkpt>
      <trkpt lat="43.41202" lon="3.69329">
        <ele>61</ele>
        <time>2015-08-06T14:53:27Z</time>
      </trkpt>
      <trkpt lat="43.41203" lon="3.69329">
        <ele>60</ele>
        <time>2015-08-06T14:53:33Z</time>
      </trkpt>
      <trkpt lat="43.41204" lon="3.69329">
        <ele>60</ele>
        <time>2015-08-06T14:53:38Z</time>
      </trkpt>
      <trkpt lat="43.41203" lon="3.69329">
        <ele>60</ele>
        <time>2015-08-06T14:53:43Z</time>
      </trkpt>
      <trkpt lat="43.41203" lon="3.69329">
        <ele>60</ele>
        <time>2015-08-06T14:53:49Z</time>
      </trkpt>
      <trkpt lat="43.41203" lon="3.69329">
        <ele>60</ele>
        <time>2015-08-06T14:53:55Z</time>
      </trkpt>
      <trkpt lat="43.41203" lon="3.69329">
        <ele>60</ele>
        <time>2015-08-06T14:54:00Z</time>
      </trkpt>
      <trkpt lat="43.41218" lon="3.69329">
        <ele>66</ele>
        <time>2015-08-06T14:54:06Z</time>
      </trkpt>
      <trkpt lat="43.41225" lon="3.69349">
        <ele>62</ele>
        <time>2015-08-06T14:54:11Z</time>
      </trkpt>
      <trkpt lat="43.41226" lon="3.69376">
        <ele>62</ele>
        <time>2015-08-06T14:54:17Z</time>
      </trkpt>
      <trkpt lat="43.41221" lon="3.69402">
        <ele>63</ele>
        <time>2015-08-06T14:54:22Z</time>
      </trkpt>
      <trkpt lat="43.41216" lon="3.69414">
        <ele>62</ele>
        <time>2015-08-06T14:54:27Z</time>
      </trkpt>
      <trkpt lat="43.4121" lon="3.69427">
        <ele>62</ele>
        <time>2015-08-06T14:54:33Z</time>
      </trkpt>
      <trkpt lat="43.41203" lon="3.69443">
        <ele>62</ele>
        <time>2015-08-06T14:54:39Z</time>
      </trkpt>
      <trkpt lat="43.41193" lon="3.69472">
        <ele>60</ele>
        <time>2015-08-06T14:54:45Z</time>
      </trkpt>
      <trkpt lat="43.41189" lon="3.69512">
        <ele>58</ele>
        <time>2015-08-06T14:54:51Z</time>
      </trkpt>
      <trkpt lat="43.41195" lon="3.69548">
        <ele>57</ele>
        <time>2015-08-06T14:54:57Z</time>
      </trkpt>
      <trkpt lat="43.41202" lon="3.69581">
        <ele>56</ele>
        <time>2015-08-06T14:55:02Z</time>
      </trkpt>
      <trkpt lat="43.41206" lon="3.69612">
        <ele>57</ele>
        <time>2015-08-06T14:55:09Z</time>
      </trkpt>
      <trkpt lat="43.41209" lon="3.69644">
        <ele>56</ele>
        <time>2015-08-06T14:55:15Z</time>
      </trkpt>
      <trkpt lat="43.41222" lon="3.69663">
        <ele>57</ele>
        <time>2015-08-06T14:55:20Z</time>
      </trkpt>
      <trkpt lat="43.41239" lon="3.6968">
        <ele>57</ele>
        <time>2015-08-06T14:55:25Z</time>
      </trkpt>
      <trkpt lat="43.41237" lon="3.69686">
        <ele>56</ele>
        <time>2015-08-06T14:55:31Z</time>
      </trkpt>
      <trkpt lat="43.41228" lon="3.69711">
        <ele>56</ele>
        <time>2015-08-06T14:55:36Z</time>
      </trkpt>
      <trkpt lat="43.41232" lon="3.69731">
        <ele>56</ele>
        <time>2015-08-06T14:55:42Z</time>
      </trkpt>
      <trkpt lat="43.41237" lon="3.69752">
        <ele>56</ele>
        <time>2015-08-06T14:55:47Z</time>
      </trkpt>
      <trkpt lat="43.41245" lon="3.69778">
        <ele>55</ele>
        <time>2015-08-06T14:55:53Z</time>
      </trkpt>
      <trkpt lat="43.41246" lon="3.69778">
        <ele>56</ele>
        <time>2015-08-06T14:55:59Z</time>
      </trkpt>
      <trkpt lat="43.41246" lon="3.69777">
        <ele>56</ele>
        <time>2015-08-06T14:56:04Z</time>
      </trkpt>
      <trkpt lat="43.41246" lon="3.69777">
        <ele>56</ele>
        <time>2015-08-06T14:56:10Z</time>
      </trkpt>
      <trkpt lat="43.41246" lon="3.69777">
        <ele>56</ele>
        <time>2015-08-06T14:56:16Z</time>
      </trkpt>
      <trkpt lat="43.41246" lon="3.69777">
        <ele>56</ele>
        <time>2015-08-06T14:56:21Z</time>
      </trkpt>
      <trkpt lat="43.41246" lon="3.69777">
        <ele>56</ele>
        <time>2015-08-06T14:56:27Z</time>
      </trkpt>
      <trkpt lat="43.41246" lon="3.69777">
        <ele>56</ele>
        <time>2015-08-06T14:56:32Z</time>
      </trkpt>
      <trkpt lat="43.41246" lon="3.69777">
        <ele>56</ele>
        <time>2015-08-06T14:56:37Z</time>
      </trkpt>
      <trkpt lat="43.41246" lon="3.69777">
        <ele>56</ele>
        <time>2015-08-06T14:56:44Z</time>
      </trkpt>
      <trkpt lat="43.41246" lon="3.69777">
        <ele>56</ele>
        <time>2015-08-06T14:56:49Z</time>
      </trkpt>
      <trkpt lat="43.41246" lon="3.69777">
        <ele>56</ele>
        <time>2015-08-06T14:56:54Z</time>
      </trkpt>
      <trkpt lat="43.41246" lon="3.69777">
        <ele>56</ele>
        <time>2015-08-06T14:57:00Z</time>
      </trkpt>
      <trkpt lat="43.41244" lon="3.69777">
        <ele>56</ele>
        <time>2015-08-06T14:57:05Z</time>
      </trkpt>
      <trkpt lat="43.41243" lon="3.69776">
        <ele>55</ele>
        <time>2015-08-06T14:57:11Z</time>
      </trkpt>
      <trkpt lat="43.41238" lon="3.69763">
        <ele>55</ele>
        <time>2015-08-06T14:57:17Z</time>
      </trkpt>
      <trkpt lat="43.41231" lon="3.69726">
        <ele>53</ele>
        <time>2015-08-06T14:57:22Z</time>
      </trkpt>
      <trkpt lat="43.41232" lon="3.69697">
        <ele>55</ele>
        <time>2015-08-06T14:57:28Z</time>
      </trkpt>
      <trkpt lat="43.41225" lon="3.69663">
        <ele>53</ele>
        <time>2015-08-06T14:57:33Z</time>
      </trkpt>
      <trkpt lat="43.41205" lon="3.69633">
        <ele>50</ele>
        <time>2015-08-06T14:57:39Z</time>
      </trkpt>
      <trkpt lat="43.412" lon="3.69591">
        <ele>53</ele>
        <time>2015-08-06T14:57:45Z</time>
      </trkpt>
      <trkpt lat="43.41194" lon="3.69554">
        <ele>55</ele>
        <time>2015-08-06T14:57:51Z</time>
      </trkpt>
      <trkpt lat="43.41187" lon="3.69517">
        <ele>56</ele>
        <time>2015-08-06T14:57:57Z</time>
      </trkpt>
      <trkpt lat="43.41188" lon="3.69488">
        <ele>58</ele>
        <time>2015-08-06T14:58:03Z</time>
      </trkpt>
      <trkpt lat="43.41193" lon="3.69469">
        <ele>56</ele>
        <time>2015-08-06T14:58:08Z</time>
      </trkpt>
      <trkpt lat="43.41199" lon="3.69454">
        <ele>57</ele>
        <time>2015-08-06T14:58:14Z</time>
      </trkpt>
      <trkpt lat="43.41208" lon="3.69429">
        <ele>60</ele>
        <time>2015-08-06T14:58:20Z</time>
      </trkpt>
      <trkpt lat="43.41219" lon="3.694">
        <ele>60</ele>
        <time>2015-08-06T14:58:26Z</time>
      </trkpt>
      <trkpt lat="43.41223" lon="3.69382">
        <ele>59</ele>
        <time>2015-08-06T14:58:32Z</time>
      </trkpt>
      <trkpt lat="43.41224" lon="3.69366">
        <ele>61</ele>
        <time>2015-08-06T14:58:38Z</time>
      </trkpt>
      <trkpt lat="43.41219" lon="3.69339">
        <ele>59</ele>
        <time>2015-08-06T14:58:43Z</time>
      </trkpt>
      <trkpt lat="43.41219" lon="3.69304">
        <ele>64</ele>
        <time>2015-08-06T14:58:49Z</time>
      </trkpt>
      <trkpt lat="43.41214" lon="3.69297">
        <ele>63</ele>
        <time>2015-08-06T14:58:54Z</time>
      </trkpt>
      <trkpt lat="43.41207" lon="3.69291">
        <ele>61</ele>
        <time>2015-08-06T14:58:59Z</time>
      </trkpt>
      <trkpt lat="43.412" lon="3.69275">
        <ele>59</ele>
        <time>2015-08-06T14:59:05Z</time>
      </trkpt>
      <trkpt lat="43.4119" lon="3.6925">
        <ele>58</ele>
        <time>2015-08-06T14:59:10Z</time>
      </trkpt>
      <trkpt lat="43.41184" lon="3.69222">
        <ele>56</ele>
        <time>2015-08-06T14:59:16Z</time>
      </trkpt>
      <trkpt lat="43.41169" lon="3.69187">
        <ele>55</ele>
        <time>2015-08-06T14:59:21Z</time>
      </trkpt>
      <trkpt lat="43.41169" lon="3.69155">
        <ele>56</ele>
        <time>2015-08-06T14:59:26Z</time>
      </trkpt>
      <trkpt lat="43.41172" lon="3.6913">
        <ele>60</ele>
        <time>2015-08-06T14:59:32Z</time>
      </trkpt>
      <trkpt lat="43.41169" lon="3.69104">
        <ele>61</ele>
        <time>2015-08-06T14:59:39Z</time>
      </trkpt>
      <trkpt lat="43.4117" lon="3.69073">
        <ele>62</ele>
        <time>2015-08-06T14:59:45Z</time>
      </trkpt>
      <trkpt lat="43.41172" lon="3.69014">
        <ele>57</ele>
        <time>2015-08-06T14:59:51Z</time>
      </trkpt>
      <trkpt lat="43.41178" lon="3.68972">
        <ele>60</ele>
        <time>2015-08-06T14:59:57Z</time>
      </trkpt>
      <trkpt lat="43.41179" lon="3.68951">
        <ele>61</ele>
        <time>2015-08-06T15:00:03Z</time>
      </trkpt>
      <trkpt lat="43.41181" lon="3.68948">
        <ele>57</ele>
        <time>2015-08-06T15:00:08Z</time>
      </trkpt>
      <trkpt lat="43.41181" lon="3.68948">
        <ele>56</ele>
        <time>2015-08-06T15:00:14Z</time>
      </trkpt>
      <trkpt lat="43.41181" lon="3.68948">
        <ele>57</ele>
        <time>2015-08-06T15:00:19Z</time>
      </trkpt>
      <trkpt lat="43.41181" lon="3.68948">
        <ele>57</ele>
        <time>2015-08-06T15:00:25Z</time>
      </trkpt>
      <trkpt lat="43.41181" lon="3.68952">
        <ele>55</ele>
        <time>2015-08-06T15:00:30Z</time>
      </trkpt>
      <trkpt lat="43.41177" lon="3.68969">
        <ele>57</ele>
        <time>2015-08-06T15:00:37Z</time>
      </trkpt>
      <trkpt lat="43.41176" lon="3.68975">
        <ele>56</ele>
        <time>2015-08-06T15:00:42Z</time>
      </trkpt>
      <trkpt lat="43.41175" lon="3.68986">
        <ele>55</ele>
        <time>2015-08-06T15:00:48Z</time>
      </trkpt>
      <trkpt lat="43.41185" lon="3.68991">
        <ele>55</ele>
        <time>2015-08-06T15:00:54Z</time>
      </trkpt>
      <trkpt lat="43.41199" lon="3.68992">
        <ele>56</ele>
        <time>2015-08-06T15:00:59Z</time>
      </trkpt>
      <trkpt lat="43.41208" lon="3.68992">
        <ele>56</ele>
        <time>2015-08-06T15:01:05Z</time>
      </trkpt>
      <trkpt lat="43.41226" lon="3.68993">
        <ele>54</ele>
        <time>2015-08-06T15:01:10Z</time>
      </trkpt>
      <trkpt lat="43.41242" lon="3.68979">
        <ele>53</ele>
        <time>2015-08-06T15:01:16Z</time>
      </trkpt>
      <trkpt lat="43.41261" lon="3.68958">
        <ele>49</ele>
        <time>2015-08-06T15:01:21Z</time>
      </trkpt>
      <trkpt lat="43.4128" lon="3.68941">
        <ele>50</ele>
        <time>2015-08-06T15:01:26Z</time>
      </trkpt>
      <trkpt lat="43.413" lon="3.68917">
        <ele>50</ele>
        <time>2015-08-06T15:01:32Z</time>
      </trkpt>
      <trkpt lat="43.41317" lon="3.689">
        <ele>51</ele>
        <time>2015-08-06T15:01:37Z</time>
      </trkpt>
      <trkpt lat="43.41342" lon="3.68879">
        <ele>46</ele>
        <time>2015-08-06T15:01:43Z</time>
      </trkpt>
      <trkpt lat="43.41368" lon="3.68871">
        <ele>45</ele>
        <time>2015-08-06T15:01:49Z</time>
      </trkpt>
      <trkpt lat="43.41384" lon="3.68905">
        <ele>49</ele>
        <time>2015-08-06T15:01:55Z</time>
      </trkpt>
      <trkpt lat="43.41375" lon="3.68941">
        <ele>50</ele>
        <time>2015-08-06T15:02:01Z</time>
      </trkpt>
      <trkpt lat="43.41355" lon="3.68968">
        <ele>51</ele>
        <time>2015-08-06T15:02:06Z</time>
      </trkpt>
      <trkpt lat="43.41333" lon="3.69001">
        <ele>49</ele>
        <time>2015-08-06T15:02:11Z</time>
      </trkpt>
      <trkpt lat="43.41313" lon="3.69026">
        <ele>49</ele>
        <time>2015-08-06T15:02:17Z</time>
      </trkpt>
      <trkpt lat="43.41294" lon="3.69063">
        <ele>48</ele>
        <time>2015-08-06T15:02:23Z</time>
      </trkpt>
      <trkpt lat="43.41278" lon="3.69095">
        <ele>48</ele>
        <time>2015-08-06T15:02:28Z</time>
      </trkpt>
      <trkpt lat="43.41256" lon="3.69126">
        <ele>46</ele>
        <time>2015-08-06T15:02:34Z</time>
      </trkpt>
      <trkpt lat="43.4124" lon="3.69144">
        <ele>48</ele>
        <time>2015-08-06T15:02:39Z</time>
      </trkpt>
      <trkpt lat="43.4123" lon="3.69151">
        <ele>48</ele>
        <time>2015-08-06T15:02:45Z</time>
      </trkpt>
      <trkpt lat="43.41231" lon="3.6915">
        <ele>49</ele>
        <time>2015-08-06T15:02:50Z</time>
      </trkpt>
      <trkpt lat="43.41231" lon="3.6915">
        <ele>50</ele>
        <time>2015-08-06T15:02:55Z</time>
      </trkpt>
      <trkpt lat="43.4123" lon="3.6915">
        <ele>51</ele>
        <time>2015-08-06T15:03:00Z</time>
      </trkpt>
      <trkpt lat="43.4123" lon="3.6915">
        <ele>51</ele>
        <time>2015-08-06T15:03:05Z</time>
      </trkpt>
      <trkpt lat="43.4123" lon="3.6915">
        <ele>51</ele>
        <time>2015-08-06T15:03:10Z</time>
      </trkpt>
      <trkpt lat="43.4123" lon="3.6915">
        <ele>51</ele>
        <time>2015-08-06T15:03:16Z</time>
      </trkpt>
      <trkpt lat="43.4123" lon="3.69151">
        <ele>51</ele>
        <time>2015-08-06T15:03:21Z</time>
      </trkpt>
      <trkpt lat="43.4123" lon="3.69151">
        <ele>51</ele>
        <time>2015-08-06T15:03:27Z</time>
      </trkpt>
      <trkpt lat="43.41225" lon="3.69143">
        <ele>49</ele>
        <time>2015-08-06T15:03:32Z</time>
      </trkpt>
      <trkpt lat="43.41221" lon="3.69127">
        <ele>48</ele>
        <time>2015-08-06T15:03:38Z</time>
      </trkpt>
      <trkpt lat="43.41216" lon="3.69102">
        <ele>47</ele>
        <time>2015-08-06T15:03:44Z</time>
      </trkpt>
      <trkpt lat="43.41216" lon="3.6908">
        <ele>47</ele>
        <time>2015-08-06T15:03:49Z</time>
      </trkpt>
      <trkpt lat="43.41237" lon="3.69067">
        <ele>47</ele>
        <time>2015-08-06T15:03:54Z</time>
      </trkpt>
      <trkpt lat="43.41252" lon="3.69051">
        <ele>46</ele>
        <time>2015-08-06T15:03:59Z</time>
      </trkpt>
      <trkpt lat="43.4125" lon="3.6903">
        <ele>49</ele>
        <time>2015-08-06T15:04:05Z</time>
      </trkpt>
      <trkpt lat="43.41236" lon="3.69005">
        <ele>47</ele>
        <time>2015-08-06T15:04:10Z</time>
      </trkpt>
      <trkpt lat="43.41227" lon="3.68988">
        <ele>48</ele>
        <time>2015-08-06T15:04:16Z</time>
      </trkpt>
      <trkpt lat="43.41209" lon="3.68988">
        <ele>49</ele>
        <time>2015-08-06T15:04:22Z</time>
      </trkpt>
      <trkpt lat="43.41205" lon="3.68988">
        <ele>50</ele>
        <time>2015-08-06T15:04:27Z</time>
      </trkpt>
      <trkpt lat="43.41206" lon="3.68988">
        <ele>50</ele>
        <time>2015-08-06T15:04:32Z</time>
      </trkpt>
      <trkpt lat="43.41206" lon="3.68988">
        <ele>50</ele>
        <time>2015-08-06T15:04:38Z</time>
      </trkpt>
      <trkpt lat="43.41206" lon="3.68988">
        <ele>50</ele>
        <time>2015-08-06T15:04:43Z</time>
      </trkpt>
      <trkpt lat="43.41206" lon="3.68988">
        <ele>50</ele>
        <time>2015-08-06T15:04:49Z</time>
      </trkpt>
      <trkpt lat="43.41206" lon="3.68988">
        <ele>50</ele>
        <time>2015-08-06T15:04:54Z</time>
      </trkpt>
      <trkpt lat="43.41206" lon="3.68988">
        <ele>50</ele>
        <time>2015-08-06T15:05:00Z</time>
      </trkpt>
      <trkpt lat="43.41206" lon="3.68988">
        <ele>50</ele>
        <time>2015-08-06T15:05:05Z</time>
      </trkpt>
      <trkpt lat="43.41206" lon="3.68988">
        <ele>50</ele>
        <time>2015-08-06T15:05:11Z</time>
      </trkpt>
      <trkpt lat="43.41206" lon="3.68988">
        <ele>50</ele>
        <time>2015-08-06T15:05:16Z</time>
      </trkpt>
      <trkpt lat="43.41206" lon="3.68988">
        <ele>50</ele>
        <time>2015-08-06T15:05:22Z</time>
      </trkpt>
      <trkpt lat="43.41206" lon="3.68988">
        <ele>50</ele>
        <time>2015-08-06T15:05:27Z</time>
      </trkpt>
      <trkpt lat="43.41206" lon="3.68988">
        <ele>50</ele>
        <time>2015-08-06T15:05:33Z</time>
      </trkpt>
      <trkpt lat="43.41205" lon="3.68988">
        <ele>50</ele>
        <time>2015-08-06T15:05:39Z</time>
      </trkpt>
      <trkpt lat="43.41192" lon="3.6899">
        <ele>48</ele>
        <time>2015-08-06T15:05:44Z</time>
      </trkpt>
      <trkpt lat="43.4118" lon="3.6899">
        <ele>51</ele>
        <time>2015-08-06T15:05:50Z</time>
      </trkpt>
      <trkpt lat="43.41174" lon="3.69001">
        <ele>50</ele>
        <time>2015-08-06T15:05:55Z</time>
      </trkpt>
      <trkpt lat="43.41172" lon="3.6903">
        <ele>49</ele>
        <time>2015-08-06T15:06:00Z</time>
      </trkpt>
      <trkpt lat="43.41169" lon="3.69054">
        <ele>51</ele>
        <time>2015-08-06T15:06:06Z</time>
      </trkpt>
      <trkpt lat="43.41166" lon="3.69081">
        <ele>54</ele>
        <time>2015-08-06T15:06:11Z</time>
      </trkpt>
      <trkpt lat="43.41163" lon="3.69104">
        <ele>52</ele>
        <time>2015-08-06T15:06:16Z</time>
      </trkpt>
      <trkpt lat="43.41159" lon="3.69131">
        <ele>55</ele>
        <time>2015-08-06T15:06:22Z</time>
      </trkpt>
      <trkpt lat="43.41158" lon="3.69161">
        <ele>54</ele>
        <time>2015-08-06T15:06:29Z</time>
      </trkpt>
      <trkpt lat="43.4116" lon="3.69181">
        <ele>58</ele>
        <time>2015-08-06T15:06:34Z</time>
      </trkpt>
      <trkpt lat="43.41162" lon="3.69198">
        <ele>60</ele>
        <time>2015-08-06T15:06:40Z</time>
      </trkpt>
      <trkpt lat="43.41171" lon="3.69203">
        <ele>61</ele>
        <time>2015-08-06T15:06:46Z</time>
      </trkpt>
      <trkpt lat="43.4117" lon="3.69216">
        <ele>61</ele>
        <time>2015-08-06T15:06:52Z</time>
      </trkpt>
      <trkpt lat="43.4116" lon="3.69226">
        <ele>62</ele>
        <time>2015-08-06T15:06:57Z</time>
      </trkpt>
      <trkpt lat="43.41159" lon="3.69231">
        <ele>61</ele>
        <time>2015-08-06T15:07:03Z</time>
      </trkpt>
      <trkpt lat="43.41152" lon="3.69236">
        <ele>63</ele>
        <time>2015-08-06T15:07:08Z</time>
      </trkpt>
      <trkpt lat="43.4116" lon="3.69254">
        <ele>63</ele>
        <time>2015-08-06T15:07:14Z</time>
      </trkpt>
      <trkpt lat="43.41173" lon="3.69276">
        <ele>63</ele>
        <time>2015-08-06T15:07:19Z</time>
      </trkpt>
      <trkpt lat="43.41187" lon="3.69305">
        <ele>58</ele>
        <time>2015-08-06T15:07:24Z</time>
      </trkpt>
      <trkpt lat="43.41199" lon="3.69325">
        <ele>57</ele>
        <time>2015-08-06T15:07:30Z</time>
      </trkpt>
      <trkpt lat="43.41209" lon="3.69351">
        <ele>55</ele>
        <time>2015-08-06T15:07:35Z</time>
      </trkpt>
      <trkpt lat="43.41212" lon="3.69365">
        <ele>56</ele>
        <time>2015-08-06T15:07:41Z</time>
      </trkpt>
      <trkpt lat="43.41195" lon="3.69382">
        <ele>56</ele>
        <time>2015-08-06T15:07:46Z</time>
      </trkpt>
      <trkpt lat="43.41185" lon="3.69352">
        <ele>59</ele>
        <time>2015-08-06T15:07:52Z</time>
      </trkpt>
      <trkpt lat="43.41204" lon="3.69326">
        <ele>61</ele>
        <time>2015-08-06T15:07:58Z</time>
      </trkpt>
      <trkpt lat="43.41228" lon="3.6931">
        <ele>63</ele>
        <time>2015-08-06T15:08:03Z</time>
      </trkpt>
      <trkpt lat="43.4126" lon="3.69298">
        <ele>62</ele>
        <time>2015-08-06T15:08:09Z</time>
      </trkpt>
      <trkpt lat="43.41296" lon="3.69299">
        <ele>59</ele>
        <time>2015-08-06T15:08:15Z</time>
      </trkpt>
      <trkpt lat="43.41323" lon="3.69336">
        <ele>60</ele>
        <time>2015-08-06T15:08:20Z</time>
      </trkpt>
      <trkpt lat="43.41335" lon="3.69386">
        <ele>56</ele>
        <time>2015-08-06T15:08:25Z</time>
      </trkpt>
      <trkpt lat="43.41349" lon="3.69447">
        <ele>51</ele>
        <time>2015-08-06T15:08:30Z</time>
      </trkpt>
      <trkpt lat="43.41363" lon="3.69527">
        <ele>49</ele>
        <time>2015-08-06T15:08:36Z</time>
      </trkpt>
      <trkpt lat="43.41376" lon="3.69587">
        <ele>48</ele>
        <time>2015-08-06T15:08:41Z</time>
      </trkpt>
      <trkpt lat="43.41386" lon="3.69641">
        <ele>48</ele>
        <time>2015-08-06T15:08:46Z</time>
      </trkpt>
      <trkpt lat="43.41399" lon="3.69705">
        <ele>46</ele>
        <time>2015-08-06T15:08:52Z</time>
      </trkpt>
      <trkpt lat="43.41411" lon="3.69767">
        <ele>47</ele>
        <time>2015-08-06T15:08:58Z</time>
      </trkpt>
      <trkpt lat="43.41424" lon="3.69827">
        <ele>46</ele>
        <time>2015-08-06T15:09:04Z</time>
      </trkpt>
      <trkpt lat="43.41436" lon="3.69887">
        <ele>47</ele>
        <time>2015-08-06T15:09:10Z</time>
      </trkpt>
      <trkpt lat="43.41447" lon="3.69936">
        <ele>46</ele>
        <time>2015-08-06T15:09:16Z</time>
      </trkpt>
      <trkpt lat="43.41459" lon="3.69992">
        <ele>46</ele>
        <time>2015-08-06T15:09:21Z</time>
      </trkpt>
      <trkpt lat="43.41468" lon="3.70038">
        <ele>47</ele>
        <time>2015-08-06T15:09:26Z</time>
      </trkpt>
      <trkpt lat="43.41478" lon="3.70093">
        <ele>48</ele>
        <time>2015-08-06T15:09:32Z</time>
      </trkpt>
      <trkpt lat="43.4149" lon="3.70149">
        <ele>47</ele>
        <time>2015-08-06T15:09:38Z</time>
      </trkpt>
      <trkpt lat="43.41501" lon="3.70203">
        <ele>48</ele>
        <time>2015-08-06T15:09:44Z</time>
      </trkpt>
      <trkpt lat="43.41511" lon="3.70248">
        <ele>48</ele>
        <time>2015-08-06T15:09:49Z</time>
      </trkpt>
      <trkpt lat="43.41519" lon="3.70293">
        <ele>48</ele>
        <time>2015-08-06T15:09:54Z</time>
      </trkpt>
      <trkpt lat="43.41529" lon="3.70347">
        <ele>47</ele>
        <time>2015-08-06T15:10:00Z</time>
      </trkpt>
      <trkpt lat="43.41537" lon="3.7039">
        <ele>48</ele>
        <time>2015-08-06T15:10:05Z</time>
      </trkpt>
      <trkpt lat="43.41546" lon="3.70434">
        <ele>48</ele>
        <time>2015-08-06T15:10:10Z</time>
      </trkpt>
      <trkpt lat="43.41555" lon="3.70474">
        <ele>48</ele>
        <time>2015-08-06T15:10:16Z</time>
      </trkpt>
      <trkpt lat="43.41573" lon="3.70523">
        <ele>48</ele>
        <time>2015-08-06T15:10:21Z</time>
      </trkpt>
      <trkpt lat="43.41592" lon="3.70567">
        <ele>47</ele>
        <time>2015-08-06T15:10:28Z</time>
      </trkpt>
      <trkpt lat="43.41612" lon="3.70612">
        <ele>49</ele>
        <time>2015-08-06T15:10:33Z</time>
      </trkpt>
      <trkpt lat="43.41629" lon="3.70649">
        <ele>49</ele>
        <time>2015-08-06T15:10:38Z</time>
      </trkpt>
      <trkpt lat="43.41651" lon="3.7069">
        <ele>49</ele>
        <time>2015-08-06T15:10:44Z</time>
      </trkpt>
      <trkpt lat="43.41673" lon="3.70725">
        <ele>49</ele>
        <time>2015-08-06T15:10:49Z</time>
      </trkpt>
      <trkpt lat="43.41696" lon="3.70757">
        <ele>50</ele>
        <time>2015-08-06T15:10:54Z</time>
      </trkpt>
      <trkpt lat="43.41727" lon="3.70793">
        <ele>50</ele>
        <time>2015-08-06T15:11:01Z</time>
      </trkpt>
      <trkpt lat="43.41762" lon="3.70824">
        <ele>50</ele>
        <time>2015-08-06T15:11:06Z</time>
      </trkpt>
      <trkpt lat="43.41797" lon="3.70851">
        <ele>52</ele>
        <time>2015-08-06T15:11:13Z</time>
      </trkpt>
      <trkpt lat="43.41835" lon="3.70875">
        <ele>53</ele>
        <time>2015-08-06T15:11:18Z</time>
      </trkpt>
      <trkpt lat="43.41865" lon="3.70892">
        <ele>54</ele>
        <time>2015-08-06T15:11:24Z</time>
      </trkpt>
      <trkpt lat="43.41903" lon="3.70907">
        <ele>55</ele>
        <time>2015-08-06T15:11:29Z</time>
      </trkpt>
      <trkpt lat="43.41937" lon="3.70916">
        <ele>56</ele>
        <time>2015-08-06T15:11:35Z</time>
      </trkpt>
      <trkpt lat="43.41974" lon="3.70927">
        <ele>56</ele>
        <time>2015-08-06T15:11:40Z</time>
      </trkpt>
      <trkpt lat="43.42009" lon="3.70934">
        <ele>56</ele>
        <time>2015-08-06T15:11:46Z</time>
      </trkpt>
      <trkpt lat="43.42052" lon="3.70939">
        <ele>55</ele>
        <time>2015-08-06T15:11:52Z</time>
      </trkpt>
      <trkpt lat="43.42096" lon="3.70938">
        <ele>55</ele>
        <time>2015-08-06T15:11:57Z</time>
      </trkpt>
      <trkpt lat="43.42138" lon="3.7093">
        <ele>54</ele>
        <time>2015-08-06T15:12:03Z</time>
      </trkpt>
      <trkpt lat="43.42174" lon="3.7092">
        <ele>55</ele>
        <time>2015-08-06T15:12:09Z</time>
      </trkpt>
      <trkpt lat="43.42214" lon="3.70903">
        <ele>55</ele>
        <time>2015-08-06T15:12:14Z</time>
      </trkpt>
      <trkpt lat="43.42245" lon="3.70889">
        <ele>56</ele>
        <time>2015-08-06T15:12:20Z</time>
      </trkpt>
      <trkpt lat="43.42279" lon="3.70874">
        <ele>56</ele>
        <time>2015-08-06T15:12:25Z</time>
      </trkpt>
      <trkpt lat="43.42306" lon="3.70861">
        <ele>56</ele>
        <time>2015-08-06T15:12:30Z</time>
      </trkpt>
      <trkpt lat="43.42339" lon="3.70848">
        <ele>57</ele>
        <time>2015-08-06T15:12:36Z</time>
      </trkpt>
      <trkpt lat="43.42369" lon="3.7084">
        <ele>54</ele>
        <time>2015-08-06T15:12:41Z</time>
      </trkpt>
      <trkpt lat="43.42406" lon="3.7083">
        <ele>54</ele>
        <time>2015-08-06T15:12:47Z</time>
      </trkpt>
      <trkpt lat="43.42444" lon="3.70818">
        <ele>53</ele>
        <time>2015-08-06T15:12:53Z</time>
      </trkpt>
      <trkpt lat="43.42483" lon="3.70806">
        <ele>54</ele>
        <time>2015-08-06T15:12:59Z</time>
      </trkpt>
      <trkpt lat="43.42512" lon="3.70793">
        <ele>53</ele>
        <time>2015-08-06T15:13:04Z</time>
      </trkpt>
      <trkpt lat="43.42548" lon="3.70776">
        <ele>54</ele>
        <time>2015-08-06T15:13:10Z</time>
      </trkpt>
      <trkpt lat="43.4258" lon="3.70756">
        <ele>55</ele>
        <time>2015-08-06T15:13:15Z</time>
      </trkpt>
      <trkpt lat="43.42619" lon="3.70735">
        <ele>55</ele>
        <time>2015-08-06T15:13:21Z</time>
      </trkpt>
      <trkpt lat="43.4266" lon="3.70711">
        <ele>57</ele>
        <time>2015-08-06T15:13:27Z</time>
      </trkpt>
      <trkpt lat="43.42704" lon="3.70685">
        <ele>57</ele>
        <time>2015-08-06T15:13:34Z</time>
      </trkpt>
      <trkpt lat="43.42749" lon="3.70658">
        <ele>55</ele>
        <time>2015-08-06T15:13:39Z</time>
      </trkpt>
      <trkpt lat="43.42783" lon="3.70637">
        <ele>52</ele>
        <time>2015-08-06T15:13:45Z</time>
      </trkpt>
      <trkpt lat="43.42826" lon="3.70612">
        <ele>51</ele>
        <time>2015-08-06T15:13:50Z</time>
      </trkpt>
      <trkpt lat="43.42868" lon="3.70588">
        <ele>52</ele>
        <time>2015-08-06T15:13:57Z</time>
      </trkpt>
      <trkpt lat="43.42912" lon="3.70564">
        <ele>53</ele>
        <time>2015-08-06T15:14:02Z</time>
      </trkpt>
      <trkpt lat="43.42948" lon="3.70544">
        <ele>54</ele>
        <time>2015-08-06T15:14:08Z</time>
      </trkpt>
      <trkpt lat="43.42993" lon="3.70517">
        <ele>52</ele>
        <time>2015-08-06T15:14:13Z</time>
      </trkpt>
      <trkpt lat="43.43037" lon="3.70492">
        <ele>55</ele>
        <time>2015-08-06T15:14:19Z</time>
      </trkpt>
      <trkpt lat="43.43078" lon="3.7046">
        <ele>56</ele>
        <time>2015-08-06T15:14:25Z</time>
      </trkpt>
      <trkpt lat="43.43107" lon="3.70428">
        <ele>56</ele>
        <time>2015-08-06T15:14:31Z</time>
      </trkpt>
      <trkpt lat="43.43145" lon="3.70391">
        <ele>56</ele>
        <time>2015-08-06T15:14:37Z</time>
      </trkpt>
      <trkpt lat="43.4318" lon="3.7035">
        <ele>54</ele>
        <time>2015-08-06T15:14:42Z</time>
      </trkpt>
      <trkpt lat="43.43212" lon="3.70322">
        <ele>55</ele>
        <time>2015-08-06T15:14:47Z</time>
      </trkpt>
      <trkpt lat="43.43249" lon="3.70295">
        <ele>54</ele>
        <time>2015-08-06T15:14:53Z</time>
      </trkpt>
      <trkpt lat="43.43285" lon="3.70273">
        <ele>53</ele>
        <time>2015-08-06T15:14:58Z</time>
      </trkpt>
      <trkpt lat="43.4332" lon="3.70255">
        <ele>53</ele>
        <time>2015-08-06T15:15:04Z</time>
      </trkpt>
      <trkpt lat="43.43362" lon="3.70233">
        <ele>52</ele>
        <time>2015-08-06T15:15:09Z</time>
      </trkpt>
      <trkpt lat="43.43395" lon="3.70217">
        <ele>54</ele>
        <time>2015-08-06T15:15:14Z</time>
      </trkpt>
      <trkpt lat="43.4344" lon="3.70196">
        <ele>53</ele>
        <time>2015-08-06T15:15:20Z</time>
      </trkpt>
      <trkpt lat="43.43476" lon="3.70179">
        <ele>54</ele>
        <time>2015-08-06T15:15:25Z</time>
      </trkpt>
      <trkpt lat="43.4351" lon="3.7016">
        <ele>54</ele>
        <time>2015-08-06T15:15:30Z</time>
      </trkpt>
      <trkpt lat="43.43545" lon="3.70143">
        <ele>53</ele>
        <time>2015-08-06T15:15:35Z</time>
      </trkpt>
      <trkpt lat="43.43579" lon="3.70128">
        <ele>57</ele>
        <time>2015-08-06T15:15:40Z</time>
      </trkpt>
      <trkpt lat="43.43615" lon="3.70109">
        <ele>57</ele>
        <time>2015-08-06T15:15:46Z</time>
      </trkpt>
      <trkpt lat="43.43656" lon="3.7009">
        <ele>58</ele>
        <time>2015-08-06T15:15:52Z</time>
      </trkpt>
      <trkpt lat="43.43691" lon="3.70071">
        <ele>58</ele>
        <time>2015-08-06T15:15:57Z</time>
      </trkpt>
      <trkpt lat="43.43731" lon="3.70051">
        <ele>58</ele>
        <time>2015-08-06T15:16:03Z</time>
      </trkpt>
      <trkpt lat="43.43768" lon="3.70031">
        <ele>58</ele>
        <time>2015-08-06T15:16:08Z</time>
      </trkpt>
      <trkpt lat="43.43811" lon="3.70009">
        <ele>58</ele>
        <time>2015-08-06T15:16:13Z</time>
      </trkpt>
      <trkpt lat="43.43856" lon="3.69989">
        <ele>58</ele>
        <time>2015-08-06T15:16:19Z</time>
      </trkpt>
      <trkpt lat="43.43892" lon="3.69971">
        <ele>57</ele>
        <time>2015-08-06T15:16:24Z</time>
      </trkpt>
      <trkpt lat="43.43937" lon="3.69948">
        <ele>60</ele>
        <time>2015-08-06T15:16:30Z</time>
      </trkpt>
      <trkpt lat="43.43981" lon="3.69925">
        <ele>60</ele>
        <time>2015-08-06T15:16:36Z</time>
      </trkpt>
      <trkpt lat="43.44018" lon="3.69907">
        <ele>59</ele>
        <time>2015-08-06T15:16:42Z</time>
      </trkpt>
      <trkpt lat="43.44061" lon="3.69885">
        <ele>58</ele>
        <time>2015-08-06T15:16:48Z</time>
      </trkpt>
      <trkpt lat="43.441" lon="3.69865">
        <ele>58</ele>
        <time>2015-08-06T15:16:54Z</time>
      </trkpt>
      <trkpt lat="43.44132" lon="3.69845">
        <ele>56</ele>
        <time>2015-08-06T15:16:59Z</time>
      </trkpt>
      <trkpt lat="43.4417" lon="3.69822">
        <ele>55</ele>
        <time>2015-08-06T15:17:05Z</time>
      </trkpt>
      <trkpt lat="43.44208" lon="3.69794">
        <ele>55</ele>
        <time>2015-08-06T15:17:10Z</time>
      </trkpt>
      <trkpt lat="43.44238" lon="3.69772">
        <ele>55</ele>
        <time>2015-08-06T15:17:15Z</time>
      </trkpt>
      <trkpt lat="43.44274" lon="3.69742">
        <ele>55</ele>
        <time>2015-08-06T15:17:21Z</time>
      </trkpt>
      <trkpt lat="43.4431" lon="3.6971">
        <ele>52</ele>
        <time>2015-08-06T15:17:28Z</time>
      </trkpt>
      <trkpt lat="43.44343" lon="3.69678">
        <ele>51</ele>
        <time>2015-08-06T15:17:33Z</time>
      </trkpt>
      <trkpt lat="43.4437" lon="3.69652">
        <ele>53</ele>
        <time>2015-08-06T15:17:39Z</time>
      </trkpt>
      <trkpt lat="43.44404" lon="3.6962">
        <ele>55</ele>
        <time>2015-08-06T15:17:44Z</time>
      </trkpt>
      <trkpt lat="43.44433" lon="3.69589">
        <ele>56</ele>
        <time>2015-08-06T15:17:50Z</time>
      </trkpt>
      <trkpt lat="43.44471" lon="3.69555">
        <ele>54</ele>
        <time>2015-08-06T15:17:55Z</time>
      </trkpt>
      <trkpt lat="43.44501" lon="3.69525">
        <ele>54</ele>
        <time>2015-08-06T15:18:01Z</time>
      </trkpt>
      <trkpt lat="43.44538" lon="3.69495">
        <ele>55</ele>
        <time>2015-08-06T15:18:06Z</time>
      </trkpt>
      <trkpt lat="43.44565" lon="3.69468">
        <ele>57</ele>
        <time>2015-08-06T15:18:12Z</time>
      </trkpt>
      <trkpt lat="43.44592" lon="3.69434">
        <ele>58</ele>
        <time>2015-08-06T15:18:17Z</time>
      </trkpt>
      <trkpt lat="43.446" lon="3.69426">
        <ele>57</ele>
        <time>2015-08-06T15:18:22Z</time>
      </trkpt>
      <trkpt lat="43.44593" lon="3.69416">
        <ele>59</ele>
        <time>2015-08-06T15:18:28Z</time>
      </trkpt>
      <trkpt lat="43.44589" lon="3.69389">
        <ele>58</ele>
        <time>2015-08-06T15:18:33Z</time>
      </trkpt>
      <trkpt lat="43.44604" lon="3.69362">
        <ele>58</ele>
        <time>2015-08-06T15:18:39Z</time>
      </trkpt>
      <trkpt lat="43.44637" lon="3.69363">
        <ele>62</ele>
        <time>2015-08-06T15:18:44Z</time>
      </trkpt>
      <trkpt lat="43.44667" lon="3.69355">
        <ele>62</ele>
        <time>2015-08-06T15:18:50Z</time>
      </trkpt>
      <trkpt lat="43.44705" lon="3.69337">
        <ele>64</ele>
        <time>2015-08-06T15:18:56Z</time>
      </trkpt>
      <trkpt lat="43.44737" lon="3.6932">
        <ele>61</ele>
        <time>2015-08-06T15:19:02Z</time>
      </trkpt>
      <trkpt lat="43.44745" lon="3.69316">
        <ele>62</ele>
        <time>2015-08-06T15:19:08Z</time>
      </trkpt>
      <trkpt lat="43.44745" lon="3.69314">
        <ele>60</ele>
        <time>2015-08-06T15:19:13Z</time>
      </trkpt>
      <trkpt lat="43.44746" lon="3.69314">
        <ele>61</ele>
        <time>2015-08-06T15:19:19Z</time>
      </trkpt>
      <trkpt lat="43.44755" lon="3.6929">
        <ele>58</ele>
        <time>2015-08-06T15:19:25Z</time>
      </trkpt>
      <trkpt lat="43.44739" lon="3.69254">
        <ele>58</ele>
        <time>2015-08-06T15:19:31Z</time>
      </trkpt>
      <trkpt lat="43.44721" lon="3.69205">
        <ele>53</ele>
        <time>2015-08-06T15:19:36Z</time>
      </trkpt>
      <trkpt lat="43.4471" lon="3.6916">
        <ele>54</ele>
        <time>2015-08-06T15:19:42Z</time>
      </trkpt>
      <trkpt lat="43.44696" lon="3.69118">
        <ele>52</ele>
        <time>2015-08-06T15:19:48Z</time>
      </trkpt>
      <trkpt lat="43.44679" lon="3.69076">
        <ele>52</ele>
        <time>2015-08-06T15:19:53Z</time>
      </trkpt>
      <trkpt lat="43.44654" lon="3.69031">
        <ele>51</ele>
        <time>2015-08-06T15:19:59Z</time>
      </trkpt>
      <trkpt lat="43.44631" lon="3.68986">
        <ele>51</ele>
        <time>2015-08-06T15:20:05Z</time>
      </trkpt>
      <trkpt lat="43.44618" lon="3.68952">
        <ele>51</ele>
        <time>2015-08-06T15:20:11Z</time>
      </trkpt>
      <trkpt lat="43.44593" lon="3.68916">
        <ele>48</ele>
        <time>2015-08-06T15:20:16Z</time>
      </trkpt>
      <trkpt lat="43.4457" lon="3.68875">
        <ele>49</ele>
        <time>2015-08-06T15:20:21Z</time>
      </trkpt>
      <trkpt lat="43.44567" lon="3.68843">
        <ele>52</ele>
        <time>2015-08-06T15:20:26Z</time>
      </trkpt>
      <trkpt lat="43.4455" lon="3.68809">
        <ele>49</ele>
        <time>2015-08-06T15:20:31Z</time>
      </trkpt>
      <trkpt lat="43.44527" lon="3.6877">
        <ele>50</ele>
        <time>2015-08-06T15:20:37Z</time>
      </trkpt>
      <trkpt lat="43.44513" lon="3.68748">
        <ele>51</ele>
        <time>2015-08-06T15:20:42Z</time>
      </trkpt>
      <trkpt lat="43.4449" lon="3.68707">
        <ele>49</ele>
        <time>2015-08-06T15:20:48Z</time>
      </trkpt>
      <trkpt lat="43.44471" lon="3.68674">
        <ele>48</ele>
        <time>2015-08-06T15:20:53Z</time>
      </trkpt>
      <trkpt lat="43.44451" lon="3.68649">
        <ele>51</ele>
        <time>2015-08-06T15:20:58Z</time>
      </trkpt>
      <trkpt lat="43.44422" lon="3.68627">
        <ele>52</ele>
        <time>2015-08-06T15:21:04Z</time>
      </trkpt>
      <trkpt lat="43.4442" lon="3.68585">
        <ele>52</ele>
        <time>2015-08-06T15:21:10Z</time>
      </trkpt>
      <trkpt lat="43.44396" lon="3.68548">
        <ele>52</ele>
        <time>2015-08-06T15:21:15Z</time>
      </trkpt>
      <trkpt lat="43.44374" lon="3.6852">
        <ele>50</ele>
        <time>2015-08-06T15:21:21Z</time>
      </trkpt>
      <trkpt lat="43.44362" lon="3.6851">
        <ele>52</ele>
        <time>2015-08-06T15:21:26Z</time>
      </trkpt>
      <trkpt lat="43.44345" lon="3.68512">
        <ele>55</ele>
        <time>2015-08-06T15:21:31Z</time>
      </trkpt>
      <trkpt lat="43.44314" lon="3.68495">
        <ele>53</ele>
        <time>2015-08-06T15:21:37Z</time>
      </trkpt>
      <trkpt lat="43.44284" lon="3.68481">
        <ele>52</ele>
        <time>2015-08-06T15:21:44Z</time>
      </trkpt>
      <trkpt lat="43.44254" lon="3.6847">
        <ele>53</ele>
        <time>2015-08-06T15:21:49Z</time>
      </trkpt>
      <trkpt lat="43.44235" lon="3.68459">
        <ele>52</ele>
        <time>2015-08-06T15:21:54Z</time>
      </trkpt>
      <trkpt lat="43.44203" lon="3.68452">
        <ele>53</ele>
        <time>2015-08-06T15:22:00Z</time>
      </trkpt>
      <trkpt lat="43.44191" lon="3.68445">
        <ele>52</ele>
        <time>2015-08-06T15:22:05Z</time>
      </trkpt>
      <trkpt lat="43.44165" lon="3.6843">
        <ele>53</ele>
        <time>2015-08-06T15:22:11Z</time>
      </trkpt>
      <trkpt lat="43.44143" lon="3.68397">
        <ele>53</ele>
        <time>2015-08-06T15:22:18Z</time>
      </trkpt>
      <trkpt lat="43.44121" lon="3.68365">
        <ele>52</ele>
        <time>2015-08-06T15:22:23Z</time>
      </trkpt>
      <trkpt lat="43.44099" lon="3.6834">
        <ele>52</ele>
        <time>2015-08-06T15:22:28Z</time>
      </trkpt>
      <trkpt lat="43.44077" lon="3.68313">
        <ele>52</ele>
        <time>2015-08-06T15:22:34Z</time>
      </trkpt>
      <trkpt lat="43.44056" lon="3.68277">
        <ele>51</ele>
        <time>2015-08-06T15:22:40Z</time>
      </trkpt>
      <trkpt lat="43.44032" lon="3.68248">
        <ele>51</ele>
        <time>2015-08-06T15:22:46Z</time>
      </trkpt>
      <trkpt lat="43.44018" lon="3.68228">
        <ele>51</ele>
        <time>2015-08-06T15:22:52Z</time>
      </trkpt>
      <trkpt lat="43.44033" lon="3.68205">
        <ele>53</ele>
        <time>2015-08-06T15:22:57Z</time>
      </trkpt>
      <trkpt lat="43.44053" lon="3.68183">
        <ele>54</ele>
        <time>2015-08-06T15:23:02Z</time>
      </trkpt>
      <trkpt lat="43.44076" lon="3.68152">
        <ele>56</ele>
        <time>2015-08-06T15:23:08Z</time>
      </trkpt>
      <trkpt lat="43.44099" lon="3.68123">
        <ele>54</ele>
        <time>2015-08-06T15:23:15Z</time>
      </trkpt>
      <trkpt lat="43.44113" lon="3.68086">
        <ele>59</ele>
        <time>2015-08-06T15:23:20Z</time>
      </trkpt>
      <trkpt lat="43.44127" lon="3.68054">
        <ele>62</ele>
        <time>2015-08-06T15:23:25Z</time>
      </trkpt>
      <trkpt lat="43.44143" lon="3.68012">
        <ele>63</ele>
        <time>2015-08-06T15:23:31Z</time>
      </trkpt>
      <trkpt lat="43.4416" lon="3.67977">
        <ele>63</ele>
        <time>2015-08-06T15:23:37Z</time>
      </trkpt>
      <trkpt lat="43.44177" lon="3.67947">
        <ele>64</ele>
        <time>2015-08-06T15:23:43Z</time>
      </trkpt>
      <trkpt lat="43.44193" lon="3.67909">
        <ele>64</ele>
        <time>2015-08-06T15:23:48Z</time>
      </trkpt>
      <trkpt lat="43.44209" lon="3.67871">
        <ele>63</ele>
        <time>2015-08-06T15:23:54Z</time>
      </trkpt>
      <trkpt lat="43.44231" lon="3.67825">
        <ele>59</ele>
        <time>2015-08-06T15:23:59Z</time>
      </trkpt>
      <trkpt lat="43.44248" lon="3.67792">
        <ele>62</ele>
        <time>2015-08-06T15:24:05Z</time>
      </trkpt>
      <trkpt lat="43.44262" lon="3.6775">
        <ele>64</ele>
        <time>2015-08-06T15:24:10Z</time>
      </trkpt>
      <trkpt lat="43.4427" lon="3.67719">
        <ele>61</ele>
        <time>2015-08-06T15:24:16Z</time>
      </trkpt>
      <trkpt lat="43.44246" lon="3.67697">
        <ele>59</ele>
        <time>2015-08-06T15:24:21Z</time>
      </trkpt>
      <trkpt lat="43.44221" lon="3.67676">
        <ele>58</ele>
        <time>2015-08-06T15:24:27Z</time>
      </trkpt>
      <trkpt lat="43.44192" lon="3.67653">
        <ele>58</ele>
        <time>2015-08-06T15:24:32Z</time>
      </trkpt>
      <trkpt lat="43.44165" lon="3.67631">
        <ele>57</ele>
        <time>2015-08-06T15:24:38Z</time>
      </trkpt>
      <trkpt lat="43.44136" lon="3.67605">
        <ele>58</ele>
        <time>2015-08-06T15:24:43Z</time>
      </trkpt>
      <trkpt lat="43.44105" lon="3.67599">
        <ele>60</ele>
        <time>2015-08-06T15:24:49Z</time>
      </trkpt>
      <trkpt lat="43.44069" lon="3.67599">
        <ele>64</ele>
        <time>2015-08-06T15:24:54Z</time>
      </trkpt>
      <trkpt lat="43.44047" lon="3.67586">
        <ele>68</ele>
        <time>2015-08-06T15:25:00Z</time>
      </trkpt>
      <trkpt lat="43.44024" lon="3.6755">
        <ele>65</ele>
        <time>2015-08-06T15:25:05Z</time>
      </trkpt>
      <trkpt lat="43.44002" lon="3.67524">
        <ele>61</ele>
        <time>2015-08-06T15:25:11Z</time>
      </trkpt>
      <trkpt lat="43.4399" lon="3.6749">
        <ele>62</ele>
        <time>2015-08-06T15:25:16Z</time>
      </trkpt>
      <trkpt lat="43.43985" lon="3.6745">
        <ele>56</ele>
        <time>2015-08-06T15:25:22Z</time>
      </trkpt>
      <trkpt lat="43.4399" lon="3.6741">
        <ele>56</ele>
        <time>2015-08-06T15:25:27Z</time>
      </trkpt>
      <trkpt lat="43.43999" lon="3.6739">
        <ele>58</ele>
        <time>2015-08-06T15:25:33Z</time>
      </trkpt>
      <trkpt lat="43.44021" lon="3.67391">
        <ele>57</ele>
        <time>2015-08-06T15:25:38Z</time>
      </trkpt>
      <trkpt lat="43.44048" lon="3.67393">
        <ele>55</ele>
        <time>2015-08-06T15:25:44Z</time>
      </trkpt>
      <trkpt lat="43.44077" lon="3.67397">
        <ele>53</ele>
        <time>2015-08-06T15:25:50Z</time>
      </trkpt>
      <trkpt lat="43.441" lon="3.67396">
        <ele>54</ele>
        <time>2015-08-06T15:25:55Z</time>
      </trkpt>
      <trkpt lat="43.44129" lon="3.67399">
        <ele>52</ele>
        <time>2015-08-06T15:26:01Z</time>
      </trkpt>
      <trkpt lat="43.44158" lon="3.674">
        <ele>54</ele>
        <time>2015-08-06T15:26:06Z</time>
      </trkpt>
      <trkpt lat="43.44184" lon="3.67401">
        <ele>54</ele>
        <time>2015-08-06T15:26:12Z</time>
      </trkpt>
      <trkpt lat="43.44215" lon="3.674">
        <ele>55</ele>
        <time>2015-08-06T15:26:17Z</time>
      </trkpt>
      <trkpt lat="43.44235" lon="3.67403">
        <ele>57</ele>
        <time>2015-08-06T15:26:23Z</time>
      </trkpt>
      <trkpt lat="43.44243" lon="3.67419">
        <ele>59</ele>
        <time>2015-08-06T15:26:28Z</time>
      </trkpt>
      <trkpt lat="43.44262" lon="3.67422">
        <ele>62</ele>
        <time>2015-08-06T15:26:34Z</time>
      </trkpt>
      <trkpt lat="43.44291" lon="3.67441">
        <ele>61</ele>
        <time>2015-08-06T15:26:39Z</time>
      </trkpt>
      <trkpt lat="43.44319" lon="3.67444">
        <ele>62</ele>
        <time>2015-08-06T15:26:45Z</time>
      </trkpt>
      <trkpt lat="43.44349" lon="3.67456">
        <ele>64</ele>
        <time>2015-08-06T15:26:50Z</time>
      </trkpt>
      <trkpt lat="43.44373" lon="3.67472">
        <ele>62</ele>
        <time>2015-08-06T15:26:56Z</time>
      </trkpt>
      <trkpt lat="43.44408" lon="3.67489">
        <ele>57</ele>
        <time>2015-08-06T15:27:02Z</time>
      </trkpt>
      <trkpt lat="43.44435" lon="3.67511">
        <ele>60</ele>
        <time>2015-08-06T15:27:08Z</time>
      </trkpt>
      <trkpt lat="43.44465" lon="3.67534">
        <ele>57</ele>
        <time>2015-08-06T15:27:14Z</time>
      </trkpt>
      <trkpt lat="43.44491" lon="3.67553">
        <ele>60</ele>
        <time>2015-08-06T15:27:19Z</time>
      </trkpt>
      <trkpt lat="43.44519" lon="3.67578">
        <ele>60</ele>
        <time>2015-08-06T15:27:24Z</time>
      </trkpt>
      <trkpt lat="43.44539" lon="3.67602">
        <ele>59</ele>
        <time>2015-08-06T15:27:30Z</time>
      </trkpt>
      <trkpt lat="43.44541" lon="3.67645">
        <ele>59</ele>
        <time>2015-08-06T15:27:35Z</time>
      </trkpt>
      <trkpt lat="43.44528" lon="3.6768">
        <ele>57</ele>
        <time>2015-08-06T15:27:41Z</time>
      </trkpt>
      <trkpt lat="43.44512" lon="3.67722">
        <ele>57</ele>
        <time>2015-08-06T15:27:46Z</time>
      </trkpt>
      <trkpt lat="43.445" lon="3.67759">
        <ele>56</ele>
        <time>2015-08-06T15:27:52Z</time>
      </trkpt>
      <trkpt lat="43.44483" lon="3.67778">
        <ele>61</ele>
        <time>2015-08-06T15:27:57Z</time>
      </trkpt>
      <trkpt lat="43.44503" lon="3.67806">
        <ele>60</ele>
        <time>2015-08-06T15:28:03Z</time>
      </trkpt>
      <trkpt lat="43.44533" lon="3.67834">
        <ele>58</ele>
        <time>2015-08-06T15:28:09Z</time>
      </trkpt>
      <trkpt lat="43.44558" lon="3.67849">
        <ele>57</ele>
        <time>2015-08-06T15:28:14Z</time>
      </trkpt>
      <trkpt lat="43.44591" lon="3.6786">
        <ele>58</ele>
        <time>2015-08-06T15:28:20Z</time>
      </trkpt>
      <trkpt lat="43.44624" lon="3.67863">
        <ele>59</ele>
        <time>2015-08-06T15:28:26Z</time>
      </trkpt>
      <trkpt lat="43.44653" lon="3.67866">
        <ele>61</ele>
        <time>2015-08-06T15:28:31Z</time>
      </trkpt>
      <trkpt lat="43.44684" lon="3.67866">
        <ele>62</ele>
        <time>2015-08-06T15:28:37Z</time>
      </trkpt>
      <trkpt lat="43.44714" lon="3.67871">
        <ele>60</ele>
        <time>2015-08-06T15:28:42Z</time>
      </trkpt>
      <trkpt lat="43.4475" lon="3.67877">
        <ele>60</ele>
        <time>2015-08-06T15:28:47Z</time>
      </trkpt>
      <trkpt lat="43.4478" lon="3.67879">
        <ele>62</ele>
        <time>2015-08-06T15:28:52Z</time>
      </trkpt>
      <trkpt lat="43.4481" lon="3.67875">
        <ele>62</ele>
        <time>2015-08-06T15:28:58Z</time>
      </trkpt>
      <trkpt lat="43.44842" lon="3.67884">
        <ele>61</ele>
        <time>2015-08-06T15:29:04Z</time>
      </trkpt>
      <trkpt lat="43.44873" lon="3.67899">
        <ele>61</ele>
        <time>2015-08-06T15:29:09Z</time>
      </trkpt>
      <trkpt lat="43.44908" lon="3.67912">
        <ele>59</ele>
        <time>2015-08-06T15:29:15Z</time>
      </trkpt>
      <trkpt lat="43.44939" lon="3.67921">
        <ele>58</ele>
        <time>2015-08-06T15:29:21Z</time>
      </trkpt>
      <trkpt lat="43.44943" lon="3.67934">
        <ele>61</ele>
        <time>2015-08-06T15:29:27Z</time>
      </trkpt>
      <trkpt lat="43.44953" lon="3.67933">
        <ele>62</ele>
        <time>2015-08-06T15:29:32Z</time>
      </trkpt>
      <trkpt lat="43.4497" lon="3.67934">
        <ele>64</ele>
        <time>2015-08-06T15:29:37Z</time>
      </trkpt>
      <trkpt lat="43.44992" lon="3.67942">
        <ele>63</ele>
        <time>2015-08-06T15:29:43Z</time>
      </trkpt>
      <trkpt lat="43.45016" lon="3.6795">
        <ele>63</ele>
        <time>2015-08-06T15:29:48Z</time>
      </trkpt>
      <trkpt lat="43.45043" lon="3.6796">
        <ele>62</ele>
        <time>2015-08-06T15:29:54Z</time>
      </trkpt>
      <trkpt lat="43.45065" lon="3.6797">
        <ele>64</ele>
        <time>2015-08-06T15:29:59Z</time>
      </trkpt>
      <trkpt lat="43.45095" lon="3.67979">
        <ele>65</ele>
        <time>2015-08-06T15:30:04Z</time>
      </trkpt>
      <trkpt lat="43.45127" lon="3.67992">
        <ele>67</ele>
        <time>2015-08-06T15:30:10Z</time>
      </trkpt>
      <trkpt lat="43.45159" lon="3.68004">
        <ele>67</ele>
        <time>2015-08-06T15:30:16Z</time>
      </trkpt>
      <trkpt lat="43.45191" lon="3.68009">
        <ele>70</ele>
        <time>2015-08-06T15:30:22Z</time>
      </trkpt>
      <trkpt lat="43.45216" lon="3.68014">
        <ele>68</ele>
        <time>2015-08-06T15:30:27Z</time>
      </trkpt>
      <trkpt lat="43.45247" lon="3.68032">
        <ele>69</ele>
        <time>2015-08-06T15:30:33Z</time>
      </trkpt>
      <trkpt lat="43.45277" lon="3.68056">
        <ele>67</ele>
        <time>2015-08-06T15:30:39Z</time>
      </trkpt>
      <trkpt lat="43.45308" lon="3.68084">
        <ele>67</ele>
        <time>2015-08-06T15:30:46Z</time>
      </trkpt>
      <trkpt lat="43.45341" lon="3.68109">
        <ele>68</ele>
        <time>2015-08-06T15:30:51Z</time>
      </trkpt>
      <trkpt lat="43.45368" lon="3.68123">
        <ele>71</ele>
        <time>2015-08-06T15:30:56Z</time>
      </trkpt>
      <trkpt lat="43.45396" lon="3.68142">
        <ele>72</ele>
        <time>2015-08-06T15:31:02Z</time>
      </trkpt>
      <trkpt lat="43.45429" lon="3.68162">
        <ele>71</ele>
        <time>2015-08-06T15:31:07Z</time>
      </trkpt>
      <trkpt lat="43.45457" lon="3.68182">
        <ele>71</ele>
        <time>2015-08-06T15:31:13Z</time>
      </trkpt>
      <trkpt lat="43.45489" lon="3.68206">
        <ele>70</ele>
        <time>2015-08-06T15:31:18Z</time>
      </trkpt>
      <trkpt lat="43.45515" lon="3.68224">
        <ele>71</ele>
        <time>2015-08-06T15:31:24Z</time>
      </trkpt>
      <trkpt lat="43.4555" lon="3.68242">
        <ele>72</ele>
        <time>2015-08-06T15:31:29Z</time>
      </trkpt>
      <trkpt lat="43.4558" lon="3.68254">
        <ele>72</ele>
        <time>2015-08-06T15:31:35Z</time>
      </trkpt>
      <trkpt lat="43.45617" lon="3.68274">
        <ele>71</ele>
        <time>2015-08-06T15:31:41Z</time>
      </trkpt>
      <trkpt lat="43.45645" lon="3.68301">
        <ele>69</ele>
        <time>2015-08-06T15:31:46Z</time>
      </trkpt>
      <trkpt lat="43.45678" lon="3.6833">
        <ele>71</ele>
        <time>2015-08-06T15:31:51Z</time>
      </trkpt>
      <trkpt lat="43.45704" lon="3.68356">
        <ele>71</ele>
        <time>2015-08-06T15:31:57Z</time>
      </trkpt>
      <trkpt lat="43.45739" lon="3.6838">
        <ele>71</ele>
        <time>2015-08-06T15:32:02Z</time>
      </trkpt>
      <trkpt lat="43.45761" lon="3.68405">
        <ele>71</ele>
        <time>2015-08-06T15:32:08Z</time>
      </trkpt>
      <trkpt lat="43.4578" lon="3.68414">
        <ele>74</ele>
        <time>2015-08-06T15:32:13Z</time>
      </trkpt>
      <trkpt lat="43.45806" lon="3.68411">
        <ele>76</ele>
        <time>2015-08-06T15:32:18Z</time>
      </trkpt>
      <trkpt lat="43.45839" lon="3.68408">
        <ele>67</ele>
        <time>2015-08-06T15:32:24Z</time>
      </trkpt>
      <trkpt lat="43.45865" lon="3.68405">
        <ele>68</ele>
        <time>2015-08-06T15:32:29Z</time>
      </trkpt>
      <trkpt lat="43.45895" lon="3.68424">
        <ele>67</ele>
        <time>2015-08-06T15:32:35Z</time>
      </trkpt>
      <trkpt lat="43.45924" lon="3.68447">
        <ele>65</ele>
        <time>2015-08-06T15:32:41Z</time>
      </trkpt>
      <trkpt lat="43.45941" lon="3.68469">
        <ele>65</ele>
        <time>2015-08-06T15:32:46Z</time>
      </trkpt>
      <trkpt lat="43.45972" lon="3.68495">
        <ele>62</ele>
        <time>2015-08-06T15:32:52Z</time>
      </trkpt>
      <trkpt lat="43.45987" lon="3.68517">
        <ele>67</ele>
        <time>2015-08-06T15:32:57Z</time>
      </trkpt>
      <trkpt lat="43.46017" lon="3.68542">
        <ele>66</ele>
        <time>2015-08-06T15:33:03Z</time>
      </trkpt>
      <trkpt lat="43.46049" lon="3.68541">
        <ele>72</ele>
        <time>2015-08-06T15:33:09Z</time>
      </trkpt>
      <trkpt lat="43.46073" lon="3.68557">
        <ele>71</ele>
        <time>2015-08-06T15:33:15Z</time>
      </trkpt>
      <trkpt lat="43.46065" lon="3.68608">
        <ele>71</ele>
        <time>2015-08-06T15:33:21Z</time>
      </trkpt>
      <trkpt lat="43.46069" lon="3.68633">
        <ele>69</ele>
        <time>2015-08-06T15:33:26Z</time>
      </trkpt>
      <trkpt lat="43.46082" lon="3.68631">
        <ele>69</ele>
        <time>2015-08-06T15:33:31Z</time>
      </trkpt>
      <trkpt lat="43.461" lon="3.68597">
        <ele>66</ele>
        <time>2015-08-06T15:33:37Z</time>
      </trkpt>
      <trkpt lat="43.46116" lon="3.6855">
        <ele>64</ele>
        <time>2015-08-06T15:33:42Z</time>
      </trkpt>
      <trkpt lat="43.46114" lon="3.68487">
        <ele>64</ele>
        <time>2015-08-06T15:33:48Z</time>
      </trkpt>
      <trkpt lat="43.4614" lon="3.68443">
        <ele>61</ele>
        <time>2015-08-06T15:33:54Z</time>
      </trkpt>
      <trkpt lat="43.46176" lon="3.68457">
        <ele>60</ele>
        <time>2015-08-06T15:33:59Z</time>
      </trkpt>
      <trkpt lat="43.46223" lon="3.68472">
        <ele>57</ele>
        <time>2015-08-06T15:34:05Z</time>
      </trkpt>
      <trkpt lat="43.46269" lon="3.68482">
        <ele>56</ele>
        <time>2015-08-06T15:34:11Z</time>
      </trkpt>
      <trkpt lat="43.46301" lon="3.68476">
        <ele>55</ele>
        <time>2015-08-06T15:34:17Z</time>
      </trkpt>
      <trkpt lat="43.46342" lon="3.68475">
        <ele>51</ele>
        <time>2015-08-06T15:34:23Z</time>
      </trkpt>
      <trkpt lat="43.46381" lon="3.68475">
        <ele>51</ele>
        <time>2015-08-06T15:34:29Z</time>
      </trkpt>
      <trkpt lat="43.46419" lon="3.68473">
        <ele>51</ele>
        <time>2015-08-06T15:34:35Z</time>
      </trkpt>
      <trkpt lat="43.46457" lon="3.68468">
        <ele>51</ele>
        <time>2015-08-06T15:34:41Z</time>
      </trkpt>
      <trkpt lat="43.46498" lon="3.68464">
        <ele>54</ele>
        <time>2015-08-06T15:34:46Z</time>
      </trkpt>
      <trkpt lat="43.46529" lon="3.68461">
        <ele>56</ele>
        <time>2015-08-06T15:34:51Z</time>
      </trkpt>
      <trkpt lat="43.46569" lon="3.68461">
        <ele>58</ele>
        <time>2015-08-06T15:34:57Z</time>
      </trkpt>
      <trkpt lat="43.46602" lon="3.68466">
        <ele>57</ele>
        <time>2015-08-06T15:35:03Z</time>
      </trkpt>
      <trkpt lat="43.4664" lon="3.68486">
        <ele>58</ele>
        <time>2015-08-06T15:35:08Z</time>
      </trkpt>
      <trkpt lat="43.4668" lon="3.68511">
        <ele>58</ele>
        <time>2015-08-06T15:35:15Z</time>
      </trkpt>
      <trkpt lat="43.46715" lon="3.68538">
        <ele>58</ele>
        <time>2015-08-06T15:35:20Z</time>
      </trkpt>
      <trkpt lat="43.46739" lon="3.68567">
        <ele>59</ele>
        <time>2015-08-06T15:35:26Z</time>
      </trkpt>
      <trkpt lat="43.46773" lon="3.68583">
        <ele>60</ele>
        <time>2015-08-06T15:35:31Z</time>
      </trkpt>
      <trkpt lat="43.46805" lon="3.6857">
        <ele>59</ele>
        <time>2015-08-06T15:35:37Z</time>
      </trkpt>
      <trkpt lat="43.46846" lon="3.68539">
        <ele>58</ele>
        <time>2015-08-06T15:35:42Z</time>
      </trkpt>
      <trkpt lat="43.46875" lon="3.68501">
        <ele>56</ele>
        <time>2015-08-06T15:35:48Z</time>
      </trkpt>
      <trkpt lat="43.4691" lon="3.68462">
        <ele>59</ele>
        <time>2015-08-06T15:35:53Z</time>
      </trkpt>
      <trkpt lat="43.46936" lon="3.68428">
        <ele>59</ele>
        <time>2015-08-06T15:35:59Z</time>
      </trkpt>
      <trkpt lat="43.46963" lon="3.68384">
        <ele>56</ele>
        <time>2015-08-06T15:36:04Z</time>
      </trkpt>
      <trkpt lat="43.46985" lon="3.68351">
        <ele>57</ele>
        <time>2015-08-06T15:36:10Z</time>
      </trkpt>
      <trkpt lat="43.47006" lon="3.6832">
        <ele>57</ele>
        <time>2015-08-06T15:36:15Z</time>
      </trkpt>
      <trkpt lat="43.47018" lon="3.68303">
        <ele>56</ele>
        <time>2015-08-06T15:36:21Z</time>
      </trkpt>
      <trkpt lat="43.47017" lon="3.68281">
        <ele>57</ele>
        <time>2015-08-06T15:36:26Z</time>
      </trkpt>
      <trkpt lat="43.47014" lon="3.6825">
        <ele>56</ele>
        <time>2015-08-06T15:36:32Z</time>
      </trkpt>
      <trkpt lat="43.47006" lon="3.68215">
        <ele>56</ele>
        <time>2015-08-06T15:36:37Z</time>
      </trkpt>
      <trkpt lat="43.46994" lon="3.68173">
        <ele>56</ele>
        <time>2015-08-06T15:36:43Z</time>
      </trkpt>
      <trkpt lat="43.46976" lon="3.68132">
        <ele>55</ele>
        <time>2015-08-06T15:36:48Z</time>
      </trkpt>
      <trkpt lat="43.46957" lon="3.68098">
        <ele>54</ele>
        <time>2015-08-06T15:36:53Z</time>
      </trkpt>
      <trkpt lat="43.46935" lon="3.68067">
        <ele>55</ele>
        <time>2015-08-06T15:36:59Z</time>
      </trkpt>
      <trkpt lat="43.46909" lon="3.68029">
        <ele>56</ele>
        <time>2015-08-06T15:37:04Z</time>
      </trkpt>
      <trkpt lat="43.46887" lon="3.67999">
        <ele>55</ele>
        <time>2015-08-06T15:37:10Z</time>
      </trkpt>
      <trkpt lat="43.46859" lon="3.67965">
        <ele>53</ele>
        <time>2015-08-06T15:37:15Z</time>
      </trkpt>
      <trkpt lat="43.46837" lon="3.67935">
        <ele>53</ele>
        <time>2015-08-06T15:37:21Z</time>
      </trkpt>
      <trkpt lat="43.4681" lon="3.67899">
        <ele>54</ele>
        <time>2015-08-06T15:37:26Z</time>
      </trkpt>
      <trkpt lat="43.46787" lon="3.67869">
        <ele>56</ele>
        <time>2015-08-06T15:37:32Z</time>
      </trkpt>
      <trkpt lat="43.46757" lon="3.67829">
        <ele>55</ele>
        <time>2015-08-06T15:37:37Z</time>
      </trkpt>
      <trkpt lat="43.46734" lon="3.67799">
        <ele>56</ele>
        <time>2015-08-06T15:37:43Z</time>
      </trkpt>
      <trkpt lat="43.46706" lon="3.67761">
        <ele>57</ele>
        <time>2015-08-06T15:37:48Z</time>
      </trkpt>
      <trkpt lat="43.46682" lon="3.67733">
        <ele>56</ele>
        <time>2015-08-06T15:37:53Z</time>
      </trkpt>
      <trkpt lat="43.46657" lon="3.67702">
        <ele>55</ele>
        <time>2015-08-06T15:37:59Z</time>
      </trkpt>
      <trkpt lat="43.46631" lon="3.67666">
        <ele>54</ele>
        <time>2015-08-06T15:38:04Z</time>
      </trkpt>
      <trkpt lat="43.46611" lon="3.67635">
        <ele>54</ele>
        <time>2015-08-06T15:38:09Z</time>
      </trkpt>
      <trkpt lat="43.46584" lon="3.67595">
        <ele>55</ele>
        <time>2015-08-06T15:38:15Z</time>
      </trkpt>
      <trkpt lat="43.46554" lon="3.67565">
        <ele>55</ele>
        <time>2015-08-06T15:38:20Z</time>
      </trkpt>
      <trkpt lat="43.46527" lon="3.67532">
        <ele>56</ele>
        <time>2015-08-06T15:38:26Z</time>
      </trkpt>
      <trkpt lat="43.46498" lon="3.67493">
        <ele>56</ele>
        <time>2015-08-06T15:38:31Z</time>
      </trkpt>
      <trkpt lat="43.46475" lon="3.67462">
        <ele>56</ele>
        <time>2015-08-06T15:38:36Z</time>
      </trkpt>
      <trkpt lat="43.46446" lon="3.67425">
        <ele>55</ele>
        <time>2015-08-06T15:38:42Z</time>
      </trkpt>
      <trkpt lat="43.46416" lon="3.67388">
        <ele>54</ele>
        <time>2015-08-06T15:38:48Z</time>
      </trkpt>
      <trkpt lat="43.4639" lon="3.67358">
        <ele>54</ele>
        <time>2015-08-06T15:38:53Z</time>
      </trkpt>
      <trkpt lat="43.46365" lon="3.67326">
        <ele>53</ele>
        <time>2015-08-06T15:38:58Z</time>
      </trkpt>
      <trkpt lat="43.46343" lon="3.67297">
        <ele>54</ele>
        <time>2015-08-06T15:39:04Z</time>
      </trkpt>
      <trkpt lat="43.46313" lon="3.67258">
        <ele>53</ele>
        <time>2015-08-06T15:39:10Z</time>
      </trkpt>
      <trkpt lat="43.46283" lon="3.6722">
        <ele>53</ele>
        <time>2015-08-06T15:39:15Z</time>
      </trkpt>
      <trkpt lat="43.46261" lon="3.67189">
        <ele>53</ele>
        <time>2015-08-06T15:39:20Z</time>
      </trkpt>
      <trkpt lat="43.46232" lon="3.67152">
        <ele>53</ele>
        <time>2015-08-06T15:39:27Z</time>
      </trkpt>
      <trkpt lat="43.46203" lon="3.67117">
        <ele>52</ele>
        <time>2015-08-06T15:39:32Z</time>
      </trkpt>
      <trkpt lat="43.46179" lon="3.67085">
        <ele>52</ele>
        <time>2015-08-06T15:39:37Z</time>
      </trkpt>
      <trkpt lat="43.46157" lon="3.67051">
        <ele>53</ele>
        <time>2015-08-06T15:39:43Z</time>
      </trkpt>
      <trkpt lat="43.46131" lon="3.67019">
        <ele>53</ele>
        <time>2015-08-06T15:39:48Z</time>
      </trkpt>
      <trkpt lat="43.461" lon="3.66983">
        <ele>53</ele>
        <time>2015-08-06T15:39:54Z</time>
      </trkpt>
      <trkpt lat="43.46076" lon="3.66951">
        <ele>55</ele>
        <time>2015-08-06T15:40:00Z</time>
      </trkpt>
      <trkpt lat="43.46051" lon="3.66916">
        <ele>56</ele>
        <time>2015-08-06T15:40:05Z</time>
      </trkpt>
      <trkpt lat="43.46028" lon="3.66887">
        <ele>55</ele>
        <time>2015-08-06T15:40:11Z</time>
      </trkpt>
      <trkpt lat="43.45998" lon="3.66854">
        <ele>55</ele>
        <time>2015-08-06T15:40:16Z</time>
      </trkpt>
      <trkpt lat="43.45975" lon="3.66828">
        <ele>54</ele>
        <time>2015-08-06T15:40:22Z</time>
      </trkpt>
      <trkpt lat="43.45945" lon="3.66797">
        <ele>55</ele>
        <time>2015-08-06T15:40:27Z</time>
      </trkpt>
      <trkpt lat="43.45918" lon="3.66775">
        <ele>54</ele>
        <time>2015-08-06T15:40:33Z</time>
      </trkpt>
      <trkpt lat="43.45883" lon="3.6675">
        <ele>53</ele>
        <time>2015-08-06T15:40:38Z</time>
      </trkpt>
      <trkpt lat="43.45854" lon="3.66732">
        <ele>54</ele>
        <time>2015-08-06T15:40:44Z</time>
      </trkpt>
      <trkpt lat="43.45821" lon="3.66707">
        <ele>53</ele>
        <time>2015-08-06T15:40:49Z</time>
      </trkpt>
      <trkpt lat="43.4579" lon="3.66688">
        <ele>53</ele>
        <time>2015-08-06T15:40:54Z</time>
      </trkpt>
      <trkpt lat="43.45767" lon="3.66668">
        <ele>54</ele>
        <time>2015-08-06T15:41:00Z</time>
      </trkpt>
      <trkpt lat="43.45734" lon="3.66653">
        <ele>53</ele>
        <time>2015-08-06T15:41:05Z</time>
      </trkpt>
      <trkpt lat="43.45708" lon="3.66639">
        <ele>53</ele>
        <time>2015-08-06T15:41:11Z</time>
      </trkpt>
      <trkpt lat="43.45672" lon="3.66616">
        <ele>53</ele>
        <time>2015-08-06T15:41:16Z</time>
      </trkpt>
      <trkpt lat="43.45646" lon="3.66597">
        <ele>53</ele>
        <time>2015-08-06T15:41:22Z</time>
      </trkpt>
      <trkpt lat="43.45612" lon="3.66573">
        <ele>54</ele>
        <time>2015-08-06T15:41:27Z</time>
      </trkpt>
      <trkpt lat="43.45584" lon="3.66556">
        <ele>57</ele>
        <time>2015-08-06T15:41:33Z</time>
      </trkpt>
      <trkpt lat="43.4555" lon="3.66536">
        <ele>57</ele>
        <time>2015-08-06T15:41:38Z</time>
      </trkpt>
      <trkpt lat="43.45526" lon="3.66519">
        <ele>56</ele>
        <time>2015-08-06T15:41:44Z</time>
      </trkpt>
      <trkpt lat="43.45491" lon="3.66498">
        <ele>56</ele>
        <time>2015-08-06T15:41:49Z</time>
      </trkpt>
      <trkpt lat="43.45457" lon="3.66479">
        <ele>54</ele>
        <time>2015-08-06T15:41:55Z</time>
      </trkpt>
      <trkpt lat="43.45428" lon="3.66463">
        <ele>53</ele>
        <time>2015-08-06T15:42:00Z</time>
      </trkpt>
      <trkpt lat="43.45397" lon="3.66449">
        <ele>54</ele>
        <time>2015-08-06T15:42:05Z</time>
      </trkpt>
      <trkpt lat="43.45368" lon="3.66424">
        <ele>56</ele>
        <time>2015-08-06T15:42:11Z</time>
      </trkpt>
      <trkpt lat="43.45338" lon="3.66399">
        <ele>59</ele>
        <time>2015-08-06T15:42:17Z</time>
      </trkpt>
      <trkpt lat="43.45309" lon="3.66368">
        <ele>58</ele>
        <time>2015-08-06T15:42:23Z</time>
      </trkpt>
      <trkpt lat="43.45281" lon="3.66334">
        <ele>61</ele>
        <time>2015-08-06T15:42:29Z</time>
      </trkpt>
      <trkpt lat="43.45258" lon="3.6629">
        <ele>62</ele>
        <time>2015-08-06T15:42:35Z</time>
      </trkpt>
      <trkpt lat="43.4524" lon="3.6625">
        <ele>61</ele>
        <time>2015-08-06T15:42:40Z</time>
      </trkpt>
      <trkpt lat="43.45224" lon="3.662">
        <ele>60</ele>
        <time>2015-08-06T15:42:46Z</time>
      </trkpt>
      <trkpt lat="43.45214" lon="3.66149">
        <ele>62</ele>
        <time>2015-08-06T15:42:53Z</time>
      </trkpt>
      <trkpt lat="43.4521" lon="3.66095">
        <ele>62</ele>
        <time>2015-08-06T15:42:58Z</time>
      </trkpt>
      <trkpt lat="43.4521" lon="3.66049">
        <ele>61</ele>
        <time>2015-08-06T15:43:03Z</time>
      </trkpt>
      <trkpt lat="43.45207" lon="3.65997">
        <ele>63</ele>
        <time>2015-08-06T15:43:09Z</time>
      </trkpt>
      <trkpt lat="43.45206" lon="3.65959">
        <ele>67</ele>
        <time>2015-08-06T15:43:14Z</time>
      </trkpt>
      <trkpt lat="43.45204" lon="3.65904">
        <ele>68</ele>
        <time>2015-08-06T15:43:20Z</time>
      </trkpt>
      <trkpt lat="43.45204" lon="3.65856">
        <ele>67</ele>
        <time>2015-08-06T15:43:25Z</time>
      </trkpt>
      <trkpt lat="43.45202" lon="3.65803">
        <ele>67</ele>
        <time>2015-08-06T15:43:31Z</time>
      </trkpt>
      <trkpt lat="43.452" lon="3.65751">
        <ele>66</ele>
        <time>2015-08-06T15:43:37Z</time>
      </trkpt>
      <trkpt lat="43.452" lon="3.65696">
        <ele>66</ele>
        <time>2015-08-06T15:43:44Z</time>
      </trkpt>
      <trkpt lat="43.45199" lon="3.65645">
        <ele>66</ele>
        <time>2015-08-06T15:43:49Z</time>
      </trkpt>
      <trkpt lat="43.45198" lon="3.65601">
        <ele>66</ele>
        <time>2015-08-06T15:43:54Z</time>
      </trkpt>
      <trkpt lat="43.45195" lon="3.65556">
        <ele>65</ele>
        <time>2015-08-06T15:43:59Z</time>
      </trkpt>
      <trkpt lat="43.45191" lon="3.65515">
        <ele>65</ele>
        <time>2015-08-06T15:44:05Z</time>
      </trkpt>
      <trkpt lat="43.45189" lon="3.6549">
        <ele>66</ele>
        <time>2015-08-06T15:44:10Z</time>
      </trkpt>
      <trkpt lat="43.45189" lon="3.65492">
        <ele>67</ele>
        <time>2015-08-06T15:44:16Z</time>
      </trkpt>
      <trkpt lat="43.45188" lon="3.65493">
        <ele>67</ele>
        <time>2015-08-06T15:44:21Z</time>
      </trkpt>
      <trkpt lat="43.45188" lon="3.65493">
        <ele>67</ele>
        <time>2015-08-06T15:44:26Z</time>
      </trkpt>
      <trkpt lat="43.45188" lon="3.65493">
        <ele>67</ele>
        <time>2015-08-06T15:44:32Z</time>
      </trkpt>
      <trkpt lat="43.45188" lon="3.65493">
        <ele>67</ele>
        <time>2015-08-06T15:44:37Z</time>
      </trkpt>
      <trkpt lat="43.45188" lon="3.65493">
        <ele>67</ele>
        <time>2015-08-06T15:44:42Z</time>
      </trkpt>
      <trkpt lat="43.45188" lon="3.65493">
        <ele>67</ele>
        <time>2015-08-06T15:44:48Z</time>
      </trkpt>
      <trkpt lat="43.45188" lon="3.65493">
        <ele>67</ele>
        <time>2015-08-06T15:44:53Z</time>
      </trkpt>
      <trkpt lat="43.45188" lon="3.65493">
        <ele>67</ele>
        <time>2015-08-06T15:44:58Z</time>
      </trkpt>
      <trkpt lat="43.45188" lon="3.65493">
        <ele>67</ele>
        <time>2015-08-06T15:45:04Z</time>
      </trkpt>
      <trkpt lat="43.45188" lon="3.65493">
        <ele>67</ele>
        <time>2015-08-06T15:45:09Z</time>
      </trkpt>
      <trkpt lat="43.45188" lon="3.65493">
        <ele>67</ele>
        <time>2015-08-06T15:45:15Z</time>
      </trkpt>
      <trkpt lat="43.45188" lon="3.65493">
        <ele>68</ele>
        <time>2015-08-06T15:45:21Z</time>
      </trkpt>
      <trkpt lat="43.45188" lon="3.65493">
        <ele>68</ele>
        <time>2015-08-06T15:45:27Z</time>
      </trkpt>
      <trkpt lat="43.45188" lon="3.65493">
        <ele>68</ele>
        <time>2015-08-06T15:45:32Z</time>
      </trkpt>
      <trkpt lat="43.45188" lon="3.65493">
        <ele>68</ele>
        <time>2015-08-06T15:45:38Z</time>
      </trkpt>
      <trkpt lat="43.45188" lon="3.65493">
        <ele>68</ele>
        <time>2015-08-06T15:45:44Z</time>
      </trkpt>
      <trkpt lat="43.45185" lon="3.65491">
        <ele>69</ele>
        <time>2015-08-06T15:45:50Z</time>
      </trkpt>
      <trkpt lat="43.45176" lon="3.65489">
        <ele>69</ele>
        <time>2015-08-06T15:45:56Z</time>
      </trkpt>
      <trkpt lat="43.45155" lon="3.65491">
        <ele>70</ele>
        <time>2015-08-06T15:46:01Z</time>
      </trkpt>
      <trkpt lat="43.45159" lon="3.65447">
        <ele>69</ele>
        <time>2015-08-06T15:46:06Z</time>
      </trkpt>
      <trkpt lat="43.45156" lon="3.65407">
        <ele>68</ele>
        <time>2015-08-06T15:46:12Z</time>
      </trkpt>
      <trkpt lat="43.45162" lon="3.65361">
        <ele>68</ele>
        <time>2015-08-06T15:46:17Z</time>
      </trkpt>
      <trkpt lat="43.45166" lon="3.65322">
        <ele>67</ele>
        <time>2015-08-06T15:46:23Z</time>
      </trkpt>
      <trkpt lat="43.45171" lon="3.65274">
        <ele>67</ele>
        <time>2015-08-06T15:46:28Z</time>
      </trkpt>
      <trkpt lat="43.45164" lon="3.65231">
        <ele>67</ele>
        <time>2015-08-06T15:46:34Z</time>
      </trkpt>
      <trkpt lat="43.45146" lon="3.65179">
        <ele>68</ele>
        <time>2015-08-06T15:46:39Z</time>
      </trkpt>
      <trkpt lat="43.45131" lon="3.65135">
        <ele>68</ele>
        <time>2015-08-06T15:46:45Z</time>
      </trkpt>
      <trkpt lat="43.45111" lon="3.65081">
        <ele>64</ele>
        <time>2015-08-06T15:46:50Z</time>
      </trkpt>
      <trkpt lat="43.45093" lon="3.6504">
        <ele>64</ele>
        <time>2015-08-06T15:46:55Z</time>
      </trkpt>
      <trkpt lat="43.45069" lon="3.6499">
        <ele>61</ele>
        <time>2015-08-06T15:47:01Z</time>
      </trkpt>
      <trkpt lat="43.45047" lon="3.6494">
        <ele>60</ele>
        <time>2015-08-06T15:47:08Z</time>
      </trkpt>
      <trkpt lat="43.45026" lon="3.64891">
        <ele>60</ele>
        <time>2015-08-06T15:47:14Z</time>
      </trkpt>
      <trkpt lat="43.45007" lon="3.64846">
        <ele>58</ele>
        <time>2015-08-06T15:47:20Z</time>
      </trkpt>
      <trkpt lat="43.44991" lon="3.6481">
        <ele>58</ele>
        <time>2015-08-06T15:47:25Z</time>
      </trkpt>
      <trkpt lat="43.44973" lon="3.64773">
        <ele>58</ele>
        <time>2015-08-06T15:47:30Z</time>
      </trkpt>
      <trkpt lat="43.44959" lon="3.64745">
        <ele>59</ele>
        <time>2015-08-06T15:47:35Z</time>
      </trkpt>
      <trkpt lat="43.44964" lon="3.6476">
        <ele>58</ele>
        <time>2015-08-06T15:47:40Z</time>
      </trkpt>
      <trkpt lat="43.44984" lon="3.64755">
        <ele>61</ele>
        <time>2015-08-06T15:47:46Z</time>
      </trkpt>
      <trkpt lat="43.45004" lon="3.6474">
        <ele>63</ele>
        <time>2015-08-06T15:47:51Z</time>
      </trkpt>
      <trkpt lat="43.45025" lon="3.64704">
        <ele>66</ele>
        <time>2015-08-06T15:47:57Z</time>
      </trkpt>
      <trkpt lat="43.45038" lon="3.64677">
        <ele>61</ele>
        <time>2015-08-06T15:48:02Z</time>
      </trkpt>
      <trkpt lat="43.45058" lon="3.64649">
        <ele>64</ele>
        <time>2015-08-06T15:48:07Z</time>
      </trkpt>
      <trkpt lat="43.45063" lon="3.64617">
        <ele>65</ele>
        <time>2015-08-06T15:48:12Z</time>
      </trkpt>
      <trkpt lat="43.45052" lon="3.64583">
        <ele>63</ele>
        <time>2015-08-06T15:48:18Z</time>
      </trkpt>
      <trkpt lat="43.45039" lon="3.64553">
        <ele>68</ele>
        <time>2015-08-06T15:48:24Z</time>
      </trkpt>
      <trkpt lat="43.45021" lon="3.64518">
        <ele>69</ele>
        <time>2015-08-06T15:48:29Z</time>
      </trkpt>
      <trkpt lat="43.45007" lon="3.64485">
        <ele>70</ele>
        <time>2015-08-06T15:48:35Z</time>
      </trkpt>
      <trkpt lat="43.4499" lon="3.64466">
        <ele>69</ele>
        <time>2015-08-06T15:48:41Z</time>
      </trkpt>
      <trkpt lat="43.44961" lon="3.64449">
        <ele>67</ele>
        <time>2015-08-06T15:48:46Z</time>
      </trkpt>
      <trkpt lat="43.44938" lon="3.6446">
        <ele>69</ele>
        <time>2015-08-06T15:48:51Z</time>
      </trkpt>
      <trkpt lat="43.44916" lon="3.64442">
        <ele>69</ele>
        <time>2015-08-06T15:48:56Z</time>
      </trkpt>
      <trkpt lat="43.44896" lon="3.64414">
        <ele>71</ele>
        <time>2015-08-06T15:49:01Z</time>
      </trkpt>
      <trkpt lat="43.44873" lon="3.64382">
        <ele>72</ele>
        <time>2015-08-06T15:49:07Z</time>
      </trkpt>
      <trkpt lat="43.44857" lon="3.64351">
        <ele>74</ele>
        <time>2015-08-06T15:49:12Z</time>
      </trkpt>
      <trkpt lat="43.44847" lon="3.64318">
        <ele>74</ele>
        <time>2015-08-06T15:49:18Z</time>
      </trkpt>
      <trkpt lat="43.44863" lon="3.6429">
        <ele>74</ele>
        <time>2015-08-06T15:49:24Z</time>
      </trkpt>
      <trkpt lat="43.44849" lon="3.64263">
        <ele>76</ele>
        <time>2015-08-06T15:49:29Z</time>
      </trkpt>
      <trkpt lat="43.44832" lon="3.64247">
        <ele>84</ele>
        <time>2015-08-06T15:49:34Z</time>
      </trkpt>
      <trkpt lat="43.44805" lon="3.64241">
        <ele>81</ele>
        <time>2015-08-06T15:49:39Z</time>
      </trkpt>
      <trkpt lat="43.44784" lon="3.64212">
        <ele>79</ele>
        <time>2015-08-06T15:49:45Z</time>
      </trkpt>
      <trkpt lat="43.44776" lon="3.64198">
        <ele>75</ele>
        <time>2015-08-06T15:49:50Z</time>
      </trkpt>
      <trkpt lat="43.44769" lon="3.64175">
        <ele>78</ele>
        <time>2015-08-06T15:49:56Z</time>
      </trkpt>
      <trkpt lat="43.44749" lon="3.64136">
        <ele>76</ele>
        <time>2015-08-06T15:50:03Z</time>
      </trkpt>
      <trkpt lat="43.44728" lon="3.64091">
        <ele>72</ele>
        <time>2015-08-06T15:50:08Z</time>
      </trkpt>
      <trkpt lat="43.4471" lon="3.64046">
        <ele>70</ele>
        <time>2015-08-06T15:50:15Z</time>
      </trkpt>
      <trkpt lat="43.4469" lon="3.63999">
        <ele>68</ele>
        <time>2015-08-06T15:50:20Z</time>
      </trkpt>
      <trkpt lat="43.44677" lon="3.6396">
        <ele>70</ele>
        <time>2015-08-06T15:50:26Z</time>
      </trkpt>
      <trkpt lat="43.44659" lon="3.6391">
        <ele>70</ele>
        <time>2015-08-06T15:50:31Z</time>
      </trkpt>
      <trkpt lat="43.44646" lon="3.63872">
        <ele>71</ele>
        <time>2015-08-06T15:50:37Z</time>
      </trkpt>
      <trkpt lat="43.4463" lon="3.63824">
        <ele>70</ele>
        <time>2015-08-06T15:50:43Z</time>
      </trkpt>
      <trkpt lat="43.44614" lon="3.63777">
        <ele>70</ele>
        <time>2015-08-06T15:50:48Z</time>
      </trkpt>
      <trkpt lat="43.44598" lon="3.6373">
        <ele>71</ele>
        <time>2015-08-06T15:50:54Z</time>
      </trkpt>
      <trkpt lat="43.44582" lon="3.63685">
        <ele>70</ele>
        <time>2015-08-06T15:51:00Z</time>
      </trkpt>
      <trkpt lat="43.44566" lon="3.63637">
        <ele>71</ele>
        <time>2015-08-06T15:51:06Z</time>
      </trkpt>
      <trkpt lat="43.44548" lon="3.63591">
        <ele>73</ele>
        <time>2015-08-06T15:51:12Z</time>
      </trkpt>
      <trkpt lat="43.44532" lon="3.63543">
        <ele>74</ele>
        <time>2015-08-06T15:51:18Z</time>
      </trkpt>
      <trkpt lat="43.44519" lon="3.63505">
        <ele>74</ele>
        <time>2015-08-06T15:51:23Z</time>
      </trkpt>
      <trkpt lat="43.44502" lon="3.63459">
        <ele>73</ele>
        <time>2015-08-06T15:51:29Z</time>
      </trkpt>
      <trkpt lat="43.44488" lon="3.63424">
        <ele>73</ele>
        <time>2015-08-06T15:51:35Z</time>
      </trkpt>
      <trkpt lat="43.44469" lon="3.63378">
        <ele>72</ele>
        <time>2015-08-06T15:51:40Z</time>
      </trkpt>
      <trkpt lat="43.44451" lon="3.63335">
        <ele>71</ele>
        <time>2015-08-06T15:51:45Z</time>
      </trkpt>
      <trkpt lat="43.44448" lon="3.63295">
        <ele>74</ele>
        <time>2015-08-06T15:51:51Z</time>
      </trkpt>
      <trkpt lat="43.4445" lon="3.63252">
        <ele>74</ele>
        <time>2015-08-06T15:51:56Z</time>
      </trkpt>
      <trkpt lat="43.44458" lon="3.63202">
        <ele>71</ele>
        <time>2015-08-06T15:52:01Z</time>
      </trkpt>
      <trkpt lat="43.4446" lon="3.63148">
        <ele>68</ele>
        <time>2015-08-06T15:52:07Z</time>
      </trkpt>
      <trkpt lat="43.44436" lon="3.63137">
        <ele>67</ele>
        <time>2015-08-06T15:52:13Z</time>
      </trkpt>
      <trkpt lat="43.44439" lon="3.63109">
        <ele>66</ele>
        <time>2015-08-06T15:52:18Z</time>
      </trkpt>
      <trkpt lat="43.44437" lon="3.63093">
        <ele>65</ele>
        <time>2015-08-06T15:52:24Z</time>
      </trkpt>
      <trkpt lat="43.44439" lon="3.63054">
        <ele>62</ele>
        <time>2015-08-06T15:52:30Z</time>
      </trkpt>
      <trkpt lat="43.44442" lon="3.63011">
        <ele>62</ele>
        <time>2015-08-06T15:52:35Z</time>
      </trkpt>
      <trkpt lat="43.4444" lon="3.62968">
        <ele>61</ele>
        <time>2015-08-06T15:52:41Z</time>
      </trkpt>
      <trkpt lat="43.44435" lon="3.62914">
        <ele>63</ele>
        <time>2015-08-06T15:52:46Z</time>
      </trkpt>
      <trkpt lat="43.44426" lon="3.62864">
        <ele>62</ele>
        <time>2015-08-06T15:52:52Z</time>
      </trkpt>
      <trkpt lat="43.4441" lon="3.62817">
        <ele>61</ele>
        <time>2015-08-06T15:52:58Z</time>
      </trkpt>
      <trkpt lat="43.44396" lon="3.62777">
        <ele>62</ele>
        <time>2015-08-06T15:53:03Z</time>
      </trkpt>
      <trkpt lat="43.44383" lon="3.62742">
        <ele>64</ele>
        <time>2015-08-06T15:53:08Z</time>
      </trkpt>
      <trkpt lat="43.44368" lon="3.62697">
        <ele>66</ele>
        <time>2015-08-06T15:53:14Z</time>
      </trkpt>
      <trkpt lat="43.44354" lon="3.62659">
        <ele>67</ele>
        <time>2015-08-06T15:53:19Z</time>
      </trkpt>
      <trkpt lat="43.44338" lon="3.62619">
        <ele>68</ele>
        <time>2015-08-06T15:53:24Z</time>
      </trkpt>
      <trkpt lat="43.44322" lon="3.62578">
        <ele>68</ele>
        <time>2015-08-06T15:53:30Z</time>
      </trkpt>
      <trkpt lat="43.44302" lon="3.62532">
        <ele>67</ele>
        <time>2015-08-06T15:53:36Z</time>
      </trkpt>
      <trkpt lat="43.44287" lon="3.6249">
        <ele>67</ele>
        <time>2015-08-06T15:53:41Z</time>
      </trkpt>
      <trkpt lat="43.44276" lon="3.62446">
        <ele>67</ele>
        <time>2015-08-06T15:53:46Z</time>
      </trkpt>
      <trkpt lat="43.44268" lon="3.6239">
        <ele>68</ele>
        <time>2015-08-06T15:53:51Z</time>
      </trkpt>
      <trkpt lat="43.44268" lon="3.62343">
        <ele>68</ele>
        <time>2015-08-06T15:53:56Z</time>
      </trkpt>
      <trkpt lat="43.4427" lon="3.62284">
        <ele>66</ele>
        <time>2015-08-06T15:54:02Z</time>
      </trkpt>
      <trkpt lat="43.44279" lon="3.62225">
        <ele>64</ele>
        <time>2015-08-06T15:54:09Z</time>
      </trkpt>
      <trkpt lat="43.44294" lon="3.62167">
        <ele>61</ele>
        <time>2015-08-06T15:54:15Z</time>
      </trkpt>
      <trkpt lat="43.44308" lon="3.62111">
        <ele>61</ele>
        <time>2015-08-06T15:54:20Z</time>
      </trkpt>
      <trkpt lat="43.44317" lon="3.62064">
        <ele>60</ele>
        <time>2015-08-06T15:54:26Z</time>
      </trkpt>
      <trkpt lat="43.4432" lon="3.62002">
        <ele>59</ele>
        <time>2015-08-06T15:54:31Z</time>
      </trkpt>
      <trkpt lat="43.44317" lon="3.61948">
        <ele>58</ele>
        <time>2015-08-06T15:54:37Z</time>
      </trkpt>
      <trkpt lat="43.44312" lon="3.61888">
        <ele>59</ele>
        <time>2015-08-06T15:54:43Z</time>
      </trkpt>
      <trkpt lat="43.44305" lon="3.6184">
        <ele>58</ele>
        <time>2015-08-06T15:54:48Z</time>
      </trkpt>
      <trkpt lat="43.44299" lon="3.61784">
        <ele>59</ele>
        <time>2015-08-06T15:54:53Z</time>
      </trkpt>
      <trkpt lat="43.44296" lon="3.61738">
        <ele>59</ele>
        <time>2015-08-06T15:54:59Z</time>
      </trkpt>
      <trkpt lat="43.4429" lon="3.61684">
        <ele>58</ele>
        <time>2015-08-06T15:55:04Z</time>
      </trkpt>
      <trkpt lat="43.44288" lon="3.61644">
        <ele>56</ele>
        <time>2015-08-06T15:55:10Z</time>
      </trkpt>
      <trkpt lat="43.44289" lon="3.61633">
        <ele>57</ele>
        <time>2015-08-06T15:55:15Z</time>
      </trkpt>
      <trkpt lat="43.44288" lon="3.61607">
        <ele>59</ele>
        <time>2015-08-06T15:55:21Z</time>
      </trkpt>
      <trkpt lat="43.44289" lon="3.61563">
        <ele>60</ele>
        <time>2015-08-06T15:55:27Z</time>
      </trkpt>
      <trkpt lat="43.44285" lon="3.61515">
        <ele>60</ele>
        <time>2015-08-06T15:55:33Z</time>
      </trkpt>
      <trkpt lat="43.44282" lon="3.6147">
        <ele>62</ele>
        <time>2015-08-06T15:55:39Z</time>
      </trkpt>
      <trkpt lat="43.44278" lon="3.61429">
        <ele>63</ele>
        <time>2015-08-06T15:55:44Z</time>
      </trkpt>
      <trkpt lat="43.44274" lon="3.61385">
        <ele>65</ele>
        <time>2015-08-06T15:55:49Z</time>
      </trkpt>
      <trkpt lat="43.44269" lon="3.61334">
        <ele>65</ele>
        <time>2015-08-06T15:55:55Z</time>
      </trkpt>
      <trkpt lat="43.44265" lon="3.61288">
        <ele>65</ele>
        <time>2015-08-06T15:56:01Z</time>
      </trkpt>
      <trkpt lat="43.44257" lon="3.61243">
        <ele>65</ele>
        <time>2015-08-06T15:56:07Z</time>
      </trkpt>
      <trkpt lat="43.44244" lon="3.61194">
        <ele>66</ele>
        <time>2015-08-06T15:56:13Z</time>
      </trkpt>
      <trkpt lat="43.44228" lon="3.6115">
        <ele>66</ele>
        <time>2015-08-06T15:56:19Z</time>
      </trkpt>
      <trkpt lat="43.4421" lon="3.6111">
        <ele>68</ele>
        <time>2015-08-06T15:56:25Z</time>
      </trkpt>
      <trkpt lat="43.44189" lon="3.61079">
        <ele>65</ele>
        <time>2015-08-06T15:56:30Z</time>
      </trkpt>
      <trkpt lat="43.44159" lon="3.61046">
        <ele>65</ele>
        <time>2015-08-06T15:56:36Z</time>
      </trkpt>
      <trkpt lat="43.44132" lon="3.6102">
        <ele>64</ele>
        <time>2015-08-06T15:56:41Z</time>
      </trkpt>
      <trkpt lat="43.44096" lon="3.60997">
        <ele>66</ele>
        <time>2015-08-06T15:56:47Z</time>
      </trkpt>
      <trkpt lat="43.44055" lon="3.60982">
        <ele>63</ele>
        <time>2015-08-06T15:56:53Z</time>
      </trkpt>
      <trkpt lat="43.44014" lon="3.60975">
        <ele>62</ele>
        <time>2015-08-06T15:57:00Z</time>
      </trkpt>
      <trkpt lat="43.43971" lon="3.60969">
        <ele>61</ele>
        <time>2015-08-06T15:57:06Z</time>
      </trkpt>
      <trkpt lat="43.43928" lon="3.60964">
        <ele>61</ele>
        <time>2015-08-06T15:57:11Z</time>
      </trkpt>
      <trkpt lat="43.43885" lon="3.60959">
        <ele>59</ele>
        <time>2015-08-06T15:57:17Z</time>
      </trkpt>
      <trkpt lat="43.43843" lon="3.60953">
        <ele>58</ele>
        <time>2015-08-06T15:57:23Z</time>
      </trkpt>
      <trkpt lat="43.43801" lon="3.60948">
        <ele>56</ele>
        <time>2015-08-06T15:57:30Z</time>
      </trkpt>
      <trkpt lat="43.43767" lon="3.60943">
        <ele>56</ele>
        <time>2015-08-06T15:57:35Z</time>
      </trkpt>
      <trkpt lat="43.43726" lon="3.60937">
        <ele>57</ele>
        <time>2015-08-06T15:57:40Z</time>
      </trkpt>
      <trkpt lat="43.43683" lon="3.60932">
        <ele>56</ele>
        <time>2015-08-06T15:57:46Z</time>
      </trkpt>
      <trkpt lat="43.43647" lon="3.60925">
        <ele>55</ele>
        <time>2015-08-06T15:57:51Z</time>
      </trkpt>
      <trkpt lat="43.43607" lon="3.60909">
        <ele>55</ele>
        <time>2015-08-06T15:57:57Z</time>
      </trkpt>
      <trkpt lat="43.43575" lon="3.60895">
        <ele>54</ele>
        <time>2015-08-06T15:58:03Z</time>
      </trkpt>
      <trkpt lat="43.43536" lon="3.60867">
        <ele>51</ele>
        <time>2015-08-06T15:58:09Z</time>
      </trkpt>
      <trkpt lat="43.43496" lon="3.60827">
        <ele>51</ele>
        <time>2015-08-06T15:58:14Z</time>
      </trkpt>
      <trkpt lat="43.43462" lon="3.60792">
        <ele>53</ele>
        <time>2015-08-06T15:58:20Z</time>
      </trkpt>
      <trkpt lat="43.43439" lon="3.60753">
        <ele>53</ele>
        <time>2015-08-06T15:58:26Z</time>
      </trkpt>
      <trkpt lat="43.43406" lon="3.60713">
        <ele>53</ele>
        <time>2015-08-06T15:58:32Z</time>
      </trkpt>
      <trkpt lat="43.43385" lon="3.60686">
        <ele>54</ele>
        <time>2015-08-06T15:58:37Z</time>
      </trkpt>
      <trkpt lat="43.43367" lon="3.60663">
        <ele>54</ele>
        <time>2015-08-06T15:58:42Z</time>
      </trkpt>
      <trkpt lat="43.43347" lon="3.60636">
        <ele>53</ele>
        <time>2015-08-06T15:58:47Z</time>
      </trkpt>
      <trkpt lat="43.43323" lon="3.60604">
        <ele>53</ele>
        <time>2015-08-06T15:58:53Z</time>
      </trkpt>
      <trkpt lat="43.43299" lon="3.6057">
        <ele>55</ele>
        <time>2015-08-06T15:59:00Z</time>
      </trkpt>
      <trkpt lat="43.43276" lon="3.60538">
        <ele>54</ele>
        <time>2015-08-06T15:59:06Z</time>
      </trkpt>
      <trkpt lat="43.4325" lon="3.60503">
        <ele>55</ele>
        <time>2015-08-06T15:59:11Z</time>
      </trkpt>
      <trkpt lat="43.43224" lon="3.60469">
        <ele>57</ele>
        <time>2015-08-06T15:59:17Z</time>
      </trkpt>
      <trkpt lat="43.43203" lon="3.60443">
        <ele>58</ele>
        <time>2015-08-06T15:59:23Z</time>
      </trkpt>
      <trkpt lat="43.4318" lon="3.60411">
        <ele>58</ele>
        <time>2015-08-06T15:59:28Z</time>
      </trkpt>
      <trkpt lat="43.43163" lon="3.60385">
        <ele>58</ele>
        <time>2015-08-06T15:59:33Z</time>
      </trkpt>
      <trkpt lat="43.43148" lon="3.60363">
        <ele>57</ele>
        <time>2015-08-06T15:59:38Z</time>
      </trkpt>
      <trkpt lat="43.43146" lon="3.60349">
        <ele>61</ele>
        <time>2015-08-06T15:59:44Z</time>
      </trkpt>
      <trkpt lat="43.4313" lon="3.60332">
        <ele>59</ele>
        <time>2015-08-06T15:59:49Z</time>
      </trkpt>
      <trkpt lat="43.43111" lon="3.60328">
        <ele>59</ele>
        <time>2015-08-06T15:59:55Z</time>
      </trkpt>
      <trkpt lat="43.43089" lon="3.60299">
        <ele>60</ele>
        <time>2015-08-06T16:00:00Z</time>
      </trkpt>
      <trkpt lat="43.43071" lon="3.60273">
        <ele>63</ele>
        <time>2015-08-06T16:00:06Z</time>
      </trkpt>
      <trkpt lat="43.4305" lon="3.60245">
        <ele>62</ele>
        <time>2015-08-06T16:00:11Z</time>
      </trkpt>
      <trkpt lat="43.43029" lon="3.60216">
        <ele>62</ele>
        <time>2015-08-06T16:00:17Z</time>
      </trkpt>
      <trkpt lat="43.43011" lon="3.60191">
        <ele>66</ele>
        <time>2015-08-06T16:00:22Z</time>
      </trkpt>
      <trkpt lat="43.42989" lon="3.60164">
        <ele>62</ele>
        <time>2015-08-06T16:00:27Z</time>
      </trkpt>
      <trkpt lat="43.42974" lon="3.60141">
        <ele>65</ele>
        <time>2015-08-06T16:00:33Z</time>
      </trkpt>
      <trkpt lat="43.42976" lon="3.6014">
        <ele>65</ele>
        <time>2015-08-06T16:00:38Z</time>
      </trkpt>
      <trkpt lat="43.4297" lon="3.60134">
        <ele>65</ele>
        <time>2015-08-06T16:00:43Z</time>
      </trkpt>
      <trkpt lat="43.42955" lon="3.60112">
        <ele>67</ele>
        <time>2015-08-06T16:00:49Z</time>
      </trkpt>
      <trkpt lat="43.42945" lon="3.601">
        <ele>69</ele>
        <time>2015-08-06T16:00:54Z</time>
      </trkpt>
      <trkpt lat="43.42945" lon="3.601">
        <ele>69</ele>
        <time>2015-08-06T16:00:59Z</time>
      </trkpt>
      <trkpt lat="43.42946" lon="3.601">
        <ele>68</ele>
        <time>2015-08-06T16:01:05Z</time>
      </trkpt>
      <trkpt lat="43.42945" lon="3.601">
        <ele>68</ele>
        <time>2015-08-06T16:01:11Z</time>
      </trkpt>
      <trkpt lat="43.42945" lon="3.601">
        <ele>68</ele>
        <time>2015-08-06T16:01:16Z</time>
      </trkpt>
      <trkpt lat="43.42946" lon="3.601">
        <ele>68</ele>
        <time>2015-08-06T16:01:21Z</time>
      </trkpt>
      <trkpt lat="43.42946" lon="3.601">
        <ele>68</ele>
        <time>2015-08-06T16:01:28Z</time>
      </trkpt>
      <trkpt lat="43.42946" lon="3.601">
        <ele>68</ele>
        <time>2015-08-06T16:01:34Z</time>
      </trkpt>
      <trkpt lat="43.42946" lon="3.601">
        <ele>68</ele>
        <time>2015-08-06T16:01:39Z</time>
      </trkpt>
      <trkpt lat="43.42946" lon="3.601">
        <ele>68</ele>
        <time>2015-08-06T16:01:45Z</time>
      </trkpt>
      <trkpt lat="43.42946" lon="3.601">
        <ele>68</ele>
        <time>2015-08-06T16:01:50Z</time>
      </trkpt>
      <trkpt lat="43.42946" lon="3.601">
        <ele>68</ele>
        <time>2015-08-06T16:01:56Z</time>
      </trkpt>
      <trkpt lat="43.4294" lon="3.60096">
        <ele>69</ele>
        <time>2015-08-06T16:02:02Z</time>
      </trkpt>
      <trkpt lat="43.42927" lon="3.60062">
        <ele>68</ele>
        <time>2015-08-06T16:02:07Z</time>
      </trkpt>
      <trkpt lat="43.42905" lon="3.60038">
        <ele>65</ele>
        <time>2015-08-06T16:02:12Z</time>
      </trkpt>
      <trkpt lat="43.42882" lon="3.60015">
        <ele>62</ele>
        <time>2015-08-06T16:02:17Z</time>
      </trkpt>
      <trkpt lat="43.42856" lon="3.5999">
        <ele>60</ele>
        <time>2015-08-06T16:02:23Z</time>
      </trkpt>
      <trkpt lat="43.42831" lon="3.59973">
        <ele>58</ele>
        <time>2015-08-06T16:02:28Z</time>
      </trkpt>
      <trkpt lat="43.42805" lon="3.59961">
        <ele>59</ele>
        <time>2015-08-06T16:02:33Z</time>
      </trkpt>
      <trkpt lat="43.42778" lon="3.5996">
        <ele>59</ele>
        <time>2015-08-06T16:02:39Z</time>
      </trkpt>
      <trkpt lat="43.42738" lon="3.5996">
        <ele>59</ele>
        <time>2015-08-06T16:02:44Z</time>
      </trkpt>
      <trkpt lat="43.42709" lon="3.5997">
        <ele>59</ele>
        <time>2015-08-06T16:02:50Z</time>
      </trkpt>
      <trkpt lat="43.42674" lon="3.59983">
        <ele>60</ele>
        <time>2015-08-06T16:02:56Z</time>
      </trkpt>
      <trkpt lat="43.42645" lon="3.60002">
        <ele>57</ele>
        <time>2015-08-06T16:03:02Z</time>
      </trkpt>
      <trkpt lat="43.42641" lon="3.60011">
        <ele>58</ele>
        <time>2015-08-06T16:03:07Z</time>
      </trkpt>
      <trkpt lat="43.42645" lon="3.60034">
        <ele>58</ele>
        <time>2015-08-06T16:03:13Z</time>
      </trkpt>
      <trkpt lat="43.42657" lon="3.60076">
        <ele>57</ele>
        <time>2015-08-06T16:03:19Z</time>
      </trkpt>
      <trkpt lat="43.42658" lon="3.60112">
        <ele>54</ele>
        <time>2015-08-06T16:03:24Z</time>
      </trkpt>
      <trkpt lat="43.42658" lon="3.60154">
        <ele>54</ele>
        <time>2015-08-06T16:03:29Z</time>
      </trkpt>
      <trkpt lat="43.42651" lon="3.60196">
        <ele>54</ele>
        <time>2015-08-06T16:03:35Z</time>
      </trkpt>
      <trkpt lat="43.42648" lon="3.60232">
        <ele>50</ele>
        <time>2015-08-06T16:03:41Z</time>
      </trkpt>
      <trkpt lat="43.42643" lon="3.6025">
        <ele>49</ele>
        <time>2015-08-06T16:03:48Z</time>
      </trkpt>
      <trkpt lat="43.42651" lon="3.60277">
        <ele>47</ele>
        <time>2015-08-06T16:03:53Z</time>
      </trkpt>
      <trkpt lat="43.42647" lon="3.60303">
        <ele>54</ele>
        <time>2015-08-06T16:03:59Z</time>
      </trkpt>
      <trkpt lat="43.42635" lon="3.60317">
        <ele>57</ele>
        <time>2015-08-06T16:04:06Z</time>
      </trkpt>
      <trkpt lat="43.42629" lon="3.6031">
        <ele>59</ele>
        <time>2015-08-06T16:04:11Z</time>
      </trkpt>
      <trkpt lat="43.42628" lon="3.60309">
        <ele>61</ele>
        <time>2015-08-06T16:04:17Z</time>
      </trkpt>
      <trkpt lat="43.42628" lon="3.60308">
        <ele>61</ele>
        <time>2015-08-06T16:04:22Z</time>
      </trkpt>
      <trkpt lat="43.42616" lon="3.60296">
        <ele>59</ele>
        <time>2015-08-06T16:04:28Z</time>
      </trkpt>
      <trkpt lat="43.42599" lon="3.60262">
        <ele>60</ele>
        <time>2015-08-06T16:04:33Z</time>
      </trkpt>
      <trkpt lat="43.42578" lon="3.60238">
        <ele>59</ele>
        <time>2015-08-06T16:04:39Z</time>
      </trkpt>
      <trkpt lat="43.4256" lon="3.60208">
        <ele>62</ele>
        <time>2015-08-06T16:04:44Z</time>
      </trkpt>
      <trkpt lat="43.42544" lon="3.60181">
        <ele>63</ele>
        <time>2015-08-06T16:04:50Z</time>
      </trkpt>
      <trkpt lat="43.42528" lon="3.6015">
        <ele>66</ele>
        <time>2015-08-06T16:04:55Z</time>
      </trkpt>
      <trkpt lat="43.42509" lon="3.60133">
        <ele>63</ele>
        <time>2015-08-06T16:05:00Z</time>
      </trkpt>
      <trkpt lat="43.4248" lon="3.60138">
        <ele>61</ele>
        <time>2015-08-06T16:05:06Z</time>
      </trkpt>
      <trkpt lat="43.42449" lon="3.60156">
        <ele>60</ele>
        <time>2015-08-06T16:05:12Z</time>
      </trkpt>
      <trkpt lat="43.42419" lon="3.60174">
        <ele>61</ele>
        <time>2015-08-06T16:05:18Z</time>
      </trkpt>
      <trkpt lat="43.42389" lon="3.60185">
        <ele>62</ele>
        <time>2015-08-06T16:05:23Z</time>
      </trkpt>
      <trkpt lat="43.42354" lon="3.60198">
        <ele>59</ele>
        <time>2015-08-06T16:05:30Z</time>
      </trkpt>
      <trkpt lat="43.42331" lon="3.60211">
        <ele>62</ele>
        <time>2015-08-06T16:05:36Z</time>
      </trkpt>
      <trkpt lat="43.423" lon="3.60233">
        <ele>64</ele>
        <time>2015-08-06T16:05:41Z</time>
      </trkpt>
      <trkpt lat="43.42274" lon="3.6025">
        <ele>67</ele>
        <time>2015-08-06T16:05:47Z</time>
      </trkpt>
      <trkpt lat="43.42241" lon="3.60276">
        <ele>64</ele>
        <time>2015-08-06T16:05:52Z</time>
      </trkpt>
      <trkpt lat="43.42224" lon="3.60289">
        <ele>60</ele>
        <time>2015-08-06T16:05:58Z</time>
      </trkpt>
      <trkpt lat="43.42212" lon="3.6028">
        <ele>57</ele>
        <time>2015-08-06T16:06:03Z</time>
      </trkpt>
      <trkpt lat="43.42204" lon="3.60294">
        <ele>58</ele>
        <time>2015-08-06T16:06:09Z</time>
      </trkpt>
      <trkpt lat="43.42191" lon="3.60327">
        <ele>53</ele>
        <time>2015-08-06T16:06:15Z</time>
      </trkpt>
      <trkpt lat="43.42189" lon="3.60366">
        <ele>51</ele>
        <time>2015-08-06T16:06:21Z</time>
      </trkpt>
      <trkpt lat="43.42186" lon="3.60401">
        <ele>52</ele>
        <time>2015-08-06T16:06:26Z</time>
      </trkpt>
      <trkpt lat="43.42169" lon="3.60409">
        <ele>54</ele>
        <time>2015-08-06T16:06:32Z</time>
      </trkpt>
      <trkpt lat="43.4215" lon="3.60394">
        <ele>54</ele>
        <time>2015-08-06T16:06:37Z</time>
      </trkpt>
      <trkpt lat="43.42141" lon="3.60362">
        <ele>53</ele>
        <time>2015-08-06T16:06:42Z</time>
      </trkpt>
      <trkpt lat="43.42123" lon="3.60337">
        <ele>52</ele>
        <time>2015-08-06T16:06:48Z</time>
      </trkpt>
      <trkpt lat="43.42107" lon="3.60322">
        <ele>53</ele>
        <time>2015-08-06T16:06:53Z</time>
      </trkpt>
      <trkpt lat="43.42091" lon="3.60306">
        <ele>53</ele>
        <time>2015-08-06T16:06:58Z</time>
      </trkpt>
      <trkpt lat="43.42074" lon="3.60288">
        <ele>52</ele>
        <time>2015-08-06T16:07:04Z</time>
      </trkpt>
      <trkpt lat="43.42058" lon="3.60272">
        <ele>54</ele>
        <time>2015-08-06T16:07:09Z</time>
      </trkpt>
      <trkpt lat="43.42043" lon="3.60258">
        <ele>53</ele>
        <time>2015-08-06T16:07:14Z</time>
      </trkpt>
      <trkpt lat="43.42029" lon="3.60245">
        <ele>56</ele>
        <time>2015-08-06T16:07:20Z</time>
      </trkpt>
      <trkpt lat="43.42013" lon="3.60236">
        <ele>56</ele>
        <time>2015-08-06T16:07:25Z</time>
      </trkpt>
      <trkpt lat="43.42006" lon="3.60225">
        <ele>57</ele>
        <time>2015-08-06T16:07:30Z</time>
      </trkpt>
      <trkpt lat="43.41999" lon="3.6021">
        <ele>56</ele>
        <time>2015-08-06T16:07:36Z</time>
      </trkpt>
      <trkpt lat="43.42001" lon="3.60193">
        <ele>57</ele>
        <time>2015-08-06T16:07:42Z</time>
      </trkpt>
      <trkpt lat="43.42011" lon="3.60175">
        <ele>58</ele>
        <time>2015-08-06T16:07:47Z</time>
      </trkpt>
      <trkpt lat="43.42024" lon="3.60147">
        <ele>61</ele>
        <time>2015-08-06T16:07:53Z</time>
      </trkpt>
      <trkpt lat="43.42033" lon="3.60127">
        <ele>62</ele>
        <time>2015-08-06T16:07:58Z</time>
      </trkpt>
      <trkpt lat="43.42027" lon="3.60103">
        <ele>60</ele>
        <time>2015-08-06T16:08:04Z</time>
      </trkpt>
      <trkpt lat="43.4201" lon="3.60075">
        <ele>60</ele>
        <time>2015-08-06T16:08:09Z</time>
      </trkpt>
      <trkpt lat="43.4199" lon="3.60052">
        <ele>59</ele>
        <time>2015-08-06T16:08:15Z</time>
      </trkpt>
      <trkpt lat="43.4197" lon="3.60023">
        <ele>59</ele>
        <time>2015-08-06T16:08:20Z</time>
      </trkpt>
      <trkpt lat="43.41951" lon="3.59992">
        <ele>58</ele>
        <time>2015-08-06T16:08:26Z</time>
      </trkpt>
      <trkpt lat="43.41935" lon="3.59953">
        <ele>54</ele>
        <time>2015-08-06T16:08:32Z</time>
      </trkpt>
      <trkpt lat="43.41915" lon="3.59918">
        <ele>54</ele>
        <time>2015-08-06T16:08:39Z</time>
      </trkpt>
      <trkpt lat="43.419" lon="3.59888">
        <ele>53</ele>
        <time>2015-08-06T16:08:44Z</time>
      </trkpt>
      <trkpt lat="43.41872" lon="3.59863">
        <ele>54</ele>
        <time>2015-08-06T16:08:49Z</time>
      </trkpt>
      <trkpt lat="43.4185" lon="3.59845">
        <ele>52</ele>
        <time>2015-08-06T16:08:54Z</time>
      </trkpt>
      <trkpt lat="43.41826" lon="3.59827">
        <ele>52</ele>
        <time>2015-08-06T16:09:00Z</time>
      </trkpt>
      <trkpt lat="43.41804" lon="3.59796">
        <ele>53</ele>
        <time>2015-08-06T16:09:05Z</time>
      </trkpt>
      <trkpt lat="43.4179" lon="3.59762">
        <ele>54</ele>
        <time>2015-08-06T16:09:11Z</time>
      </trkpt>
      <trkpt lat="43.41767" lon="3.5973">
        <ele>54</ele>
        <time>2015-08-06T16:09:16Z</time>
      </trkpt>
      <trkpt lat="43.41745" lon="3.59704">
        <ele>55</ele>
        <time>2015-08-06T16:09:22Z</time>
      </trkpt>
      <trkpt lat="43.41725" lon="3.59668">
        <ele>54</ele>
        <time>2015-08-06T16:09:27Z</time>
      </trkpt>
      <trkpt lat="43.41716" lon="3.59626">
        <ele>51</ele>
        <time>2015-08-06T16:09:33Z</time>
      </trkpt>
      <trkpt lat="43.41726" lon="3.59577">
        <ele>50</ele>
        <time>2015-08-06T16:09:39Z</time>
      </trkpt>
      <trkpt lat="43.41749" lon="3.59548">
        <ele>51</ele>
        <time>2015-08-06T16:09:44Z</time>
      </trkpt>
      <trkpt lat="43.41777" lon="3.59517">
        <ele>52</ele>
        <time>2015-08-06T16:09:49Z</time>
      </trkpt>
      <trkpt lat="43.41801" lon="3.5949">
        <ele>51</ele>
        <time>2015-08-06T16:09:55Z</time>
      </trkpt>
      <trkpt lat="43.4183" lon="3.59459">
        <ele>53</ele>
        <time>2015-08-06T16:10:00Z</time>
      </trkpt>
      <trkpt lat="43.41858" lon="3.59431">
        <ele>54</ele>
        <time>2015-08-06T16:10:06Z</time>
      </trkpt>
      <trkpt lat="43.41874" lon="3.59386">
        <ele>54</ele>
        <time>2015-08-06T16:10:13Z</time>
      </trkpt>
      <trkpt lat="43.41893" lon="3.59347">
        <ele>54</ele>
        <time>2015-08-06T16:10:18Z</time>
      </trkpt>
      <trkpt lat="43.41917" lon="3.59324">
        <ele>54</ele>
        <time>2015-08-06T16:10:24Z</time>
      </trkpt>
      <trkpt lat="43.41947" lon="3.5931">
        <ele>54</ele>
        <time>2015-08-06T16:10:29Z</time>
      </trkpt>
      <trkpt lat="43.41957" lon="3.59303">
        <ele>55</ele>
        <time>2015-08-06T16:10:35Z</time>
      </trkpt>
      <trkpt lat="43.41963" lon="3.5928">
        <ele>55</ele>
        <time>2015-08-06T16:10:41Z</time>
      </trkpt>
      <trkpt lat="43.41953" lon="3.59237">
        <ele>54</ele>
        <time>2015-08-06T16:10:46Z</time>
      </trkpt>
      <trkpt lat="43.41942" lon="3.59191">
        <ele>53</ele>
        <time>2015-08-06T16:10:52Z</time>
      </trkpt>
      <trkpt lat="43.41933" lon="3.59151">
        <ele>52</ele>
        <time>2015-08-06T16:10:58Z</time>
      </trkpt>
      <trkpt lat="43.41924" lon="3.59105">
        <ele>51</ele>
        <time>2015-08-06T16:11:03Z</time>
      </trkpt>
      <trkpt lat="43.41913" lon="3.59066">
        <ele>50</ele>
        <time>2015-08-06T16:11:09Z</time>
      </trkpt>
      <trkpt lat="43.41899" lon="3.59019">
        <ele>48</ele>
        <time>2015-08-06T16:11:14Z</time>
      </trkpt>
      <trkpt lat="43.4189" lon="3.58976">
        <ele>47</ele>
        <time>2015-08-06T16:11:20Z</time>
      </trkpt>
      <trkpt lat="43.41876" lon="3.58929">
        <ele>46</ele>
        <time>2015-08-06T16:11:25Z</time>
      </trkpt>
      <trkpt lat="43.41866" lon="3.58889">
        <ele>45</ele>
        <time>2015-08-06T16:11:31Z</time>
      </trkpt>
      <trkpt lat="43.4186" lon="3.58839">
        <ele>43</ele>
        <time>2015-08-06T16:11:37Z</time>
      </trkpt>
      <trkpt lat="43.41859" lon="3.58798">
        <ele>44</ele>
        <time>2015-08-06T16:11:42Z</time>
      </trkpt>
      <trkpt lat="43.41863" lon="3.58777">
        <ele>49</ele>
        <time>2015-08-06T16:11:47Z</time>
      </trkpt>
      <trkpt lat="43.41864" lon="3.58777">
        <ele>50</ele>
        <time>2015-08-06T16:11:53Z</time>
      </trkpt>
      <trkpt lat="43.41864" lon="3.58777">
        <ele>50</ele>
        <time>2015-08-06T16:11:58Z</time>
      </trkpt>
      <trkpt lat="43.41864" lon="3.58777">
        <ele>50</ele>
        <time>2015-08-06T16:12:05Z</time>
      </trkpt>
      <trkpt lat="43.41864" lon="3.58777">
        <ele>50</ele>
        <time>2015-08-06T16:12:11Z</time>
      </trkpt>
      <trkpt lat="43.41864" lon="3.58777">
        <ele>50</ele>
        <time>2015-08-06T16:12:16Z</time>
      </trkpt>
      <trkpt lat="43.41864" lon="3.58777">
        <ele>50</ele>
        <time>2015-08-06T16:12:21Z</time>
      </trkpt>
      <trkpt lat="43.41864" lon="3.58777">
        <ele>50</ele>
        <time>2015-08-06T16:12:27Z</time>
      </trkpt>
      <trkpt lat="43.41864" lon="3.58777">
        <ele>50</ele>
        <time>2015-08-06T16:12:33Z</time>
      </trkpt>
      <trkpt lat="43.41864" lon="3.58777">
        <ele>50</ele>
        <time>2015-08-06T16:12:38Z</time>
      </trkpt>
      <trkpt lat="43.41864" lon="3.58777">
        <ele>50</ele>
        <time>2015-08-06T16:12:43Z</time>
      </trkpt>
      <trkpt lat="43.41864" lon="3.58777">
        <ele>50</ele>
        <time>2015-08-06T16:12:49Z</time>
      </trkpt>
      <trkpt lat="43.41864" lon="3.58777">
        <ele>50</ele>
        <time>2015-08-06T16:12:54Z</time>
      </trkpt>
      <trkpt lat="43.41864" lon="3.58777">
        <ele>51</ele>
        <time>2015-08-06T16:12:59Z</time>
      </trkpt>
      <trkpt lat="43.41864" lon="3.58777">
        <ele>51</ele>
        <time>2015-08-06T16:13:04Z</time>
      </trkpt>
      <trkpt lat="43.41864" lon="3.58777">
        <ele>51</ele>
        <time>2015-08-06T16:13:10Z</time>
      </trkpt>
      <trkpt lat="43.41864" lon="3.58777">
        <ele>51</ele>
        <time>2015-08-06T16:13:17Z</time>
      </trkpt>
      <trkpt lat="43.41864" lon="3.58777">
        <ele>51</ele>
        <time>2015-08-06T16:13:23Z</time>
      </trkpt>
      <trkpt lat="43.41864" lon="3.58777">
        <ele>51</ele>
        <time>2015-08-06T16:13:28Z</time>
      </trkpt>
      <trkpt lat="43.41864" lon="3.58777">
        <ele>51</ele>
        <time>2015-08-06T16:13:34Z</time>
      </trkpt>
      <trkpt lat="43.41864" lon="3.58777">
        <ele>51</ele>
        <time>2015-08-06T16:13:39Z</time>
      </trkpt>
      <trkpt lat="43.41864" lon="3.58777">
        <ele>51</ele>
        <time>2015-08-06T16:13:45Z</time>
      </trkpt>
      <trkpt lat="43.41864" lon="3.58777">
        <ele>51</ele>
        <time>2015-08-06T16:13:51Z</time>
      </trkpt>
      <trkpt lat="43.41864" lon="3.58777">
        <ele>51</ele>
        <time>2015-08-06T16:13:56Z</time>
      </trkpt>
      <trkpt lat="43.41864" lon="3.58777">
        <ele>51</ele>
        <time>2015-08-06T16:14:01Z</time>
      </trkpt>
      <trkpt lat="43.41864" lon="3.58777">
        <ele>51</ele>
        <time>2015-08-06T16:14:07Z</time>
      </trkpt>
      <trkpt lat="43.41864" lon="3.58777">
        <ele>51</ele>
        <time>2015-08-06T16:14:13Z</time>
      </trkpt>
      <trkpt lat="43.41864" lon="3.58775">
        <ele>53</ele>
        <time>2015-08-06T16:14:18Z</time>
      </trkpt>
      <trkpt lat="43.41865" lon="3.58762">
        <ele>51</ele>
        <time>2015-08-06T16:14:24Z</time>
      </trkpt>
      <trkpt lat="43.41874" lon="3.58736">
        <ele>51</ele>
        <time>2015-08-06T16:14:29Z</time>
      </trkpt>
      <trkpt lat="43.41894" lon="3.58702">
        <ele>51</ele>
        <time>2015-08-06T16:14:34Z</time>
      </trkpt>
      <trkpt lat="43.419" lon="3.58666">
        <ele>52</ele>
        <time>2015-08-06T16:14:39Z</time>
      </trkpt>
      <trkpt lat="43.41897" lon="3.58615">
        <ele>51</ele>
        <time>2015-08-06T16:14:45Z</time>
      </trkpt>
      <trkpt lat="43.41892" lon="3.58576">
        <ele>52</ele>
        <time>2015-08-06T16:14:50Z</time>
      </trkpt>
      <trkpt lat="43.41887" lon="3.58537">
        <ele>51</ele>
        <time>2015-08-06T16:14:56Z</time>
      </trkpt>
      <trkpt lat="43.41883" lon="3.58488">
        <ele>53</ele>
        <time>2015-08-06T16:15:01Z</time>
      </trkpt>
      <trkpt lat="43.41879" lon="3.58448">
        <ele>53</ele>
        <time>2015-08-06T16:15:07Z</time>
      </trkpt>
      <trkpt lat="43.41864" lon="3.58409">
        <ele>55</ele>
        <time>2015-08-06T16:15:12Z</time>
      </trkpt>
      <trkpt lat="43.41844" lon="3.58384">
        <ele>55</ele>
        <time>2015-08-06T16:15:17Z</time>
      </trkpt>
      <trkpt lat="43.41816" lon="3.58356">
        <ele>54</ele>
        <time>2015-08-06T16:15:23Z</time>
      </trkpt>
      <trkpt lat="43.41791" lon="3.58333">
        <ele>54</ele>
        <time>2015-08-06T16:15:29Z</time>
      </trkpt>
      <trkpt lat="43.41763" lon="3.58307">
        <ele>53</ele>
        <time>2015-08-06T16:15:34Z</time>
      </trkpt>
      <trkpt lat="43.41743" lon="3.58286">
        <ele>56</ele>
        <time>2015-08-06T16:15:40Z</time>
      </trkpt>
      <trkpt lat="43.41725" lon="3.58259">
        <ele>59</ele>
        <time>2015-08-06T16:15:45Z</time>
      </trkpt>
      <trkpt lat="43.4171" lon="3.58229">
        <ele>60</ele>
        <time>2015-08-06T16:15:51Z</time>
      </trkpt>
      <trkpt lat="43.41699" lon="3.582">
        <ele>61</ele>
        <time>2015-08-06T16:15:57Z</time>
      </trkpt>
      <trkpt lat="43.41692" lon="3.58162">
        <ele>61</ele>
        <time>2015-08-06T16:16:03Z</time>
      </trkpt>
      <trkpt lat="43.41687" lon="3.58124">
        <ele>60</ele>
        <time>2015-08-06T16:16:08Z</time>
      </trkpt>
      <trkpt lat="43.41683" lon="3.58095">
        <ele>62</ele>
        <time>2015-08-06T16:16:14Z</time>
      </trkpt>
      <trkpt lat="43.41676" lon="3.58057">
        <ele>62</ele>
        <time>2015-08-06T16:16:19Z</time>
      </trkpt>
      <trkpt lat="43.41672" lon="3.58021">
        <ele>62</ele>
        <time>2015-08-06T16:16:24Z</time>
      </trkpt>
      <trkpt lat="43.41668" lon="3.57983">
        <ele>63</ele>
        <time>2015-08-06T16:16:29Z</time>
      </trkpt>
      <trkpt lat="43.41663" lon="3.5794">
        <ele>62</ele>
        <time>2015-08-06T16:16:35Z</time>
      </trkpt>
      <trkpt lat="43.41657" lon="3.57896">
        <ele>64</ele>
        <time>2015-08-06T16:16:41Z</time>
      </trkpt>
      <trkpt lat="43.41649" lon="3.57852">
        <ele>65</ele>
        <time>2015-08-06T16:16:47Z</time>
      </trkpt>
      <trkpt lat="43.41639" lon="3.57816">
        <ele>65</ele>
        <time>2015-08-06T16:16:52Z</time>
      </trkpt>
      <trkpt lat="43.41625" lon="3.57775">
        <ele>67</ele>
        <time>2015-08-06T16:16:58Z</time>
      </trkpt>
      <trkpt lat="43.41604" lon="3.57737">
        <ele>67</ele>
        <time>2015-08-06T16:17:04Z</time>
      </trkpt>
      <trkpt lat="43.4158" lon="3.57707">
        <ele>68</ele>
        <time>2015-08-06T16:17:10Z</time>
      </trkpt>
      <trkpt lat="43.41553" lon="3.57679">
        <ele>66</ele>
        <time>2015-08-06T16:17:16Z</time>
      </trkpt>
      <trkpt lat="43.4153" lon="3.5765">
        <ele>65</ele>
        <time>2015-08-06T16:17:21Z</time>
      </trkpt>
      <trkpt lat="43.41507" lon="3.57619">
        <ele>66</ele>
        <time>2015-08-06T16:17:26Z</time>
      </trkpt>
      <trkpt lat="43.41481" lon="3.57584">
        <ele>62</ele>
        <time>2015-08-06T16:17:32Z</time>
      </trkpt>
      <trkpt lat="43.41455" lon="3.57552">
        <ele>62</ele>
        <time>2015-08-06T16:17:37Z</time>
      </trkpt>
      <trkpt lat="43.4143" lon="3.57519">
        <ele>62</ele>
        <time>2015-08-06T16:17:43Z</time>
      </trkpt>
      <trkpt lat="43.41399" lon="3.57481">
        <ele>62</ele>
        <time>2015-08-06T16:17:48Z</time>
      </trkpt>
      <trkpt lat="43.41373" lon="3.57448">
        <ele>58</ele>
        <time>2015-08-06T16:17:54Z</time>
      </trkpt>
      <trkpt lat="43.41339" lon="3.57412">
        <ele>59</ele>
        <time>2015-08-06T16:17:59Z</time>
      </trkpt>
      <trkpt lat="43.41311" lon="3.57384">
        <ele>59</ele>
        <time>2015-08-06T16:18:05Z</time>
      </trkpt>
      <trkpt lat="43.41277" lon="3.57353">
        <ele>60</ele>
        <time>2015-08-06T16:18:10Z</time>
      </trkpt>
      <trkpt lat="43.41248" lon="3.57325">
        <ele>60</ele>
        <time>2015-08-06T16:18:16Z</time>
      </trkpt>
      <trkpt lat="43.41215" lon="3.5729">
        <ele>59</ele>
        <time>2015-08-06T16:18:21Z</time>
      </trkpt>
      <trkpt lat="43.41184" lon="3.57253">
        <ele>55</ele>
        <time>2015-08-06T16:18:27Z</time>
      </trkpt>
      <trkpt lat="43.41148" lon="3.57206">
        <ele>55</ele>
        <time>2015-08-06T16:18:32Z</time>
      </trkpt>
      <trkpt lat="43.41119" lon="3.57165">
        <ele>53</ele>
        <time>2015-08-06T16:18:38Z</time>
      </trkpt>
      <trkpt lat="43.41083" lon="3.57121">
        <ele>53</ele>
        <time>2015-08-06T16:18:43Z</time>
      </trkpt>
      <trkpt lat="43.41055" lon="3.57086">
        <ele>54</ele>
        <time>2015-08-06T16:18:49Z</time>
      </trkpt>
      <trkpt lat="43.41022" lon="3.57045">
        <ele>53</ele>
        <time>2015-08-06T16:18:54Z</time>
      </trkpt>
      <trkpt lat="43.40992" lon="3.57008">
        <ele>54</ele>
        <time>2015-08-06T16:19:00Z</time>
      </trkpt>
      <trkpt lat="43.40962" lon="3.56969">
        <ele>52</ele>
        <time>2015-08-06T16:19:06Z</time>
      </trkpt>
      <trkpt lat="43.40939" lon="3.56928">
        <ele>54</ele>
        <time>2015-08-06T16:19:12Z</time>
      </trkpt>
      <trkpt lat="43.40917" lon="3.56878">
        <ele>53</ele>
        <time>2015-08-06T16:19:18Z</time>
      </trkpt>
      <trkpt lat="43.40902" lon="3.56837">
        <ele>55</ele>
        <time>2015-08-06T16:19:23Z</time>
      </trkpt>
      <trkpt lat="43.40879" lon="3.56789">
        <ele>54</ele>
        <time>2015-08-06T16:19:29Z</time>
      </trkpt>
      <trkpt lat="43.40858" lon="3.56742">
        <ele>55</ele>
        <time>2015-08-06T16:19:36Z</time>
      </trkpt>
      <trkpt lat="43.40838" lon="3.56695">
        <ele>54</ele>
        <time>2015-08-06T16:19:41Z</time>
      </trkpt>
      <trkpt lat="43.40814" lon="3.56654">
        <ele>56</ele>
        <time>2015-08-06T16:19:47Z</time>
      </trkpt>
      <trkpt lat="43.40795" lon="3.56618">
        <ele>61</ele>
        <time>2015-08-06T16:19:53Z</time>
      </trkpt>
      <trkpt lat="43.4077" lon="3.56582">
        <ele>60</ele>
        <time>2015-08-06T16:19:59Z</time>
      </trkpt>
      <trkpt lat="43.40747" lon="3.56555">
        <ele>60</ele>
        <time>2015-08-06T16:20:04Z</time>
      </trkpt>
      <trkpt lat="43.40725" lon="3.56532">
        <ele>59</ele>
        <time>2015-08-06T16:20:09Z</time>
      </trkpt>
      <trkpt lat="43.40699" lon="3.56503">
        <ele>60</ele>
        <time>2015-08-06T16:20:15Z</time>
      </trkpt>
      <trkpt lat="43.40675" lon="3.56478">
        <ele>60</ele>
        <time>2015-08-06T16:20:21Z</time>
      </trkpt>
      <trkpt lat="43.40654" lon="3.5645">
        <ele>60</ele>
        <time>2015-08-06T16:20:26Z</time>
      </trkpt>
      <trkpt lat="43.4063" lon="3.5642">
        <ele>59</ele>
        <time>2015-08-06T16:20:31Z</time>
      </trkpt>
      <trkpt lat="43.40611" lon="3.56393">
        <ele>59</ele>
        <time>2015-08-06T16:20:36Z</time>
      </trkpt>
      <trkpt lat="43.4059" lon="3.56359">
        <ele>56</ele>
        <time>2015-08-06T16:20:42Z</time>
      </trkpt>
      <trkpt lat="43.40559" lon="3.56337">
        <ele>54</ele>
        <time>2015-08-06T16:20:47Z</time>
      </trkpt>
      <trkpt lat="43.40537" lon="3.56309">
        <ele>59</ele>
        <time>2015-08-06T16:20:52Z</time>
      </trkpt>
      <trkpt lat="43.40519" lon="3.56283">
        <ele>61</ele>
        <time>2015-08-06T16:20:58Z</time>
      </trkpt>
      <trkpt lat="43.40495" lon="3.56251">
        <ele>62</ele>
        <time>2015-08-06T16:21:03Z</time>
      </trkpt>
      <trkpt lat="43.40464" lon="3.56221">
        <ele>63</ele>
        <time>2015-08-06T16:21:09Z</time>
      </trkpt>
      <trkpt lat="43.4044" lon="3.56197">
        <ele>64</ele>
        <time>2015-08-06T16:21:14Z</time>
      </trkpt>
      <trkpt lat="43.40415" lon="3.56172">
        <ele>63</ele>
        <time>2015-08-06T16:21:19Z</time>
      </trkpt>
      <trkpt lat="43.40387" lon="3.56141">
        <ele>60</ele>
        <time>2015-08-06T16:21:25Z</time>
      </trkpt>
      <trkpt lat="43.4036" lon="3.56113">
        <ele>61</ele>
        <time>2015-08-06T16:21:31Z</time>
      </trkpt>
      <trkpt lat="43.40337" lon="3.56088">
        <ele>60</ele>
        <time>2015-08-06T16:21:36Z</time>
      </trkpt>
      <trkpt lat="43.40316" lon="3.56062">
        <ele>60</ele>
        <time>2015-08-06T16:21:41Z</time>
      </trkpt>
      <trkpt lat="43.40295" lon="3.5604">
        <ele>61</ele>
        <time>2015-08-06T16:21:46Z</time>
      </trkpt>
      <trkpt lat="43.40276" lon="3.56016">
        <ele>63</ele>
        <time>2015-08-06T16:21:52Z</time>
      </trkpt>
      <trkpt lat="43.40255" lon="3.55987">
        <ele>65</ele>
        <time>2015-08-06T16:21:57Z</time>
      </trkpt>
      <trkpt lat="43.40239" lon="3.55965">
        <ele>68</ele>
        <time>2015-08-06T16:22:02Z</time>
      </trkpt>
      <trkpt lat="43.40217" lon="3.55943">
        <ele>69</ele>
        <time>2015-08-06T16:22:08Z</time>
      </trkpt>
      <trkpt lat="43.40196" lon="3.55921">
        <ele>71</ele>
        <time>2015-08-06T16:22:15Z</time>
      </trkpt>
      <trkpt lat="43.40175" lon="3.55904">
        <ele>72</ele>
        <time>2015-08-06T16:22:20Z</time>
      </trkpt>
      <trkpt lat="43.40166" lon="3.55893">
        <ele>72</ele>
        <time>2015-08-06T16:22:26Z</time>
      </trkpt>
      <trkpt lat="43.40168" lon="3.55894">
        <ele>72</ele>
        <time>2015-08-06T16:22:31Z</time>
      </trkpt>
      <trkpt lat="43.40169" lon="3.55894">
        <ele>71</ele>
        <time>2015-08-06T16:22:37Z</time>
      </trkpt>
      <trkpt lat="43.40169" lon="3.55894">
        <ele>71</ele>
        <time>2015-08-06T16:22:44Z</time>
      </trkpt>
      <trkpt lat="43.40169" lon="3.55894">
        <ele>71</ele>
        <time>2015-08-06T16:22:49Z</time>
      </trkpt>
      <trkpt lat="43.40168" lon="3.55894">
        <ele>71</ele>
        <time>2015-08-06T16:22:54Z</time>
      </trkpt>
      <trkpt lat="43.40158" lon="3.55901">
        <ele>70</ele>
        <time>2015-08-06T16:23:00Z</time>
      </trkpt>
      <trkpt lat="43.40149" lon="3.55927">
        <ele>70</ele>
        <time>2015-08-06T16:23:06Z</time>
      </trkpt>
      <trkpt lat="43.40139" lon="3.55952">
        <ele>71</ele>
        <time>2015-08-06T16:23:11Z</time>
      </trkpt>
      <trkpt lat="43.40127" lon="3.55982">
        <ele>70</ele>
        <time>2015-08-06T16:23:17Z</time>
      </trkpt>
      <trkpt lat="43.40114" lon="3.56017">
        <ele>70</ele>
        <time>2015-08-06T16:23:23Z</time>
      </trkpt>
      <trkpt lat="43.40102" lon="3.56043">
        <ele>69</ele>
        <time>2015-08-06T16:23:29Z</time>
      </trkpt>
      <trkpt lat="43.40088" lon="3.56074">
        <ele>69</ele>
        <time>2015-08-06T16:23:34Z</time>
      </trkpt>
      <trkpt lat="43.40079" lon="3.5609">
        <ele>69</ele>
        <time>2015-08-06T16:23:39Z</time>
      </trkpt>
      <trkpt lat="43.40078" lon="3.5609">
        <ele>69.343276977539</ele>
        <time>2015-08-06T16:23:45Z</time>
      </trkpt>
      <trkpt lat="43.40079" lon="3.56089">
        <ele>69</ele>
        <time>2015-08-06T16:23:50Z</time>
      </trkpt>
      <trkpt lat="43.40079" lon="3.56089">
        <ele>69</ele>
        <time>2015-08-06T16:23:55Z</time>
      </trkpt>
      <trkpt lat="43.40079" lon="3.56089">
        <ele>69</ele>
        <time>2015-08-06T16:24:01Z</time>
      </trkpt>
      <trkpt lat="43.40078" lon="3.5609">
        <ele>69</ele>
        <time>2015-08-06T16:24:06Z</time>
      </trkpt>
      <trkpt lat="43.40076" lon="3.561">
        <ele>69</ele>
        <time>2015-08-06T16:24:11Z</time>
      </trkpt>
      <trkpt lat="43.40067" lon="3.56119">
        <ele>67</ele>
        <time>2015-08-06T16:24:17Z</time>
      </trkpt>
      <trkpt lat="43.40056" lon="3.56149">
        <ele>67</ele>
        <time>2015-08-06T16:24:23Z</time>
      </trkpt>
      <trkpt lat="43.40041" lon="3.56184">
        <ele>66</ele>
        <time>2015-08-06T16:24:29Z</time>
      </trkpt>
      <trkpt lat="43.40027" lon="3.56218">
        <ele>66</ele>
        <time>2015-08-06T16:24:34Z</time>
      </trkpt>
      <trkpt lat="43.4001" lon="3.56251">
        <ele>67</ele>
        <time>2015-08-06T16:24:40Z</time>
      </trkpt>
      <trkpt lat="43.39997" lon="3.56283">
        <ele>64</ele>
        <time>2015-08-06T16:24:46Z</time>
      </trkpt>
      <trkpt lat="43.39979" lon="3.56316">
        <ele>65</ele>
        <time>2015-08-06T16:24:51Z</time>
      </trkpt>
      <trkpt lat="43.39964" lon="3.56347">
        <ele>65</ele>
        <time>2015-08-06T16:24:57Z</time>
      </trkpt>
      <trkpt lat="43.39953" lon="3.56376">
        <ele>64</ele>
        <time>2015-08-06T16:25:02Z</time>
      </trkpt>
      <trkpt lat="43.39928" lon="3.56387">
        <ele>65</ele>
        <time>2015-08-06T16:25:08Z</time>
      </trkpt>
      <trkpt lat="43.39904" lon="3.5638">
        <ele>61</ele>
        <time>2015-08-06T16:25:13Z</time>
      </trkpt>
      <trkpt lat="43.39871" lon="3.56352">
        <ele>60</ele>
        <time>2015-08-06T16:25:19Z</time>
      </trkpt>
      <trkpt lat="43.39844" lon="3.5633">
        <ele>59</ele>
        <time>2015-08-06T16:25:25Z</time>
      </trkpt>
      <trkpt lat="43.39832" lon="3.56351">
        <ele>58</ele>
        <time>2015-08-06T16:25:31Z</time>
      </trkpt>
      <trkpt lat="43.39819" lon="3.56385">
        <ele>61</ele>
        <time>2015-08-06T16:25:36Z</time>
      </trkpt>
      <trkpt lat="43.39806" lon="3.56412">
        <ele>59</ele>
        <time>2015-08-06T16:25:41Z</time>
      </trkpt>
      <trkpt lat="43.39788" lon="3.56446">
        <ele>58</ele>
        <time>2015-08-06T16:25:47Z</time>
      </trkpt>
      <trkpt lat="43.39771" lon="3.56484">
        <ele>60</ele>
        <time>2015-08-06T16:25:53Z</time>
      </trkpt>
      <trkpt lat="43.39755" lon="3.5652">
        <ele>60</ele>
        <time>2015-08-06T16:25:59Z</time>
      </trkpt>
      <trkpt lat="43.39736" lon="3.56558">
        <ele>59</ele>
        <time>2015-08-06T16:26:05Z</time>
      </trkpt>
      <trkpt lat="43.39709" lon="3.56581">
        <ele>59</ele>
        <time>2015-08-06T16:26:11Z</time>
      </trkpt>
      <trkpt lat="43.39684" lon="3.5659">
        <ele>55</ele>
        <time>2015-08-06T16:26:16Z</time>
      </trkpt>
      <trkpt lat="43.39654" lon="3.56561">
        <ele>51</ele>
        <time>2015-08-06T16:26:22Z</time>
      </trkpt>
      <trkpt lat="43.39631" lon="3.56535">
        <ele>52</ele>
        <time>2015-08-06T16:26:27Z</time>
      </trkpt>
      <trkpt lat="43.39605" lon="3.56502">
        <ele>51</ele>
        <time>2015-08-06T16:26:33Z</time>
      </trkpt>
      <trkpt lat="43.39577" lon="3.56469">
        <ele>52</ele>
        <time>2015-08-06T16:26:39Z</time>
      </trkpt>
      <trkpt lat="43.39557" lon="3.56443">
        <ele>51</ele>
        <time>2015-08-06T16:26:44Z</time>
      </trkpt>
      <trkpt lat="43.39534" lon="3.56422">
        <ele>50</ele>
        <time>2015-08-06T16:26:49Z</time>
      </trkpt>
      <trkpt lat="43.3951" lon="3.56397">
        <ele>53</ele>
        <time>2015-08-06T16:26:55Z</time>
      </trkpt>
      <trkpt lat="43.39503" lon="3.56378">
        <ele>52</ele>
        <time>2015-08-06T16:27:00Z</time>
      </trkpt>
      <trkpt lat="43.39493" lon="3.56372">
        <ele>50</ele>
        <time>2015-08-06T16:27:06Z</time>
      </trkpt>
      <trkpt lat="43.39478" lon="3.56361">
        <ele>51</ele>
        <time>2015-08-06T16:27:12Z</time>
      </trkpt>
      <trkpt lat="43.39455" lon="3.56344">
        <ele>52</ele>
        <time>2015-08-06T16:27:18Z</time>
      </trkpt>
      <trkpt lat="43.39431" lon="3.56325">
        <ele>52</ele>
        <time>2015-08-06T16:27:23Z</time>
      </trkpt>
      <trkpt lat="43.39412" lon="3.56307">
        <ele>60</ele>
        <time>2015-08-06T16:27:28Z</time>
      </trkpt>
      <trkpt lat="43.39389" lon="3.56288">
        <ele>62</ele>
        <time>2015-08-06T16:27:34Z</time>
      </trkpt>
      <trkpt lat="43.39382" lon="3.5627">
        <ele>60</ele>
        <time>2015-08-06T16:27:39Z</time>
      </trkpt>
      <trkpt lat="43.39372" lon="3.5626">
        <ele>61</ele>
        <time>2015-08-06T16:27:45Z</time>
      </trkpt>
      <trkpt lat="43.39356" lon="3.56252">
        <ele>62</ele>
        <time>2015-08-06T16:27:50Z</time>
      </trkpt>
      <trkpt lat="43.39345" lon="3.56243">
        <ele>63</ele>
        <time>2015-08-06T16:27:56Z</time>
      </trkpt>
      <trkpt lat="43.39322" lon="3.56228">
        <ele>63</ele>
        <time>2015-08-06T16:28:01Z</time>
      </trkpt>
      <trkpt lat="43.39295" lon="3.56219">
        <ele>51</ele>
        <time>2015-08-06T16:28:07Z</time>
      </trkpt>
      <trkpt lat="43.39269" lon="3.56201">
        <ele>51</ele>
        <time>2015-08-06T16:28:12Z</time>
      </trkpt>
      <trkpt lat="43.3925" lon="3.5619">
        <ele>64</ele>
        <time>2015-08-06T16:28:18Z</time>
      </trkpt>
      <trkpt lat="43.3923" lon="3.56176">
        <ele>50</ele>
        <time>2015-08-06T16:28:23Z</time>
      </trkpt>
      <trkpt lat="43.39211" lon="3.56146">
        <ele>52</ele>
        <time>2015-08-06T16:28:29Z</time>
      </trkpt>
      <trkpt lat="43.39194" lon="3.56126">
        <ele>52</ele>
        <time>2015-08-06T16:28:35Z</time>
      </trkpt>
      <trkpt lat="43.39186" lon="3.56119">
        <ele>51</ele>
        <time>2015-08-06T16:28:40Z</time>
      </trkpt>
      <trkpt lat="43.39188" lon="3.56117">
        <ele>52</ele>
        <time>2015-08-06T16:28:46Z</time>
      </trkpt>
      <trkpt lat="43.39189" lon="3.56116">
        <ele>52</ele>
        <time>2015-08-06T16:28:52Z</time>
      </trkpt>
      <trkpt lat="43.3919" lon="3.56117">
        <ele>51</ele>
        <time>2015-08-06T16:28:57Z</time>
      </trkpt>
      <trkpt lat="43.39196" lon="3.56098">
        <ele>54</ele>
        <time>2015-08-06T16:29:03Z</time>
      </trkpt>
      <trkpt lat="43.39206" lon="3.56059">
        <ele>54</ele>
        <time>2015-08-06T16:29:09Z</time>
      </trkpt>
      <trkpt lat="43.39219" lon="3.56022">
        <ele>55</ele>
        <time>2015-08-06T16:29:14Z</time>
      </trkpt>
      <trkpt lat="43.39232" lon="3.55992">
        <ele>53</ele>
        <time>2015-08-06T16:29:20Z</time>
      </trkpt>
      <trkpt lat="43.39244" lon="3.55979">
        <ele>53</ele>
        <time>2015-08-06T16:29:25Z</time>
      </trkpt>
      <trkpt lat="43.39258" lon="3.55992">
        <ele>53</ele>
        <time>2015-08-06T16:29:31Z</time>
      </trkpt>
      <trkpt lat="43.39268" lon="3.55985">
        <ele>53</ele>
        <time>2015-08-06T16:29:37Z</time>
      </trkpt>
      <trkpt lat="43.39275" lon="3.55953">
        <ele>53</ele>
        <time>2015-08-06T16:29:43Z</time>
      </trkpt>
      <trkpt lat="43.39279" lon="3.55916">
        <ele>54</ele>
        <time>2015-08-06T16:29:48Z</time>
      </trkpt>
      <trkpt lat="43.39284" lon="3.55878">
        <ele>54</ele>
        <time>2015-08-06T16:29:55Z</time>
      </trkpt>
      <trkpt lat="43.39291" lon="3.5584">
        <ele>55</ele>
        <time>2015-08-06T16:30:00Z</time>
      </trkpt>
      <trkpt lat="43.39294" lon="3.55806">
        <ele>54</ele>
        <time>2015-08-06T16:30:05Z</time>
      </trkpt>
      <trkpt lat="43.39294" lon="3.55765">
        <ele>53</ele>
        <time>2015-08-06T16:30:11Z</time>
      </trkpt>
      <trkpt lat="43.39278" lon="3.55732">
        <ele>56</ele>
        <time>2015-08-06T16:30:17Z</time>
      </trkpt>
      <trkpt lat="43.39262" lon="3.55708">
        <ele>57</ele>
        <time>2015-08-06T16:30:23Z</time>
      </trkpt>
      <trkpt lat="43.3925" lon="3.55683">
        <ele>58</ele>
        <time>2015-08-06T16:30:30Z</time>
      </trkpt>
      <trkpt lat="43.39242" lon="3.55673">
        <ele>59</ele>
        <time>2015-08-06T16:30:35Z</time>
      </trkpt>
      <trkpt lat="43.39228" lon="3.55655">
        <ele>60</ele>
        <time>2015-08-06T16:30:42Z</time>
      </trkpt>
      <trkpt lat="43.3921" lon="3.55642">
        <ele>58</ele>
        <time>2015-08-06T16:30:47Z</time>
      </trkpt>
      <trkpt lat="43.39194" lon="3.55629">
        <ele>57</ele>
        <time>2015-08-06T16:30:53Z</time>
      </trkpt>
      <trkpt lat="43.39177" lon="3.55612">
        <ele>56</ele>
        <time>2015-08-06T16:30:58Z</time>
      </trkpt>
      <trkpt lat="43.39163" lon="3.55594">
        <ele>57</ele>
        <time>2015-08-06T16:31:03Z</time>
      </trkpt>
      <trkpt lat="43.39145" lon="3.55574">
        <ele>57</ele>
        <time>2015-08-06T16:31:09Z</time>
      </trkpt>
      <trkpt lat="43.39129" lon="3.55557">
        <ele>57</ele>
        <time>2015-08-06T16:31:14Z</time>
      </trkpt>
      <trkpt lat="43.39111" lon="3.55537">
        <ele>57</ele>
        <time>2015-08-06T16:31:20Z</time>
      </trkpt>
      <trkpt lat="43.3909" lon="3.55518">
        <ele>59</ele>
        <time>2015-08-06T16:31:27Z</time>
      </trkpt>
      <trkpt lat="43.39069" lon="3.55499">
        <ele>58</ele>
        <time>2015-08-06T16:31:32Z</time>
      </trkpt>
      <trkpt lat="43.39046" lon="3.55476">
        <ele>58</ele>
        <time>2015-08-06T16:31:38Z</time>
      </trkpt>
      <trkpt lat="43.39039" lon="3.55463">
        <ele>58</ele>
        <time>2015-08-06T16:31:43Z</time>
      </trkpt>
      <trkpt lat="43.39043" lon="3.55461">
        <ele>59</ele>
        <time>2015-08-06T16:31:50Z</time>
      </trkpt>
      <trkpt lat="43.39044" lon="3.55461">
        <ele>60</ele>
        <time>2015-08-06T16:31:55Z</time>
      </trkpt>
      <trkpt lat="43.39044" lon="3.55461">
        <ele>61</ele>
        <time>2015-08-06T16:32:01Z</time>
      </trkpt>
      <trkpt lat="43.39044" lon="3.55461">
        <ele>62</ele>
        <time>2015-08-06T16:32:07Z</time>
      </trkpt>
      <trkpt lat="43.39044" lon="3.55461">
        <ele>62</ele>
        <time>2015-08-06T16:32:12Z</time>
      </trkpt>
      <trkpt lat="43.39044" lon="3.55461">
        <ele>62</ele>
        <time>2015-08-06T16:32:18Z</time>
      </trkpt>
      <trkpt lat="43.39033" lon="3.5545">
        <ele>60</ele>
        <time>2015-08-06T16:32:24Z</time>
      </trkpt>
      <trkpt lat="43.39016" lon="3.5542">
        <ele>59</ele>
        <time>2015-08-06T16:32:30Z</time>
      </trkpt>
      <trkpt lat="43.38997" lon="3.55392">
        <ele>58</ele>
        <time>2015-08-06T16:32:35Z</time>
      </trkpt>
      <trkpt lat="43.38974" lon="3.55362">
        <ele>60</ele>
        <time>2015-08-06T16:32:41Z</time>
      </trkpt>
      <trkpt lat="43.38947" lon="3.55329">
        <ele>59</ele>
        <time>2015-08-06T16:32:47Z</time>
      </trkpt>
      <trkpt lat="43.38925" lon="3.55305">
        <ele>60</ele>
        <time>2015-08-06T16:32:52Z</time>
      </trkpt>
      <trkpt lat="43.38905" lon="3.55278">
        <ele>59</ele>
        <time>2015-08-06T16:32:58Z</time>
      </trkpt>
      <trkpt lat="43.38872" lon="3.55248">
        <ele>58</ele>
        <time>2015-08-06T16:33:03Z</time>
      </trkpt>
      <trkpt lat="43.38846" lon="3.55226">
        <ele>58</ele>
        <time>2015-08-06T16:33:09Z</time>
      </trkpt>
      <trkpt lat="43.38816" lon="3.55205">
        <ele>57</ele>
        <time>2015-08-06T16:33:14Z</time>
      </trkpt>
      <trkpt lat="43.38792" lon="3.55181">
        <ele>57</ele>
        <time>2015-08-06T16:33:20Z</time>
      </trkpt>
      <trkpt lat="43.38763" lon="3.55141">
        <ele>55</ele>
        <time>2015-08-06T16:33:25Z</time>
      </trkpt>
      <trkpt lat="43.38746" lon="3.55116">
        <ele>55</ele>
        <time>2015-08-06T16:33:30Z</time>
      </trkpt>
      <trkpt lat="43.3874" lon="3.55099">
        <ele>55</ele>
        <time>2015-08-06T16:33:35Z</time>
      </trkpt>
      <trkpt lat="43.38737" lon="3.55068">
        <ele>50</ele>
        <time>2015-08-06T16:33:40Z</time>
      </trkpt>
      <trkpt lat="43.3873" lon="3.55029">
        <ele>50</ele>
        <time>2015-08-06T16:33:46Z</time>
      </trkpt>
      <trkpt lat="43.3872" lon="3.5499">
        <ele>48</ele>
        <time>2015-08-06T16:33:51Z</time>
      </trkpt>
      <trkpt lat="43.38708" lon="3.54938">
        <ele>56</ele>
        <time>2015-08-06T16:33:56Z</time>
      </trkpt>
      <trkpt lat="43.38699" lon="3.549">
        <ele>57</ele>
        <time>2015-08-06T16:34:02Z</time>
      </trkpt>
      <trkpt lat="43.3869" lon="3.5488">
        <ele>57</ele>
        <time>2015-08-06T16:34:08Z</time>
      </trkpt>
      <trkpt lat="43.38679" lon="3.54897">
        <ele>58</ele>
        <time>2015-08-06T16:34:13Z</time>
      </trkpt>
      <trkpt lat="43.38687" lon="3.54893">
        <ele>58</ele>
        <time>2015-08-06T16:34:19Z</time>
      </trkpt>
      <trkpt lat="43.38693" lon="3.54869">
        <ele>58</ele>
        <time>2015-08-06T16:34:25Z</time>
      </trkpt>
      <trkpt lat="43.387" lon="3.54837">
        <ele>58</ele>
        <time>2015-08-06T16:34:31Z</time>
      </trkpt>
      <trkpt lat="43.38707" lon="3.54807">
        <ele>59</ele>
        <time>2015-08-06T16:34:36Z</time>
      </trkpt>
      <trkpt lat="43.38701" lon="3.54764">
        <ele>58</ele>
        <time>2015-08-06T16:34:42Z</time>
      </trkpt>
      <trkpt lat="43.38695" lon="3.54724">
        <ele>58</ele>
        <time>2015-08-06T16:34:47Z</time>
      </trkpt>
      <trkpt lat="43.38685" lon="3.54677">
        <ele>55</ele>
        <time>2015-08-06T16:34:53Z</time>
      </trkpt>
      <trkpt lat="43.38677" lon="3.54639">
        <ele>56</ele>
        <time>2015-08-06T16:34:58Z</time>
      </trkpt>
      <trkpt lat="43.38667" lon="3.54596">
        <ele>55</ele>
        <time>2015-08-06T16:35:04Z</time>
      </trkpt>
      <trkpt lat="43.38658" lon="3.54556">
        <ele>54</ele>
        <time>2015-08-06T16:35:10Z</time>
      </trkpt>
      <trkpt lat="43.38648" lon="3.54515">
        <ele>53</ele>
        <time>2015-08-06T16:35:16Z</time>
      </trkpt>
      <trkpt lat="43.3864" lon="3.54477">
        <ele>52</ele>
        <time>2015-08-06T16:35:22Z</time>
      </trkpt>
      <trkpt lat="43.38634" lon="3.54448">
        <ele>54</ele>
        <time>2015-08-06T16:35:27Z</time>
      </trkpt>
      <trkpt lat="43.38625" lon="3.54423">
        <ele>54</ele>
        <time>2015-08-06T16:35:34Z</time>
      </trkpt>
      <trkpt lat="43.38613" lon="3.54395">
        <ele>56</ele>
        <time>2015-08-06T16:35:40Z</time>
      </trkpt>
      <trkpt lat="43.38574" lon="3.54583">
        <ele>56</ele>
        <time>2015-08-06T16:35:47Z</time>
      </trkpt>
      <trkpt lat="43.38542" lon="3.54547">
        <ele>55</ele>
        <time>2015-08-06T16:35:53Z</time>
      </trkpt>
      <trkpt lat="43.38495" lon="3.54516">
        <ele>56</ele>
        <time>2015-08-06T16:35:59Z</time>
      </trkpt>
      <trkpt lat="43.38469" lon="3.54493">
        <ele>45</ele>
        <time>2015-08-06T16:36:05Z</time>
      </trkpt>
      <trkpt lat="43.38456" lon="3.54432">
        <ele>59</ele>
        <time>2015-08-06T16:36:12Z</time>
      </trkpt>
      <trkpt lat="43.38427" lon="3.54374">
        <ele>48</ele>
        <time>2015-08-06T16:36:18Z</time>
      </trkpt>
      <trkpt lat="43.38404" lon="3.54347">
        <ele>50</ele>
        <time>2015-08-06T16:36:24Z</time>
      </trkpt>
      <trkpt lat="43.38409" lon="3.54303">
        <ele>65</ele>
        <time>2015-08-06T16:36:30Z</time>
      </trkpt>
      <trkpt lat="43.38431" lon="3.54026">
        <ele>61</ele>
        <time>2015-08-06T16:36:37Z</time>
      </trkpt>
      <trkpt lat="43.38424" lon="3.53974">
        <ele>58</ele>
        <time>2015-08-06T16:36:43Z</time>
      </trkpt>
      <trkpt lat="43.38439" lon="3.53932">
        <ele>62</ele>
        <time>2015-08-06T16:36:49Z</time>
      </trkpt>
      <trkpt lat="43.38433" lon="3.53888">
        <ele>61</ele>
        <time>2015-08-06T16:36:55Z</time>
      </trkpt>
      <trkpt lat="43.38411" lon="3.53851">
        <ele>61</ele>
        <time>2015-08-06T16:37:01Z</time>
      </trkpt>
      <trkpt lat="43.38389" lon="3.53814">
        <ele>61</ele>
        <time>2015-08-06T16:37:07Z</time>
      </trkpt>
      <trkpt lat="43.38368" lon="3.53779">
        <ele>64</ele>
        <time>2015-08-06T16:37:13Z</time>
      </trkpt>
      <trkpt lat="43.38347" lon="3.53754">
        <ele>62</ele>
        <time>2015-08-06T16:37:18Z</time>
      </trkpt>
      <trkpt lat="43.38322" lon="3.53731">
        <ele>62</ele>
        <time>2015-08-06T16:37:23Z</time>
      </trkpt>
      <trkpt lat="43.38295" lon="3.53706">
        <ele>60</ele>
        <time>2015-08-06T16:37:29Z</time>
      </trkpt>
      <trkpt lat="43.38272" lon="3.53686">
        <ele>60</ele>
        <time>2015-08-06T16:37:34Z</time>
      </trkpt>
      <trkpt lat="43.38244" lon="3.53659">
        <ele>60</ele>
        <time>2015-08-06T16:37:40Z</time>
      </trkpt>
      <trkpt lat="43.38212" lon="3.53635">
        <ele>58</ele>
        <time>2015-08-06T16:37:46Z</time>
      </trkpt>
      <trkpt lat="43.38189" lon="3.53617">
        <ele>57</ele>
        <time>2015-08-06T16:37:51Z</time>
      </trkpt>
      <trkpt lat="43.38165" lon="3.53601">
        <ele>57</ele>
        <time>2015-08-06T16:37:56Z</time>
      </trkpt>
      <trkpt lat="43.38142" lon="3.53588">
        <ele>57</ele>
        <time>2015-08-06T16:38:01Z</time>
      </trkpt>
      <trkpt lat="43.38117" lon="3.53579">
        <ele>57</ele>
        <time>2015-08-06T16:38:07Z</time>
      </trkpt>
      <trkpt lat="43.38106" lon="3.53559">
        <ele>57</ele>
        <time>2015-08-06T16:38:13Z</time>
      </trkpt>
      <trkpt lat="43.38102" lon="3.5354">
        <ele>57</ele>
        <time>2015-08-06T16:38:19Z</time>
      </trkpt>
      <trkpt lat="43.38106" lon="3.53543">
        <ele>57</ele>
        <time>2015-08-06T16:38:24Z</time>
      </trkpt>
      <trkpt lat="43.38106" lon="3.53543">
        <ele>58</ele>
        <time>2015-08-06T16:38:29Z</time>
      </trkpt>
      <trkpt lat="43.38106" lon="3.53543">
        <ele>57</ele>
        <time>2015-08-06T16:38:34Z</time>
      </trkpt>
      <trkpt lat="43.38106" lon="3.53543">
        <ele>57</ele>
        <time>2015-08-06T16:38:40Z</time>
      </trkpt>
      <trkpt lat="43.38106" lon="3.53543">
        <ele>57</ele>
        <time>2015-08-06T16:38:46Z</time>
      </trkpt>
      <trkpt lat="43.38106" lon="3.53543">
        <ele>58</ele>
        <time>2015-08-06T16:38:51Z</time>
      </trkpt>
      <trkpt lat="43.38106" lon="3.53543">
        <ele>57</ele>
        <time>2015-08-06T16:38:56Z</time>
      </trkpt>
      <trkpt lat="43.38106" lon="3.53543">
        <ele>58</ele>
        <time>2015-08-06T16:39:02Z</time>
      </trkpt>
      <trkpt lat="43.38104" lon="3.5354">
        <ele>57</ele>
        <time>2015-08-06T16:39:08Z</time>
      </trkpt>
      <trkpt lat="43.38106" lon="3.53539">
        <ele>59</ele>
        <time>2015-08-06T16:39:13Z</time>
      </trkpt>
      <trkpt lat="43.38106" lon="3.5354">
        <ele>61</ele>
        <time>2015-08-06T16:39:18Z</time>
      </trkpt>
      <trkpt lat="43.38103" lon="3.53531">
        <ele>59</ele>
        <time>2015-08-06T16:39:24Z</time>
      </trkpt>
      <trkpt lat="43.38082" lon="3.53524">
        <ele>58</ele>
        <time>2015-08-06T16:39:29Z</time>
      </trkpt>
      <trkpt lat="43.38047" lon="3.53516">
        <ele>59</ele>
        <time>2015-08-06T16:39:35Z</time>
      </trkpt>
      <trkpt lat="43.38014" lon="3.53507">
        <ele>59</ele>
        <time>2015-08-06T16:39:41Z</time>
      </trkpt>
      <trkpt lat="43.37978" lon="3.535">
        <ele>57</ele>
        <time>2015-08-06T16:39:47Z</time>
      </trkpt>
      <trkpt lat="43.37953" lon="3.53491">
        <ele>59</ele>
        <time>2015-08-06T16:39:52Z</time>
      </trkpt>
      <trkpt lat="43.37923" lon="3.53484">
        <ele>60</ele>
        <time>2015-08-06T16:39:57Z</time>
      </trkpt>
      <trkpt lat="43.37895" lon="3.53479">
        <ele>61</ele>
        <time>2015-08-06T16:40:02Z</time>
      </trkpt>
      <trkpt lat="43.37863" lon="3.53471">
        <ele>61</ele>
        <time>2015-08-06T16:40:08Z</time>
      </trkpt>
      <trkpt lat="43.37832" lon="3.53463">
        <ele>62</ele>
        <time>2015-08-06T16:40:14Z</time>
      </trkpt>
      <trkpt lat="43.37801" lon="3.53454">
        <ele>64</ele>
        <time>2015-08-06T16:40:21Z</time>
      </trkpt>
      <trkpt lat="43.37772" lon="3.53447">
        <ele>65</ele>
        <time>2015-08-06T16:40:26Z</time>
      </trkpt>
      <trkpt lat="43.37746" lon="3.53441">
        <ele>65</ele>
        <time>2015-08-06T16:40:32Z</time>
      </trkpt>
      <trkpt lat="43.37715" lon="3.53431">
        <ele>65</ele>
        <time>2015-08-06T16:40:37Z</time>
      </trkpt>
      <trkpt lat="43.37694" lon="3.53427">
        <ele>65</ele>
        <time>2015-08-06T16:40:43Z</time>
      </trkpt>
      <trkpt lat="43.37695" lon="3.53425">
        <ele>66</ele>
        <time>2015-08-06T16:40:48Z</time>
      </trkpt>
      <trkpt lat="43.37697" lon="3.53425">
        <ele>67</ele>
        <time>2015-08-06T16:40:54Z</time>
      </trkpt>
      <trkpt lat="43.37698" lon="3.53424">
        <ele>68</ele>
        <time>2015-08-06T16:40:59Z</time>
      </trkpt>
      <trkpt lat="43.37694" lon="3.53432">
        <ele>70</ele>
        <time>2015-08-06T16:41:04Z</time>
      </trkpt>
      <trkpt lat="43.37692" lon="3.53455">
        <ele>71</ele>
        <time>2015-08-06T16:41:09Z</time>
      </trkpt>
      <trkpt lat="43.37686" lon="3.53489">
        <ele>69</ele>
        <time>2015-08-06T16:41:14Z</time>
      </trkpt>
      <trkpt lat="43.37682" lon="3.53517">
        <ele>67</ele>
        <time>2015-08-06T16:41:20Z</time>
      </trkpt>
      <trkpt lat="43.37674" lon="3.53559">
        <ele>65</ele>
        <time>2015-08-06T16:41:25Z</time>
      </trkpt>
      <trkpt lat="43.37667" lon="3.53592">
        <ele>65</ele>
        <time>2015-08-06T16:41:31Z</time>
      </trkpt>
      <trkpt lat="43.37659" lon="3.53632">
        <ele>67</ele>
        <time>2015-08-06T16:41:36Z</time>
      </trkpt>
      <trkpt lat="43.37652" lon="3.53671">
        <ele>69</ele>
        <time>2015-08-06T16:41:41Z</time>
      </trkpt>
      <trkpt lat="43.37643" lon="3.53715">
        <ele>69</ele>
        <time>2015-08-06T16:41:47Z</time>
      </trkpt>
      <trkpt lat="43.37637" lon="3.53759">
        <ele>68</ele>
        <time>2015-08-06T16:41:52Z</time>
      </trkpt>
      <trkpt lat="43.3763" lon="3.53798">
        <ele>67</ele>
        <time>2015-08-06T16:41:57Z</time>
      </trkpt>
      <trkpt lat="43.37623" lon="3.53835">
        <ele>67</ele>
        <time>2015-08-06T16:42:03Z</time>
      </trkpt>
      <trkpt lat="43.37622" lon="3.53876">
        <ele>67</ele>
        <time>2015-08-06T16:42:08Z</time>
      </trkpt>
      <trkpt lat="43.37494" lon="3.54177">
        <ele>62</ele>
        <time>2015-08-06T16:42:16Z</time>
      </trkpt>
      <trkpt lat="43.37723" lon="3.54301">
        <ele>60</ele>
        <time>2015-08-06T16:42:21Z</time>
      </trkpt>
      <trkpt lat="43.37487" lon="3.54244">
        <ele>46</ele>
        <time>2015-08-06T16:42:27Z</time>
      </trkpt>
      <trkpt lat="43.37307" lon="3.54261">
        <ele>56</ele>
        <time>2015-08-06T16:43:20Z</time>
      </trkpt>
      <trkpt lat="43.37276" lon="3.5424">
        <ele>66</ele>
        <time>2015-08-06T16:43:27Z</time>
      </trkpt>
      <trkpt lat="43.3727" lon="3.53995">
        <ele>63</ele>
        <time>2015-08-06T16:43:38Z</time>
      </trkpt>
      <trkpt lat="43.37241" lon="3.53978">
        <ele>54</ele>
        <time>2015-08-06T16:43:44Z</time>
      </trkpt>
      <trkpt lat="43.37215" lon="3.53967">
        <ele>53</ele>
        <time>2015-08-06T16:43:49Z</time>
      </trkpt>
      <trkpt lat="43.37188" lon="3.53956">
        <ele>51</ele>
        <time>2015-08-06T16:43:54Z</time>
      </trkpt>
      <trkpt lat="43.37156" lon="3.53942">
        <ele>53</ele>
        <time>2015-08-06T16:44:00Z</time>
      </trkpt>
      <trkpt lat="43.37131" lon="3.53927">
        <ele>51</ele>
        <time>2015-08-06T16:44:06Z</time>
      </trkpt>
      <trkpt lat="43.37096" lon="3.53915">
        <ele>50</ele>
        <time>2015-08-06T16:44:11Z</time>
      </trkpt>
      <trkpt lat="43.37068" lon="3.53911">
        <ele>50</ele>
        <time>2015-08-06T16:44:17Z</time>
      </trkpt>
      <trkpt lat="43.37035" lon="3.53905">
        <ele>51</ele>
        <time>2015-08-06T16:44:22Z</time>
      </trkpt>
      <trkpt lat="43.37016" lon="3.53885">
        <ele>55</ele>
        <time>2015-08-06T16:44:27Z</time>
      </trkpt>
      <trkpt lat="43.36991" lon="3.53853">
        <ele>57</ele>
        <time>2015-08-06T16:44:33Z</time>
      </trkpt>
      <trkpt lat="43.36971" lon="3.53828">
        <ele>58</ele>
        <time>2015-08-06T16:44:38Z</time>
      </trkpt>
      <trkpt lat="43.36946" lon="3.538">
        <ele>58</ele>
        <time>2015-08-06T16:44:44Z</time>
      </trkpt>
      <trkpt lat="43.36926" lon="3.53778">
        <ele>61</ele>
        <time>2015-08-06T16:44:49Z</time>
      </trkpt>
      <trkpt lat="43.36897" lon="3.53751">
        <ele>61</ele>
        <time>2015-08-06T16:44:54Z</time>
      </trkpt>
      <trkpt lat="43.36873" lon="3.53724">
        <ele>60</ele>
        <time>2015-08-06T16:45:01Z</time>
      </trkpt>
      <trkpt lat="43.36853" lon="3.53745">
        <ele>61</ele>
        <time>2015-08-06T16:45:06Z</time>
      </trkpt>
      <trkpt lat="43.36843" lon="3.53784">
        <ele>62</ele>
        <time>2015-08-06T16:45:11Z</time>
      </trkpt>
      <trkpt lat="43.36831" lon="3.53817">
        <ele>65</ele>
        <time>2015-08-06T16:45:17Z</time>
      </trkpt>
      <trkpt lat="43.36804" lon="3.53843">
        <ele>66</ele>
        <time>2015-08-06T16:45:23Z</time>
      </trkpt>
      <trkpt lat="43.3679" lon="3.53889">
        <ele>62</ele>
        <time>2015-08-06T16:45:28Z</time>
      </trkpt>
      <trkpt lat="43.36776" lon="3.53919">
        <ele>65</ele>
        <time>2015-08-06T16:45:33Z</time>
      </trkpt>
      <trkpt lat="43.36755" lon="3.53923">
        <ele>61</ele>
        <time>2015-08-06T16:45:39Z</time>
      </trkpt>
      <trkpt lat="43.3648" lon="3.53566">
        <ele>55</ele>
        <time>2015-08-06T16:46:52Z</time>
      </trkpt>
      <trkpt lat="43.36448" lon="3.53556">
        <ele>53</ele>
        <time>2015-08-06T16:46:58Z</time>
      </trkpt>
      <trkpt lat="43.36418" lon="3.53547">
        <ele>50</ele>
        <time>2015-08-06T16:47:03Z</time>
      </trkpt>
      <trkpt lat="43.36382" lon="3.53534">
        <ele>49</ele>
        <time>2015-08-06T16:47:09Z</time>
      </trkpt>
      <trkpt lat="43.36346" lon="3.53521">
        <ele>49</ele>
        <time>2015-08-06T16:47:15Z</time>
      </trkpt>
      <trkpt lat="43.36319" lon="3.53512">
        <ele>48</ele>
        <time>2015-08-06T16:47:21Z</time>
      </trkpt>
      <trkpt lat="43.36284" lon="3.53495">
        <ele>47</ele>
        <time>2015-08-06T16:47:26Z</time>
      </trkpt>
      <trkpt lat="43.36253" lon="3.53485">
        <ele>48</ele>
        <time>2015-08-06T16:47:31Z</time>
      </trkpt>
      <trkpt lat="43.36221" lon="3.53481">
        <ele>47</ele>
        <time>2015-08-06T16:47:36Z</time>
      </trkpt>
      <trkpt lat="43.36187" lon="3.53477">
        <ele>53</ele>
        <time>2015-08-06T16:47:43Z</time>
      </trkpt>
      <trkpt lat="43.36163" lon="3.53472">
        <ele>55</ele>
        <time>2015-08-06T16:47:48Z</time>
      </trkpt>
      <trkpt lat="43.36145" lon="3.53453">
        <ele>54</ele>
        <time>2015-08-06T16:47:53Z</time>
      </trkpt>
      <trkpt lat="43.36147" lon="3.53462">
        <ele>54</ele>
        <time>2015-08-06T16:47:59Z</time>
      </trkpt>
      <trkpt lat="43.3616" lon="3.53476">
        <ele>54</ele>
        <time>2015-08-06T16:48:04Z</time>
      </trkpt>
      <trkpt lat="43.36177" lon="3.53499">
        <ele>54</ele>
        <time>2015-08-06T16:48:09Z</time>
      </trkpt>
      <trkpt lat="43.36178" lon="3.53541">
        <ele>53</ele>
        <time>2015-08-06T16:48:15Z</time>
      </trkpt>
      <trkpt lat="43.36167" lon="3.53578">
        <ele>48</ele>
        <time>2015-08-06T16:48:21Z</time>
      </trkpt>
      <trkpt lat="43.36138" lon="3.53573">
        <ele>49</ele>
        <time>2015-08-06T16:48:28Z</time>
      </trkpt>
      <trkpt lat="43.36109" lon="3.53564">
        <ele>47</ele>
        <time>2015-08-06T16:48:33Z</time>
      </trkpt>
      <trkpt lat="43.36077" lon="3.53553">
        <ele>49</ele>
        <time>2015-08-06T16:48:39Z</time>
      </trkpt>
      <trkpt lat="43.3605" lon="3.53543">
        <ele>50</ele>
        <time>2015-08-06T16:48:44Z</time>
      </trkpt>
      <trkpt lat="43.36018" lon="3.53536">
        <ele>50</ele>
        <time>2015-08-06T16:48:50Z</time>
      </trkpt>
      <trkpt lat="43.35984" lon="3.53531">
        <ele>50</ele>
        <time>2015-08-06T16:48:57Z</time>
      </trkpt>
      <trkpt lat="43.3595" lon="3.53528">
        <ele>50</ele>
        <time>2015-08-06T16:49:02Z</time>
      </trkpt>
      <trkpt lat="43.35918" lon="3.53524">
        <ele>53</ele>
        <time>2015-08-06T16:49:07Z</time>
      </trkpt>
      <trkpt lat="43.35884" lon="3.53518">
        <ele>52</ele>
        <time>2015-08-06T16:49:13Z</time>
      </trkpt>
      <trkpt lat="43.35848" lon="3.53508">
        <ele>52</ele>
        <time>2015-08-06T16:49:19Z</time>
      </trkpt>
      <trkpt lat="43.35814" lon="3.53493">
        <ele>53</ele>
        <time>2015-08-06T16:49:26Z</time>
      </trkpt>
      <trkpt lat="43.35779" lon="3.53471">
        <ele>55</ele>
        <time>2015-08-06T16:49:31Z</time>
      </trkpt>
      <trkpt lat="43.35749" lon="3.53451">
        <ele>54</ele>
        <time>2015-08-06T16:49:36Z</time>
      </trkpt>
      <trkpt lat="43.35725" lon="3.53425">
        <ele>55</ele>
        <time>2015-08-06T16:49:41Z</time>
      </trkpt>
      <trkpt lat="43.35695" lon="3.53395">
        <ele>56</ele>
        <time>2015-08-06T16:49:47Z</time>
      </trkpt>
      <trkpt lat="43.35665" lon="3.53368">
        <ele>56</ele>
        <time>2015-08-06T16:49:54Z</time>
      </trkpt>
      <trkpt lat="43.35647" lon="3.53352">
        <ele>56</ele>
        <time>2015-08-06T16:50:00Z</time>
      </trkpt>
      <trkpt lat="43.35627" lon="3.53337">
        <ele>57</ele>
        <time>2015-08-06T16:50:05Z</time>
      </trkpt>
      <trkpt lat="43.35603" lon="3.53325">
        <ele>57</ele>
        <time>2015-08-06T16:50:10Z</time>
      </trkpt>
      <trkpt lat="43.35578" lon="3.53313">
        <ele>56</ele>
        <time>2015-08-06T16:50:15Z</time>
      </trkpt>
      <trkpt lat="43.35559" lon="3.53305">
        <ele>56</ele>
        <time>2015-08-06T16:50:21Z</time>
      </trkpt>
      <trkpt lat="43.35544" lon="3.53303">
        <ele>56</ele>
        <time>2015-08-06T16:50:26Z</time>
      </trkpt>
      <trkpt lat="43.35522" lon="3.53291">
        <ele>57</ele>
        <time>2015-08-06T16:50:31Z</time>
      </trkpt>
      <trkpt lat="43.35491" lon="3.53278">
        <ele>55</ele>
        <time>2015-08-06T16:50:37Z</time>
      </trkpt>
      <trkpt lat="43.35465" lon="3.53271">
        <ele>59</ele>
        <time>2015-08-06T16:50:42Z</time>
      </trkpt>
      <trkpt lat="43.3544" lon="3.53264">
        <ele>58</ele>
        <time>2015-08-06T16:50:47Z</time>
      </trkpt>
      <trkpt lat="43.3543" lon="3.53259">
        <ele>57</ele>
        <time>2015-08-06T16:50:53Z</time>
      </trkpt>
      <trkpt lat="43.35418" lon="3.53276">
        <ele>53</ele>
        <time>2015-08-06T16:50:59Z</time>
      </trkpt>
      <trkpt lat="43.3541" lon="3.53305">
        <ele>52</ele>
        <time>2015-08-06T16:51:04Z</time>
      </trkpt>
      <trkpt lat="43.35401" lon="3.53342">
        <ele>52</ele>
        <time>2015-08-06T16:51:10Z</time>
      </trkpt>
      <trkpt lat="43.35391" lon="3.53378">
        <ele>53</ele>
        <time>2015-08-06T16:51:16Z</time>
      </trkpt>
      <trkpt lat="43.35383" lon="3.53415">
        <ele>50</ele>
        <time>2015-08-06T16:51:22Z</time>
      </trkpt>
      <trkpt lat="43.35374" lon="3.53448">
        <ele>51</ele>
        <time>2015-08-06T16:51:29Z</time>
      </trkpt>
      <trkpt lat="43.3536" lon="3.53463">
        <ele>50</ele>
        <time>2015-08-06T16:51:35Z</time>
      </trkpt>
      <trkpt lat="43.35343" lon="3.53448">
        <ele>53</ele>
        <time>2015-08-06T16:51:40Z</time>
      </trkpt>
      <trkpt lat="43.35333" lon="3.53441">
        <ele>56</ele>
        <time>2015-08-06T16:51:46Z</time>
      </trkpt>
      <trkpt lat="43.35329" lon="3.53433">
        <ele>58</ele>
        <time>2015-08-06T16:51:51Z</time>
      </trkpt>
      <trkpt lat="43.35334" lon="3.53407">
        <ele>56</ele>
        <time>2015-08-06T16:51:57Z</time>
      </trkpt>
      <trkpt lat="43.35344" lon="3.53373">
        <ele>58</ele>
        <time>2015-08-06T16:52:02Z</time>
      </trkpt>
      <trkpt lat="43.35351" lon="3.5335">
        <ele>65</ele>
        <time>2015-08-06T16:52:08Z</time>
      </trkpt>
      <trkpt lat="43.35358" lon="3.53324">
        <ele>66</ele>
        <time>2015-08-06T16:52:14Z</time>
      </trkpt>
      <trkpt lat="43.35368" lon="3.53294">
        <ele>67</ele>
        <time>2015-08-06T16:52:20Z</time>
      </trkpt>
      <trkpt lat="43.35377" lon="3.53263">
        <ele>70</ele>
        <time>2015-08-06T16:52:26Z</time>
      </trkpt>
      <trkpt lat="43.35386" lon="3.53233">
        <ele>66</ele>
        <time>2015-08-06T16:52:32Z</time>
      </trkpt>
      <trkpt lat="43.35391" lon="3.53208">
        <ele>67</ele>
        <time>2015-08-06T16:52:38Z</time>
      </trkpt>
      <trkpt lat="43.35401" lon="3.53183">
        <ele>70</ele>
        <time>2015-08-06T16:52:44Z</time>
      </trkpt>
      <trkpt lat="43.35402" lon="3.53159">
        <ele>68</ele>
        <time>2015-08-06T16:52:49Z</time>
      </trkpt>
      <trkpt lat="43.35386" lon="3.5315">
        <ele>68</ele>
        <time>2015-08-06T16:52:55Z</time>
      </trkpt>
      <trkpt lat="43.3537" lon="3.53133">
        <ele>66</ele>
        <time>2015-08-06T16:53:00Z</time>
      </trkpt>
      <trkpt lat="43.35353" lon="3.53126">
        <ele>61</ele>
        <time>2015-08-06T16:53:06Z</time>
      </trkpt>
      <trkpt lat="43.35332" lon="3.53128">
        <ele>61</ele>
        <time>2015-08-06T16:53:11Z</time>
      </trkpt>
      <trkpt lat="43.35305" lon="3.53116">
        <ele>60</ele>
        <time>2015-08-06T16:53:17Z</time>
      </trkpt>
      <trkpt lat="43.35279" lon="3.53101">
        <ele>61</ele>
        <time>2015-08-06T16:53:22Z</time>
      </trkpt>
      <trkpt lat="43.35258" lon="3.53088">
        <ele>65</ele>
        <time>2015-08-06T16:53:28Z</time>
      </trkpt>
      <trkpt lat="43.35227" lon="3.5308">
        <ele>64</ele>
        <time>2015-08-06T16:53:33Z</time>
      </trkpt>
      <trkpt lat="43.35207" lon="3.53091">
        <ele>63</ele>
        <time>2015-08-06T16:53:39Z</time>
      </trkpt>
      <trkpt lat="43.35197" lon="3.53131">
        <ele>65</ele>
        <time>2015-08-06T16:53:45Z</time>
      </trkpt>
      <trkpt lat="43.35184" lon="3.53166">
        <ele>62</ele>
        <time>2015-08-06T16:53:50Z</time>
      </trkpt>
      <trkpt lat="43.35166" lon="3.53163">
        <ele>60</ele>
        <time>2015-08-06T16:53:56Z</time>
      </trkpt>
      <trkpt lat="43.3514" lon="3.53151">
        <ele>60</ele>
        <time>2015-08-06T16:54:02Z</time>
      </trkpt>
      <trkpt lat="43.35109" lon="3.53139">
        <ele>58</ele>
        <time>2015-08-06T16:54:07Z</time>
      </trkpt>
      <trkpt lat="43.35083" lon="3.53125">
        <ele>58</ele>
        <time>2015-08-06T16:54:12Z</time>
      </trkpt>
      <trkpt lat="43.35048" lon="3.5311">
        <ele>56</ele>
        <time>2015-08-06T16:54:19Z</time>
      </trkpt>
      <trkpt lat="43.35015" lon="3.53106">
        <ele>57</ele>
        <time>2015-08-06T16:54:24Z</time>
      </trkpt>
      <trkpt lat="43.34981" lon="3.53101">
        <ele>53</ele>
        <time>2015-08-06T16:54:30Z</time>
      </trkpt>
      <trkpt lat="43.34952" lon="3.531">
        <ele>52</ele>
        <time>2015-08-06T16:54:35Z</time>
      </trkpt>
      <trkpt lat="43.34917" lon="3.531">
        <ele>51</ele>
        <time>2015-08-06T16:54:41Z</time>
      </trkpt>
      <trkpt lat="43.34884" lon="3.53099">
        <ele>53</ele>
        <time>2015-08-06T16:54:47Z</time>
      </trkpt>
      <trkpt lat="43.34853" lon="3.53099">
        <ele>53</ele>
        <time>2015-08-06T16:54:52Z</time>
      </trkpt>
      <trkpt lat="43.34823" lon="3.53099">
        <ele>53</ele>
        <time>2015-08-06T16:54:58Z</time>
      </trkpt>
      <trkpt lat="43.34789" lon="3.53108">
        <ele>50</ele>
        <time>2015-08-06T16:55:03Z</time>
      </trkpt>
      <trkpt lat="43.34757" lon="3.53116">
        <ele>50</ele>
        <time>2015-08-06T16:55:08Z</time>
      </trkpt>
      <trkpt lat="43.34725" lon="3.53123">
        <ele>49</ele>
        <time>2015-08-06T16:55:13Z</time>
      </trkpt>
      <trkpt lat="43.34686" lon="3.53128">
        <ele>49</ele>
        <time>2015-08-06T16:55:19Z</time>
      </trkpt>
      <trkpt lat="43.34648" lon="3.53136">
        <ele>49</ele>
        <time>2015-08-06T16:55:25Z</time>
      </trkpt>
      <trkpt lat="43.34617" lon="3.53141">
        <ele>49</ele>
        <time>2015-08-06T16:55:31Z</time>
      </trkpt>
      <trkpt lat="43.34586" lon="3.53145">
        <ele>51</ele>
        <time>2015-08-06T16:55:36Z</time>
      </trkpt>
      <trkpt lat="43.34547" lon="3.5315">
        <ele>50</ele>
        <time>2015-08-06T16:55:41Z</time>
      </trkpt>
      <trkpt lat="43.34514" lon="3.53153">
        <ele>51</ele>
        <time>2015-08-06T16:55:46Z</time>
      </trkpt>
      <trkpt lat="43.34481" lon="3.53156">
        <ele>52</ele>
        <time>2015-08-06T16:55:51Z</time>
      </trkpt>
      <trkpt lat="43.34443" lon="3.53163">
        <ele>53</ele>
        <time>2015-08-06T16:55:57Z</time>
      </trkpt>
      <trkpt lat="43.34409" lon="3.5318">
        <ele>51</ele>
        <time>2015-08-06T16:56:03Z</time>
      </trkpt>
      <trkpt lat="43.34374" lon="3.53198">
        <ele>53</ele>
        <time>2015-08-06T16:56:09Z</time>
      </trkpt>
      <trkpt lat="43.34346" lon="3.53213">
        <ele>53</ele>
        <time>2015-08-06T16:56:14Z</time>
      </trkpt>
      <trkpt lat="43.34313" lon="3.5323">
        <ele>55</ele>
        <time>2015-08-06T16:56:20Z</time>
      </trkpt>
      <trkpt lat="43.34287" lon="3.53245">
        <ele>52</ele>
        <time>2015-08-06T16:56:26Z</time>
      </trkpt>
      <trkpt lat="43.34255" lon="3.53266">
        <ele>52</ele>
        <time>2015-08-06T16:56:31Z</time>
      </trkpt>
      <trkpt lat="43.34232" lon="3.53283">
        <ele>52</ele>
        <time>2015-08-06T16:56:37Z</time>
      </trkpt>
      <trkpt lat="43.34206" lon="3.53297">
        <ele>52</ele>
        <time>2015-08-06T16:56:43Z</time>
      </trkpt>
      <trkpt lat="43.34199" lon="3.53324">
        <ele>54</ele>
        <time>2015-08-06T16:56:48Z</time>
      </trkpt>
      <trkpt lat="43.34184" lon="3.53348">
        <ele>51</ele>
        <time>2015-08-06T16:56:54Z</time>
      </trkpt>
      <trkpt lat="43.34162" lon="3.53364">
        <ele>52</ele>
        <time>2015-08-06T16:56:59Z</time>
      </trkpt>
      <trkpt lat="43.34137" lon="3.53384">
        <ele>51</ele>
        <time>2015-08-06T16:57:06Z</time>
      </trkpt>
      <trkpt lat="43.34116" lon="3.53399">
        <ele>50</ele>
        <time>2015-08-06T16:57:11Z</time>
      </trkpt>
      <trkpt lat="43.34089" lon="3.53419">
        <ele>54</ele>
        <time>2015-08-06T16:57:16Z</time>
      </trkpt>
      <trkpt lat="43.34067" lon="3.53436">
        <ele>55</ele>
        <time>2015-08-06T16:57:23Z</time>
      </trkpt>
      <trkpt lat="43.34043" lon="3.53454">
        <ele>54</ele>
        <time>2015-08-06T16:57:29Z</time>
      </trkpt>
      <trkpt lat="43.34025" lon="3.53475">
        <ele>53</ele>
        <time>2015-08-06T16:57:34Z</time>
      </trkpt>
      <trkpt lat="43.34001" lon="3.53499">
        <ele>53</ele>
        <time>2015-08-06T16:57:39Z</time>
      </trkpt>
      <trkpt lat="43.33982" lon="3.5352">
        <ele>54</ele>
        <time>2015-08-06T16:57:45Z</time>
      </trkpt>
      <trkpt lat="43.3396" lon="3.53547">
        <ele>54</ele>
        <time>2015-08-06T16:57:50Z</time>
      </trkpt>
      <trkpt lat="43.33939" lon="3.5357">
        <ele>55</ele>
        <time>2015-08-06T16:57:56Z</time>
      </trkpt>
      <trkpt lat="43.33917" lon="3.53602">
        <ele>55</ele>
        <time>2015-08-06T16:58:01Z</time>
      </trkpt>
      <trkpt lat="43.33898" lon="3.53616">
        <ele>53</ele>
        <time>2015-08-06T16:58:07Z</time>
      </trkpt>
      <trkpt lat="43.3388" lon="3.5363">
        <ele>51</ele>
        <time>2015-08-06T16:58:12Z</time>
      </trkpt>
      <trkpt lat="43.33876" lon="3.53629">
        <ele>51</ele>
        <time>2015-08-06T16:58:18Z</time>
      </trkpt>
      <trkpt lat="43.33875" lon="3.53629">
        <ele>51</ele>
        <time>2015-08-06T16:58:23Z</time>
      </trkpt>
      <trkpt lat="43.33875" lon="3.53629">
        <ele>51</ele>
        <time>2015-08-06T16:58:29Z</time>
      </trkpt>
      <trkpt lat="43.33875" lon="3.53629">
        <ele>51</ele>
        <time>2015-08-06T16:58:34Z</time>
      </trkpt>
      <trkpt lat="43.33875" lon="3.53629">
        <ele>51</ele>
        <time>2015-08-06T16:58:40Z</time>
      </trkpt>
      <trkpt lat="43.33875" lon="3.53629">
        <ele>51</ele>
        <time>2015-08-06T16:58:45Z</time>
      </trkpt>
      <trkpt lat="43.33875" lon="3.53629">
        <ele>51</ele>
        <time>2015-08-06T16:58:51Z</time>
      </trkpt>
      <trkpt lat="43.33875" lon="3.53629">
        <ele>51</ele>
        <time>2015-08-06T16:58:57Z</time>
      </trkpt>
      <trkpt lat="43.33875" lon="3.53629">
        <ele>51</ele>
        <time>2015-08-06T16:59:03Z</time>
      </trkpt>
      <trkpt lat="43.33875" lon="3.53629">
        <ele>51</ele>
        <time>2015-08-06T16:59:08Z</time>
      </trkpt>
      <trkpt lat="43.33866" lon="3.53631">
        <ele>54</ele>
        <time>2015-08-06T16:59:14Z</time>
      </trkpt>
      <trkpt lat="43.33847" lon="3.53645">
        <ele>53</ele>
        <time>2015-08-06T16:59:20Z</time>
      </trkpt>
      <trkpt lat="43.33816" lon="3.53656">
        <ele>56</ele>
        <time>2015-08-06T16:59:26Z</time>
      </trkpt>
      <trkpt lat="43.33793" lon="3.53662">
        <ele>56</ele>
        <time>2015-08-06T16:59:31Z</time>
      </trkpt>
      <trkpt lat="43.33762" lon="3.53666">
        <ele>57</ele>
        <time>2015-08-06T16:59:37Z</time>
      </trkpt>
      <trkpt lat="43.33739" lon="3.53669">
        <ele>59</ele>
        <time>2015-08-06T16:59:42Z</time>
      </trkpt>
      <trkpt lat="43.33708" lon="3.53674">
        <ele>55</ele>
        <time>2015-08-06T16:59:47Z</time>
      </trkpt>
      <trkpt lat="43.33673" lon="3.53677">
        <ele>55</ele>
        <time>2015-08-06T16:59:54Z</time>
      </trkpt>
      <trkpt lat="43.33636" lon="3.53682">
        <ele>51</ele>
        <time>2015-08-06T16:59:59Z</time>
      </trkpt>
      <trkpt lat="43.33605" lon="3.53676">
        <ele>52</ele>
        <time>2015-08-06T17:00:04Z</time>
      </trkpt>
      <trkpt lat="43.33571" lon="3.5367">
        <ele>51</ele>
        <time>2015-08-06T17:00:10Z</time>
      </trkpt>
      <trkpt lat="43.33536" lon="3.53653">
        <ele>50</ele>
        <time>2015-08-06T17:00:15Z</time>
      </trkpt>
      <trkpt lat="43.33506" lon="3.53645">
        <ele>50</ele>
        <time>2015-08-06T17:00:20Z</time>
      </trkpt>
      <trkpt lat="43.33468" lon="3.53633">
        <ele>49</ele>
        <time>2015-08-06T17:00:26Z</time>
      </trkpt>
      <trkpt lat="43.33437" lon="3.53621">
        <ele>48</ele>
        <time>2015-08-06T17:00:31Z</time>
      </trkpt>
      <trkpt lat="43.33401" lon="3.53606">
        <ele>48</ele>
        <time>2015-08-06T17:00:37Z</time>
      </trkpt>
      <trkpt lat="43.3337" lon="3.53594">
        <ele>47</ele>
        <time>2015-08-06T17:00:43Z</time>
      </trkpt>
      <trkpt lat="43.33334" lon="3.53584">
        <ele>49</ele>
        <time>2015-08-06T17:00:48Z</time>
      </trkpt>
      <trkpt lat="43.33301" lon="3.53567">
        <ele>49</ele>
        <time>2015-08-06T17:00:54Z</time>
      </trkpt>
      <trkpt lat="43.33271" lon="3.53558">
        <ele>48</ele>
        <time>2015-08-06T17:00:59Z</time>
      </trkpt>
      <trkpt lat="43.33235" lon="3.53551">
        <ele>47</ele>
        <time>2015-08-06T17:01:05Z</time>
      </trkpt>
      <trkpt lat="43.33208" lon="3.53546">
        <ele>48</ele>
        <time>2015-08-06T17:01:10Z</time>
      </trkpt>
      <trkpt lat="43.33185" lon="3.53516">
        <ele>48</ele>
        <time>2015-08-06T17:01:15Z</time>
      </trkpt>
      <trkpt lat="43.33156" lon="3.53481">
        <ele>50</ele>
        <time>2015-08-06T17:01:21Z</time>
      </trkpt>
      <trkpt lat="43.3313" lon="3.53443">
        <ele>50</ele>
        <time>2015-08-06T17:01:27Z</time>
      </trkpt>
      <trkpt lat="43.33107" lon="3.53418">
        <ele>51</ele>
        <time>2015-08-06T17:01:32Z</time>
      </trkpt>
      <trkpt lat="43.33076" lon="3.53384">
        <ele>50</ele>
        <time>2015-08-06T17:01:38Z</time>
      </trkpt>
      <trkpt lat="43.33052" lon="3.53358">
        <ele>50</ele>
        <time>2015-08-06T17:01:43Z</time>
      </trkpt>
      <trkpt lat="43.33026" lon="3.53329">
        <ele>51</ele>
        <time>2015-08-06T17:01:49Z</time>
      </trkpt>
      <trkpt lat="43.33002" lon="3.53306">
        <ele>51</ele>
        <time>2015-08-06T17:01:54Z</time>
      </trkpt>
      <trkpt lat="43.32972" lon="3.53278">
        <ele>51</ele>
        <time>2015-08-06T17:02:00Z</time>
      </trkpt>
      <trkpt lat="43.32943" lon="3.53252">
        <ele>51</ele>
        <time>2015-08-06T17:02:06Z</time>
      </trkpt>
      <trkpt lat="43.3293" lon="3.53217">
        <ele>52</ele>
        <time>2015-08-06T17:02:12Z</time>
      </trkpt>
      <trkpt lat="43.32905" lon="3.53208">
        <ele>53</ele>
        <time>2015-08-06T17:02:17Z</time>
      </trkpt>
      <trkpt lat="43.3287" lon="3.53197">
        <ele>52</ele>
        <time>2015-08-06T17:02:23Z</time>
      </trkpt>
      <trkpt lat="43.32831" lon="3.53176">
        <ele>51</ele>
        <time>2015-08-06T17:02:30Z</time>
      </trkpt>
      <trkpt lat="43.32794" lon="3.53153">
        <ele>51</ele>
        <time>2015-08-06T17:02:35Z</time>
      </trkpt>
      <trkpt lat="43.32766" lon="3.53138">
        <ele>52</ele>
        <time>2015-08-06T17:02:41Z</time>
      </trkpt>
      <trkpt lat="43.3273" lon="3.53124">
        <ele>53</ele>
        <time>2015-08-06T17:02:46Z</time>
      </trkpt>
      <trkpt lat="43.32695" lon="3.53116">
        <ele>52</ele>
        <time>2015-08-06T17:02:51Z</time>
      </trkpt>
      <trkpt lat="43.32657" lon="3.53101">
        <ele>51</ele>
        <time>2015-08-06T17:02:57Z</time>
      </trkpt>
      <trkpt lat="43.32616" lon="3.53095">
        <ele>52</ele>
        <time>2015-08-06T17:03:03Z</time>
      </trkpt>
      <trkpt lat="43.32576" lon="3.531">
        <ele>53</ele>
        <time>2015-08-06T17:03:09Z</time>
      </trkpt>
      <trkpt lat="43.32542" lon="3.53102">
        <ele>56</ele>
        <time>2015-08-06T17:03:14Z</time>
      </trkpt>
      <trkpt lat="43.3251" lon="3.53107">
        <ele>56</ele>
        <time>2015-08-06T17:03:20Z</time>
      </trkpt>
      <trkpt lat="43.32469" lon="3.53113">
        <ele>55</ele>
        <time>2015-08-06T17:03:25Z</time>
      </trkpt>
      <trkpt lat="43.32436" lon="3.53117">
        <ele>55</ele>
        <time>2015-08-06T17:03:30Z</time>
      </trkpt>
      <trkpt lat="43.32395" lon="3.53116">
        <ele>56</ele>
        <time>2015-08-06T17:03:37Z</time>
      </trkpt>
      <trkpt lat="43.32354" lon="3.53117">
        <ele>57</ele>
        <time>2015-08-06T17:03:42Z</time>
      </trkpt>
      <trkpt lat="43.32312" lon="3.53119">
        <ele>56</ele>
        <time>2015-08-06T17:03:48Z</time>
      </trkpt>
      <trkpt lat="43.32269" lon="3.53126">
        <ele>55</ele>
        <time>2015-08-06T17:03:54Z</time>
      </trkpt>
      <trkpt lat="43.32239" lon="3.53126">
        <ele>56</ele>
        <time>2015-08-06T17:03:59Z</time>
      </trkpt>
      <trkpt lat="43.32208" lon="3.53132">
        <ele>54</ele>
        <time>2015-08-06T17:04:04Z</time>
      </trkpt>
      <trkpt lat="43.32173" lon="3.53131">
        <ele>55</ele>
        <time>2015-08-06T17:04:10Z</time>
      </trkpt>
      <trkpt lat="43.32162" lon="3.53154">
        <ele>55</ele>
        <time>2015-08-06T17:04:15Z</time>
      </trkpt>
      <trkpt lat="43.32147" lon="3.53183">
        <ele>53</ele>
        <time>2015-08-06T17:04:21Z</time>
      </trkpt>
      <trkpt lat="43.32123" lon="3.53173">
        <ele>54</ele>
        <time>2015-08-06T17:04:26Z</time>
      </trkpt>
      <trkpt lat="43.32136" lon="3.53145">
        <ele>59</ele>
        <time>2015-08-06T17:04:31Z</time>
      </trkpt>
      <trkpt lat="43.32138" lon="3.5316">
        <ele>60</ele>
        <time>2015-08-06T17:04:37Z</time>
      </trkpt>
      <trkpt lat="43.32132" lon="3.53188">
        <ele>62</ele>
        <time>2015-08-06T17:04:43Z</time>
      </trkpt>
      <trkpt lat="43.32128" lon="3.53218">
        <ele>59</ele>
        <time>2015-08-06T17:04:49Z</time>
      </trkpt>
      <trkpt lat="43.3212" lon="3.53233">
        <ele>56</ele>
        <time>2015-08-06T17:04:55Z</time>
      </trkpt>
      <trkpt lat="43.32117" lon="3.53204">
        <ele>55</ele>
        <time>2015-08-06T17:05:00Z</time>
      </trkpt>
      <trkpt lat="43.32093" lon="3.53189">
        <ele>55</ele>
        <time>2015-08-06T17:05:05Z</time>
      </trkpt>
      <trkpt lat="43.32068" lon="3.53197">
        <ele>55</ele>
        <time>2015-08-06T17:05:11Z</time>
      </trkpt>
      <trkpt lat="43.32051" lon="3.53189">
        <ele>55</ele>
        <time>2015-08-06T17:05:16Z</time>
      </trkpt>
      <trkpt lat="43.32023" lon="3.5318">
        <ele>55</ele>
        <time>2015-08-06T17:05:22Z</time>
      </trkpt>
      <trkpt lat="43.32001" lon="3.53172">
        <ele>53</ele>
        <time>2015-08-06T17:05:27Z</time>
      </trkpt>
      <trkpt lat="43.31973" lon="3.53162">
        <ele>53</ele>
        <time>2015-08-06T17:05:32Z</time>
      </trkpt>
      <trkpt lat="43.3195" lon="3.53153">
        <ele>55</ele>
        <time>2015-08-06T17:05:37Z</time>
      </trkpt>
      <trkpt lat="43.3192" lon="3.5314">
        <ele>56</ele>
        <time>2015-08-06T17:05:43Z</time>
      </trkpt>
      <trkpt lat="43.31885" lon="3.53127">
        <ele>53</ele>
        <time>2015-08-06T17:05:49Z</time>
      </trkpt>
      <trkpt lat="43.31854" lon="3.53125">
        <ele>53</ele>
        <time>2015-08-06T17:05:54Z</time>
      </trkpt>
      <trkpt lat="43.31821" lon="3.53115">
        <ele>52</ele>
        <time>2015-08-06T17:06:00Z</time>
      </trkpt>
      <trkpt lat="43.31792" lon="3.53107">
        <ele>52</ele>
        <time>2015-08-06T17:06:05Z</time>
      </trkpt>
      <trkpt lat="43.31768" lon="3.53099">
        <ele>53</ele>
        <time>2015-08-06T17:06:10Z</time>
      </trkpt>
      <trkpt lat="43.31742" lon="3.53089">
        <ele>53</ele>
        <time>2015-08-06T17:06:16Z</time>
      </trkpt>
      <trkpt lat="43.31711" lon="3.53069">
        <ele>52</ele>
        <time>2015-08-06T17:06:21Z</time>
      </trkpt>
      <trkpt lat="43.31684" lon="3.5305">
        <ele>51</ele>
        <time>2015-08-06T17:06:27Z</time>
      </trkpt>
      <trkpt lat="43.31657" lon="3.53014">
        <ele>52</ele>
        <time>2015-08-06T17:06:32Z</time>
      </trkpt>
      <trkpt lat="43.31637" lon="3.52984">
        <ele>52</ele>
        <time>2015-08-06T17:06:38Z</time>
      </trkpt>
      <trkpt lat="43.31616" lon="3.52944">
        <ele>53</ele>
        <time>2015-08-06T17:06:43Z</time>
      </trkpt>
      <trkpt lat="43.31607" lon="3.52898">
        <ele>53</ele>
        <time>2015-08-06T17:06:49Z</time>
      </trkpt>
      <trkpt lat="43.31592" lon="3.52855">
        <ele>51</ele>
        <time>2015-08-06T17:06:55Z</time>
      </trkpt>
      <trkpt lat="43.31584" lon="3.52806">
        <ele>52</ele>
        <time>2015-08-06T17:07:01Z</time>
      </trkpt>
      <trkpt lat="43.31582" lon="3.52766">
        <ele>52</ele>
        <time>2015-08-06T17:07:06Z</time>
      </trkpt>
      <trkpt lat="43.31577" lon="3.52716">
        <ele>51</ele>
        <time>2015-08-06T17:07:12Z</time>
      </trkpt>
      <trkpt lat="43.31573" lon="3.52678">
        <ele>53</ele>
        <time>2015-08-06T17:07:17Z</time>
      </trkpt>
      <trkpt lat="43.3157" lon="3.52637">
        <ele>53</ele>
        <time>2015-08-06T17:07:22Z</time>
      </trkpt>
      <trkpt lat="43.31565" lon="3.52591">
        <ele>50</ele>
        <time>2015-08-06T17:07:28Z</time>
      </trkpt>
      <trkpt lat="43.3156" lon="3.52551">
        <ele>51</ele>
        <time>2015-08-06T17:07:33Z</time>
      </trkpt>
      <trkpt lat="43.31559" lon="3.52503">
        <ele>52</ele>
        <time>2015-08-06T17:07:40Z</time>
      </trkpt>
      <trkpt lat="43.31555" lon="3.52455">
        <ele>54</ele>
        <time>2015-08-06T17:07:45Z</time>
      </trkpt>
      <trkpt lat="43.31543" lon="3.5242">
        <ele>53</ele>
        <time>2015-08-06T17:07:51Z</time>
      </trkpt>
      <trkpt lat="43.3153" lon="3.5237">
        <ele>52</ele>
        <time>2015-08-06T17:07:56Z</time>
      </trkpt>
      <trkpt lat="43.31521" lon="3.52327">
        <ele>51</ele>
        <time>2015-08-06T17:08:01Z</time>
      </trkpt>
      <trkpt lat="43.31511" lon="3.52279">
        <ele>49</ele>
        <time>2015-08-06T17:08:07Z</time>
      </trkpt>
      <trkpt lat="43.31502" lon="3.5223">
        <ele>51</ele>
        <time>2015-08-06T17:08:13Z</time>
      </trkpt>
      <trkpt lat="43.31495" lon="3.52191">
        <ele>50</ele>
        <time>2015-08-06T17:08:18Z</time>
      </trkpt>
      <trkpt lat="43.31486" lon="3.52141">
        <ele>49</ele>
        <time>2015-08-06T17:08:24Z</time>
      </trkpt>
      <trkpt lat="43.3148" lon="3.52092">
        <ele>49</ele>
        <time>2015-08-06T17:08:30Z</time>
      </trkpt>
      <trkpt lat="43.31479" lon="3.52052">
        <ele>50</ele>
        <time>2015-08-06T17:08:35Z</time>
      </trkpt>
      <trkpt lat="43.31471" lon="3.52013">
        <ele>51</ele>
        <time>2015-08-06T17:08:40Z</time>
      </trkpt>
      <trkpt lat="43.31461" lon="3.51961">
        <ele>50</ele>
        <time>2015-08-06T17:08:46Z</time>
      </trkpt>
      <trkpt lat="43.31456" lon="3.51919">
        <ele>49</ele>
        <time>2015-08-06T17:08:51Z</time>
      </trkpt>
      <trkpt lat="43.31447" lon="3.51869">
        <ele>47</ele>
        <time>2015-08-06T17:08:57Z</time>
      </trkpt>
      <trkpt lat="43.31438" lon="3.5182">
        <ele>49</ele>
        <time>2015-08-06T17:09:03Z</time>
      </trkpt>
      <trkpt lat="43.3143" lon="3.51776">
        <ele>51</ele>
        <time>2015-08-06T17:09:09Z</time>
      </trkpt>
      <trkpt lat="43.3142" lon="3.51723">
        <ele>50</ele>
        <time>2015-08-06T17:09:14Z</time>
      </trkpt>
      <trkpt lat="43.31415" lon="3.51674">
        <ele>49</ele>
        <time>2015-08-06T17:09:20Z</time>
      </trkpt>
      <trkpt lat="43.31405" lon="3.51641">
        <ele>49</ele>
        <time>2015-08-06T17:09:25Z</time>
      </trkpt>
      <trkpt lat="43.31395" lon="3.51604">
        <ele>47</ele>
        <time>2015-08-06T17:09:30Z</time>
      </trkpt>
      <trkpt lat="43.31387" lon="3.51556">
        <ele>47</ele>
        <time>2015-08-06T17:09:36Z</time>
      </trkpt>
      <trkpt lat="43.31378" lon="3.51515">
        <ele>49</ele>
        <time>2015-08-06T17:09:41Z</time>
      </trkpt>
      <trkpt lat="43.3137" lon="3.51464">
        <ele>48</ele>
        <time>2015-08-06T17:09:47Z</time>
      </trkpt>
      <trkpt lat="43.31366" lon="3.51423">
        <ele>48</ele>
        <time>2015-08-06T17:09:52Z</time>
      </trkpt>
      <trkpt lat="43.31364" lon="3.5137">
        <ele>48</ele>
        <time>2015-08-06T17:09:58Z</time>
      </trkpt>
      <trkpt lat="43.31367" lon="3.51327">
        <ele>49</ele>
        <time>2015-08-06T17:10:03Z</time>
      </trkpt>
      <trkpt lat="43.3137" lon="3.51287">
        <ele>50</ele>
        <time>2015-08-06T17:10:08Z</time>
      </trkpt>
      <trkpt lat="43.31372" lon="3.51238">
        <ele>51</ele>
        <time>2015-08-06T17:10:14Z</time>
      </trkpt>
      <trkpt lat="43.3138" lon="3.51193">
        <ele>53</ele>
        <time>2015-08-06T17:10:20Z</time>
      </trkpt>
      <trkpt lat="43.31387" lon="3.51153">
        <ele>53</ele>
        <time>2015-08-06T17:10:25Z</time>
      </trkpt>
      <trkpt lat="43.3139" lon="3.51104">
        <ele>54</ele>
        <time>2015-08-06T17:10:31Z</time>
      </trkpt>
      <trkpt lat="43.31394" lon="3.51065">
        <ele>54</ele>
        <time>2015-08-06T17:10:36Z</time>
      </trkpt>
      <trkpt lat="43.31403" lon="3.51018">
        <ele>52</ele>
        <time>2015-08-06T17:10:42Z</time>
      </trkpt>
      <trkpt lat="43.31409" lon="3.50972">
        <ele>52</ele>
        <time>2015-08-06T17:10:48Z</time>
      </trkpt>
      <trkpt lat="43.31416" lon="3.50926">
        <ele>54</ele>
        <time>2015-08-06T17:10:54Z</time>
      </trkpt>
      <trkpt lat="43.3142" lon="3.50892">
        <ele>56</ele>
        <time>2015-08-06T17:11:00Z</time>
      </trkpt>
      <trkpt lat="43.3143" lon="3.50845">
        <ele>58</ele>
        <time>2015-08-06T17:11:05Z</time>
      </trkpt>
      <trkpt lat="43.31436" lon="3.50807">
        <ele>58</ele>
        <time>2015-08-06T17:11:11Z</time>
      </trkpt>
      <trkpt lat="43.31441" lon="3.50759">
        <ele>59</ele>
        <time>2015-08-06T17:11:16Z</time>
      </trkpt>
      <trkpt lat="43.31445" lon="3.50718">
        <ele>58</ele>
        <time>2015-08-06T17:11:22Z</time>
      </trkpt>
      <trkpt lat="43.31453" lon="3.50669">
        <ele>58</ele>
        <time>2015-08-06T17:11:27Z</time>
      </trkpt>
      <trkpt lat="43.3146" lon="3.50626">
        <ele>58</ele>
        <time>2015-08-06T17:11:33Z</time>
      </trkpt>
      <trkpt lat="43.3147" lon="3.50579">
        <ele>57</ele>
        <time>2015-08-06T17:11:38Z</time>
      </trkpt>
      <trkpt lat="43.31475" lon="3.50539">
        <ele>55</ele>
        <time>2015-08-06T17:11:44Z</time>
      </trkpt>
      <trkpt lat="43.31482" lon="3.50489">
        <ele>56</ele>
        <time>2015-08-06T17:11:49Z</time>
      </trkpt>
      <trkpt lat="43.31487" lon="3.50448">
        <ele>54</ele>
        <time>2015-08-06T17:11:54Z</time>
      </trkpt>
      <trkpt lat="43.31496" lon="3.504">
        <ele>54</ele>
        <time>2015-08-06T17:12:00Z</time>
      </trkpt>
      <trkpt lat="43.31501" lon="3.50363">
        <ele>54</ele>
        <time>2015-08-06T17:12:05Z</time>
      </trkpt>
      <trkpt lat="43.31507" lon="3.50321">
        <ele>56</ele>
        <time>2015-08-06T17:12:11Z</time>
      </trkpt>
      <trkpt lat="43.31515" lon="3.50274">
        <ele>57</ele>
        <time>2015-08-06T17:12:17Z</time>
      </trkpt>
      <trkpt lat="43.31521" lon="3.50236">
        <ele>56</ele>
        <time>2015-08-06T17:12:22Z</time>
      </trkpt>
      <trkpt lat="43.31524" lon="3.50204">
        <ele>59</ele>
        <time>2015-08-06T17:12:27Z</time>
      </trkpt>
      <trkpt lat="43.31538" lon="3.50197">
        <ele>61</ele>
        <time>2015-08-06T17:12:34Z</time>
      </trkpt>
      <trkpt lat="43.31544" lon="3.50164">
        <ele>58</ele>
        <time>2015-08-06T17:12:39Z</time>
      </trkpt>
      <trkpt lat="43.31548" lon="3.50125">
        <ele>60</ele>
        <time>2015-08-06T17:12:45Z</time>
      </trkpt>
      <trkpt lat="43.31549" lon="3.50087">
        <ele>63</ele>
        <time>2015-08-06T17:12:51Z</time>
      </trkpt>
      <trkpt lat="43.31552" lon="3.50044">
        <ele>64</ele>
        <time>2015-08-06T17:12:57Z</time>
      </trkpt>
      <trkpt lat="43.31553" lon="3.50002">
        <ele>60</ele>
        <time>2015-08-06T17:13:02Z</time>
      </trkpt>
      <trkpt lat="43.3153" lon="3.49964">
        <ele>57</ele>
        <time>2015-08-06T17:13:08Z</time>
      </trkpt>
      <trkpt lat="43.31498" lon="3.49944">
        <ele>56</ele>
        <time>2015-08-06T17:13:14Z</time>
      </trkpt>
      <trkpt lat="43.31472" lon="3.49927">
        <ele>55</ele>
        <time>2015-08-06T17:13:19Z</time>
      </trkpt>
      <trkpt lat="43.31451" lon="3.49926">
        <ele>58</ele>
        <time>2015-08-06T17:13:24Z</time>
      </trkpt>
      <trkpt lat="43.31421" lon="3.49916">
        <ele>56</ele>
        <time>2015-08-06T17:13:30Z</time>
      </trkpt>
      <trkpt lat="43.31399" lon="3.49902">
        <ele>55</ele>
        <time>2015-08-06T17:13:36Z</time>
      </trkpt>
      <trkpt lat="43.31378" lon="3.49891">
        <ele>58</ele>
        <time>2015-08-06T17:13:42Z</time>
      </trkpt>
      <trkpt lat="43.31371" lon="3.4989">
        <ele>57</ele>
        <time>2015-08-06T17:13:48Z</time>
      </trkpt>
      <trkpt lat="43.31371" lon="3.49891">
        <ele>58</ele>
        <time>2015-08-06T17:13:53Z</time>
      </trkpt>
      <trkpt lat="43.31372" lon="3.49892">
        <ele>58</ele>
        <time>2015-08-06T17:13:58Z</time>
      </trkpt>
      <trkpt lat="43.3137" lon="3.49894">
        <ele>58</ele>
        <time>2015-08-06T17:14:04Z</time>
      </trkpt>
      <trkpt lat="43.31357" lon="3.49902">
        <ele>59</ele>
        <time>2015-08-06T17:14:09Z</time>
      </trkpt>
      <trkpt lat="43.31333" lon="3.49912">
        <ele>59</ele>
        <time>2015-08-06T17:14:14Z</time>
      </trkpt>
      <trkpt lat="43.31311" lon="3.49927">
        <ele>64</ele>
        <time>2015-08-06T17:14:19Z</time>
      </trkpt>
      <trkpt lat="43.31283" lon="3.49944">
        <ele>63</ele>
        <time>2015-08-06T17:14:25Z</time>
      </trkpt>
      <trkpt lat="43.31268" lon="3.49928">
        <ele>63</ele>
        <time>2015-08-06T17:14:30Z</time>
      </trkpt>
      <trkpt lat="43.31247" lon="3.49908">
        <ele>66</ele>
        <time>2015-08-06T17:14:36Z</time>
      </trkpt>
      <trkpt lat="43.3122" lon="3.49892">
        <ele>67</ele>
        <time>2015-08-06T17:14:42Z</time>
      </trkpt>
      <trkpt lat="43.31197" lon="3.49883">
        <ele>67</ele>
        <time>2015-08-06T17:14:47Z</time>
      </trkpt>
      <trkpt lat="43.31187" lon="3.49867">
        <ele>64</ele>
        <time>2015-08-06T17:14:52Z</time>
      </trkpt>
      <trkpt lat="43.3119" lon="3.49843">
        <ele>71</ele>
        <time>2015-08-06T17:14:58Z</time>
      </trkpt>
      <trkpt lat="43.3119" lon="3.49825">
        <ele>76</ele>
        <time>2015-08-06T17:15:03Z</time>
      </trkpt>
      <trkpt lat="43.31191" lon="3.49803">
        <ele>75</ele>
        <time>2015-08-06T17:15:08Z</time>
      </trkpt>
      <trkpt lat="43.31198" lon="3.49767">
        <ele>79</ele>
        <time>2015-08-06T17:15:14Z</time>
      </trkpt>
      <trkpt lat="43.31197" lon="3.49714">
        <ele>70</ele>
        <time>2015-08-06T17:15:20Z</time>
      </trkpt>
      <trkpt lat="43.31195" lon="3.49685">
        <ele>66</ele>
        <time>2015-08-06T17:15:25Z</time>
      </trkpt>
      <trkpt lat="43.31208" lon="3.49654">
        <ele>74</ele>
        <time>2015-08-06T17:15:31Z</time>
      </trkpt>
      <trkpt lat="43.31221" lon="3.49623">
        <ele>76</ele>
        <time>2015-08-06T17:15:37Z</time>
      </trkpt>
      <trkpt lat="43.31231" lon="3.49588">
        <ele>76</ele>
        <time>2015-08-06T17:15:43Z</time>
      </trkpt>
      <trkpt lat="43.31238" lon="3.49556">
        <ele>67</ele>
        <time>2015-08-06T17:15:49Z</time>
      </trkpt>
      <trkpt lat="43.31236" lon="3.4955">
        <ele>63</ele>
        <time>2015-08-06T17:15:55Z</time>
      </trkpt>
      <trkpt lat="43.31236" lon="3.49549">
        <ele>62</ele>
        <time>2015-08-06T17:16:01Z</time>
      </trkpt>
      <trkpt lat="43.31236" lon="3.49548">
        <ele>62</ele>
        <time>2015-08-06T17:16:07Z</time>
      </trkpt>
      <trkpt lat="43.31236" lon="3.49548">
        <ele>62</ele>
        <time>2015-08-06T17:16:13Z</time>
      </trkpt>
      <trkpt lat="43.31236" lon="3.49548">
        <ele>62</ele>
        <time>2015-08-06T17:16:20Z</time>
      </trkpt>
      <trkpt lat="43.31236" lon="3.49548">
        <ele>62</ele>
        <time>2015-08-06T17:16:26Z</time>
      </trkpt>
      <trkpt lat="43.31236" lon="3.49548">
        <ele>62</ele>
        <time>2015-08-06T17:16:31Z</time>
      </trkpt>
      <trkpt lat="43.31236" lon="3.49548">
        <ele>61</ele>
        <time>2015-08-06T17:16:37Z</time>
      </trkpt>
      <trkpt lat="43.31236" lon="3.49547">
        <ele>60</ele>
        <time>2015-08-06T17:16:43Z</time>
      </trkpt>
      <trkpt lat="43.31235" lon="3.49547">
        <ele>60</ele>
        <time>2015-08-06T17:16:49Z</time>
      </trkpt>
      <trkpt lat="43.31235" lon="3.49548">
        <ele>59</ele>
        <time>2015-08-06T17:16:55Z</time>
      </trkpt>
      <trkpt lat="43.31233" lon="3.49549">
        <ele>59</ele>
        <time>2015-08-06T17:17:02Z</time>
      </trkpt>
      <trkpt lat="43.31232" lon="3.49549">
        <ele>58</ele>
        <time>2015-08-06T17:17:07Z</time>
      </trkpt>
      <trkpt lat="43.3123" lon="3.49549">
        <ele>57</ele>
        <time>2015-08-06T17:17:12Z</time>
      </trkpt>
      <trkpt lat="43.31229" lon="3.49549">
        <ele>57</ele>
        <time>2015-08-06T17:17:17Z</time>
      </trkpt>
      <trkpt lat="43.31229" lon="3.49549">
        <ele>57</ele>
        <time>2015-08-06T17:17:23Z</time>
      </trkpt>
      <trkpt lat="43.31229" lon="3.49549">
        <ele>57</ele>
        <time>2015-08-06T17:17:28Z</time>
      </trkpt>
      <trkpt lat="43.31229" lon="3.49549">
        <ele>58</ele>
        <time>2015-08-06T17:17:34Z</time>
      </trkpt>
      <trkpt lat="43.31229" lon="3.49549">
        <ele>58</ele>
        <time>2015-08-06T17:17:40Z</time>
      </trkpt>
      <trkpt lat="43.31229" lon="3.49549">
        <ele>58</ele>
        <time>2015-08-06T17:17:46Z</time>
      </trkpt>
    </trkseg>
  </trk>
</gpx>